[[{"header":{"parameterUnit":"m.s-1","parameterCategory":1,"la1":30.6,"la2":28.766,"lo1":-90.7593,"lo2":-88.6598,"dy":0.0162,"dx":0.0183,"nx":116,"ny":114,"refTime":"2023-04-29T00:00:00:Z","depth":0,"parameterNumber":2,"parameterNumberName":"U-component_of_WINDS"},"data":[0.0,0.0,0.0,0.0,0.0,0.0,0.0,0.0,0.0,0.0,0.0,0.0,0.0,0.0,0.0,0.0,0.0,0.0,0.0,0.0,0.0,0.0,0.0,0.0,0.0,0.0,0.0,0.0,0.0,0.0,0.0,0.0,0.0,0.0,0.0,0.0,0.0,0.0,0.0,0.0,0.0,0.0,0.0,0.0,0.0,0.0,0.0,0.0,0.0,0.0,0.0,0.0,0.0,0.0,0.0,0.0,0.0,0.0,0.0,0.0,0.0,0.0,0.0,0.0,0.0,0.0,0.0,0.0,0.0,0.0,0.0,0.0,0.0,0.0,0.0,0.0,0.0,0.0,0.0,0.0,0.0,0.0,0.0,0.0,0.0,0.0,0.0,0.0,0.0,0.0,0.0,0.0,0.0,0.0,0.0,0.0,0.0,0.0,0.0,0.0,0.0,0.0,0.0,0.0,0.0,0.0,0.0,0.0,0.0,0.0,0.0,0.0,0.0,0.0,0.0,0.0,0.0,0.0,0.0,0.0,0.0,0.0,0.0,0.0,0.0,0.0,0.0,0.0,0.0,0.0,0.0,0.0,0.0,0.0,0.0,0.0,0.0,0.0,0.0,0.0,0.0,0.0,0.0,0.0,0.0,0.0,0.0,0.0,0.0,0.0,0.0,0.0,0.0,0.0,0.0,0.0,0.0,0.0,0.0,0.0,0.0,0.0,0.0,0.0,0.0,0.0,0.0,0.0,0.0,0.0,0.0,0.0,0.0,0.0,0.0,0.0,0.0,0.0,0.0,0.0,0.0,0.0,0.0,0.0,0.0,0.0,0.0,0.0,0.0,0.0,0.0,0.0,0.0,0.0,0.0,0.0,0.0,0.0,0.0,0.0,0.0,0.0,0.0,0.0,0.0,0.0,0.0,0.0,0.0,0.0,0.0,0.0,0.0,0.0,0.0,0.0,0.0,0.0,0.0,0.0,0.0,0.0,0.0,0.0,0.0,0.0,0.0,0.0,0.0,0.0,0.0,0.0,0.0,0.0,0.0,0.0,0.0,0.0,0.0,0.0,0.0,0.0,0.0,0.0,0.0,0.0,0.0,0.0,0.0,0.0,0.0,0.0,0.0,0.0,0.0,0.0,0.0,0.0,0.0,0.0,0.0,0.0,0.0,0.0,0.0,0.0,0.0,0.0,0.0,0.0,0.0,0.0,0.0,0.0,0.0,0.0,0.0,0.0,0.0,0.0,0.0,0.0,0.0,0.0,0.0,0.0,0.0,0.0,0.0,0.0,0.0,0.0,0.0,0.0,0.0,0.0,0.0,0.0,0.0,0.0,0.0,0.0,0.0,0.0,0.0,0.0,0.0,0.0,0.0,0.0,0.0,0.0,0.0,0.0,0.0,0.0,0.0,0.0,0.0,0.0,0.0,0.0,0.0,0.0,0.0,0.0,0.0,0.0,0.0,0.0,0.0,0.0,0.0,0.0,0.0,0.0,0.0,0.0,0.0,0.0,0.0,0.0,0.0,0.0,0.0,0.0,0.0,0.0,0.0,0.0,0.0,0.0,0.0,0.0,0.0,0.0,0.0,0.0,0.0,0.0,0.0,0.0,0.0,0.0,0.0,0.0,0.0,0.0,0.0,0.0,0.0,0.0,0.0,0.0,0.0,0.0,0.0,0.0,0.0,0.0,0.0,0.0,0.0,0.0,0.0,0.0,0.0,0.0,0.0,0.0,0.0,0.0,0.0,0.0,0.0,0.0,0.0,0.0,0.0,0.0,0.0,0.0,0.0,0.0,0.0,0.0,0.0,0.0,0.0,0.0,0.0,0.0,0.0,0.0,0.0,0.0,0.0,0.0,0.0,0.0,0.0,0.0,0.0,0.0,0.0,0.0,0.0,0.0,0.0,0.0,0.0,0.0,0.0,0.0,0.0,0.0,0.0,0.0,0.0,0.0,0.0,0.0,0.0,0.0,0.0,0.0,0.0,0.0,0.0,0.0,0.0,0.0,0.0,0.0,0.0,0.0,0.0,0.0,0.0,0.0,0.0,0.0,0.0,0.0,0.0,0.0,0.0,0.0,0.0,0.0,0.0,0.0,0.0,0.0,0.0,0.0,0.0,0.0,0.0,0.0,0.0,0.0,0.0,0.0,0.0,0.0,0.0,0.0,0.0,0.0,0.0,0.0,0.0,0.0,0.0,0.0,0.0,0.0,0.0,0.0,0.0,0.0,0.0,0.0,0.0,0.0,0.0,0.0,0.0,0.0,0.0,0.0,0.0,0.0,0.0,0.0,0.0,0.0,0.0,0.0,0.0,0.0,0.0,0.0,0.0,0.0,0.0,0.0,0.0,0.0,0.0,0.0,0.0,0.0,0.0,0.0,0.0,0.0,0.0,0.0,0.0,0.0,0.0,0.0,0.0,0.0,0.0,0.0,0.0,0.0,0.0,0.0,0.0,0.0,0.0,0.0,0.0,0.0,0.0,0.0,0.0,0.0,0.0,0.0,0.0,0.0,0.0,0.0,0.0,0.0,0.0,0.0,0.0,0.0,0.0,0.0,0.0,0.0,0.0,0.0,0.0,0.0,0.0,0.0,0.0,0.0,0.0,0.0,0.0,0.0,0.0,0.0,0.0,0.0,0.0,0.0,0.0,0.0,0.0,0.0,0.0,0.0,0.0,0.0,0.0,0.0,0.0,0.0,0.0,0.0,0.0,0.0,0.0,0.0,0.0,0.0,0.0,0.0,0.0,0.0,0.0,0.0,0.0,0.0,0.0,0.0,0.0,0.0,0.0,0.0,0.0,0.0,0.0,0.0,0.0,0.0,0.0,0.0,0.0,0.0,0.0,0.0,0.0,0.0,0.0,0.0,0.0,0.0,0.0,0.0,0.0,0.0,0.0,0.0,0.0,0.0,0.0,0.0,0.0,0.0,0.0,0.0,0.0,0.0,0.0,0.0,0.0,0.0,0.0,0.0,0.0,0.0,0.0,0.0,0.0,0.0,0.0,0.0,0.0,0.0,0.0,0.0,0.0,0.0,0.0,0.0,0.0,0.0,0.0,0.0,0.0,0.0,0.0,0.0,0.0,0.0,0.0,0.0,0.0,0.0,0.0,0.0,0.0,0.0,0.0,0.0,0.0,0.0,0.0,0.0,0.0,0.0,0.0,0.0,0.0,0.0,0.0,0.0,0.0,0.0,0.0,0.0,0.0,0.0,0.0,0.0,0.0,0.0,0.0,0.0,0.0,0.0,0.0,0.0,0.0,0.0,0.0,0.0,0.0,0.0,0.0,0.0,0.0,0.0,0.0,0.0,0.0,0.0,0.0,0.0,0.0,0.0,0.0,0.0,0.0,0.0,0.0,0.0,0.0,0.0,0.0,0.0,0.0,0.0,0.0,0.0,0.0,0.0,0.0,0.0,0.0,0.0,0.0,0.0,0.0,0.0,0.0,0.0,0.0,0.0,0.0,0.0,0.0,0.0,0.0,0.0,0.0,0.0,0.0,0.0,0.0,0.0,0.0,0.0,0.0,0.0,0.0,0.0,0.0,0.0,0.0,0.0,0.0,0.0,0.0,0.0,0.0,0.0,0.0,0.0,0.0,0.0,0.0,0.0,0.0,0.0,0.0,0.0,0.0,0.0,0.0,0.0,0.0,0.0,0.0,0.0,0.0,0.0,0.0,0.0,0.0,0.0,0.0,0.0,0.0,0.0,0.0,0.0,0.0,0.0,0.0,0.0,0.0,0.0,0.0,0.0,0.0,0.0,0.0,0.0,0.0,0.0,0.0,0.0,0.0,0.0,0.0,0.0,0.0,0.0,0.0,0.0,0.0,0.0,0.0,0.0,0.0,0.0,0.0,0.0,0.0,0.0,0.0,0.0,0.0,0.0,0.0,0.0,0.0,0.0,0.0,0.0,0.0,0.0,0.0,0.0,0.0,0.0,0.0,0.0,0.0,0.0,0.0,0.0,0.0,0.0,0.0,0.0,0.0,0.0,0.0,0.0,0.0,0.0,0.0,0.0,0.0,0.0,0.0,0.0,0.0,0.0,0.0,0.0,0.0,0.0,0.0,0.0,0.0,0.0,0.0,0.0,0.0,0.0,0.0,0.0,0.0,0.0,0.0,0.0,0.0,0.0,0.0,0.0,0.0,0.0,0.0,0.0,0.0,0.0,0.0,0.0,0.0,0.0,0.0,0.0,0.0,0.0,0.0,0.0,0.0,0.0,0.0,0.0,0.0,0.0,0.0,0.0,0.0,0.0,0.0,0.0,0.0,0.0,0.0,0.0,0.0,0.0,0.0,0.0,0.0,0.0,0.0,0.0,0.0,0.0,0.0,0.0,0.0,0.0,0.0,0.0,0.0,0.0,0.0,0.0,0.0,0.0,0.0,0.0,0.0,0.0,0.0,0.0,0.0,0.0,0.0,0.0,0.0,0.0,0.0,0.0,0.0,0.0,0.0,0.0,0.0,0.0,0.0,0.0,0.0,0.0,0.0,0.0,0.0,0.0,0.0,0.0,0.0,0.0,0.0,0.0,0.0,0.0,0.0,0.0,0.0,0.0,0.0,0.0,0.0,0.0,0.0,0.0,0.0,0.0,0.0,0.0,0.0,0.0,0.0,0.0,0.0,0.0,0.0,0.0,0.0,0.0,0.0,0.0,0.0,0.0,0.0,0.0,0.0,0.0,0.0,0.0,0.0,0.0,0.0,0.0,0.0,0.0,0.0,0.0,0.0,0.0,0.0,0.0,0.0,0.0,0.0,0.0,0.0,0.0,0.0,0.0,0.0,0.0,0.0,0.0,0.0,0.0,0.0,0.0,0.0,0.0,0.0,0.0,0.0,0.0,0.0,0.0,0.0,0.0,0.0,0.0,0.0,0.0,0.0,0.0,0.0,0.0,0.0,0.0,0.0,0.0,0.0,0.0,0.0,0.0,0.0,0.0,0.0,0.0,0.0,0.0,0.0,0.0,0.0,0.0,0.0,0.0,0.0,0.0,0.0,0.0,0.0,0.0,0.0,0.0,0.0,0.0,0.0,0.0,0.0,0.0,0.0,0.0,0.0,0.0,0.0,0.0,0.0,0.0,0.0,0.0,0.0,0.0,0.0,0.0,0.0,0.0,0.0,0.0,0.0,0.0,0.0,0.0,0.0,0.0,0.0,0.0,0.0,0.0,0.0,0.0,0.0,0.0,0.0,0.0,0.0,0.0,0.0,0.0,0.0,0.0,0.0,0.0,0.0,0.0,0.0,0.0,0.0,0.0,0.0,0.0,0.0,0.0,0.0,0.0,0.0,0.0,0.0,0.0,0.0,0.0,0.0,0.0,0.0,0.0,0.0,0.0,0.0,0.0,0.0,0.0,0.0,0.0,0.0,0.0,0.0,0.0,0.0,0.0,0.0,0.0,0.0,0.0,0.0,0.0,0.0,0.0,0.0,0.0,0.0,0.0,0.0,0.0,0.0,0.0,0.0,0.0,0.0,0.0,0.0,0.0,0.0,0.0,0.0,0.0,0.0,0.0,0.0,0.0,0.0,0.0,0.0,0.0,0.0,0.0,0.0,0.0,0.0,0.0,0.0,0.0,0.0,0.0,0.0,0.0,0.0,0.0,0.0,0.0,0.0,0.0,0.0,0.0,0.0,0.0,0.0,0.0,0.0,0.0,0.0,0.0,0.0,0.0,0.0,0.0,0.0,0.0,0.0,0.0,0.0,0.0,0.0,0.0,0.0,0.0,0.0,0.0,0.0,0.0,0.0,0.0,0.0,0.0,0.0,0.0,0.0,0.0,0.0,0.0,0.0,0.0,0.0,0.0,0.0,0.0,0.0,0.0,0.0,0.0,0.0,0.0,0.0,0.0,0.0,0.0,0.0,0.0,0.0,0.0,0.0,0.0,0.0,0.0,0.0,0.0,0.0,0.0,0.0,0.0,0.0,0.0,0.0,0.0,0.0,0.0,0.0,0.0,0.0,0.0,0.0,0.0,0.0,0.0,0.0,0.0,0.0,0.0,0.0,0.0,0.0,0.0,0.0,0.0,0.0,0.0,0.0,0.0,0.0,0.0,0.0,0.0,0.0,0.0,0.0,0.0,0.0,0.0,0.0,0.0,0.0,0.0,0.0,0.0,-3.3906,0.0,0.0,0.0,0.0,0.0,0.0,0.0,0.0,0.0,0.0,0.0,0.0,0.0,0.0,0.0,0.0,0.0,0.0,0.0,0.0,0.0,0.0,0.0,0.0,0.0,0.0,0.0,0.0,0.0,0.0,0.0,0.0,0.0,0.0,0.0,0.0,0.0,0.0,0.0,0.0,0.0,0.0,0.0,0.0,0.0,0.0,0.0,0.0,0.0,0.0,0.0,0.0,0.0,0.0,0.0,0.0,0.0,0.0,0.0,0.0,0.0,0.0,0.0,0.0,0.0,0.0,0.0,0.0,0.0,0.0,0.0,0.0,0.0,0.0,0.0,0.0,0.0,0.0,0.0,0.0,0.0,0.0,0.0,0.0,0.0,0.0,0.0,0.0,0.0,0.0,0.0,0.0,0.0,0.0,0.0,0.0,0.0,0.0,0.0,0.0,0.0,0.0,0.0,0.0,0.0,0.0,0.0,0.0,0.0,0.0,0.0,0.0,0.0,0.0,0.0,0.0,-3.2887,0.0,0.0,0.0,0.0,0.0,0.0,0.0,0.0,0.0,0.0,0.0,0.0,0.0,0.0,0.0,0.0,0.0,0.0,0.0,0.0,0.0,0.0,0.0,0.0,0.0,0.0,0.0,0.0,0.0,0.0,0.0,0.0,0.0,0.0,0.0,0.0,0.0,0.0,0.0,0.0,0.0,0.0,0.0,0.0,0.0,0.0,0.0,0.0,0.0,0.0,0.0,0.0,0.0,0.0,0.0,0.0,0.0,0.0,0.0,0.0,0.0,0.0,0.0,0.0,0.0,0.0,0.0,0.0,0.0,0.0,0.0,0.0,0.0,0.0,0.0,0.0,0.0,0.0,0.0,0.0,0.0,0.0,0.0,0.0,0.0,0.0,0.0,0.0,0.0,0.0,0.0,0.0,0.0,0.0,0.0,0.0,0.0,0.0,0.0,0.0,0.0,0.0,0.0,0.0,0.0,0.0,0.0,0.0,-3.1732,-3.2262,-3.2892,-3.2895,-3.2534,-3.1979,-3.3505,-3.4226,-3.4233,0.0,0.0,0.0,0.0,0.0,0.0,0.0,0.0,0.0,0.0,0.0,0.0,0.0,0.0,0.0,0.0,0.0,0.0,0.0,0.0,0.0,0.0,0.0,0.0,0.0,0.0,0.0,0.0,0.0,0.0,0.0,0.0,0.0,0.0,0.0,0.0,0.0,0.0,0.0,-3.0392,-3.0652,-3.0492,-3.0009,0.0,0.0,0.0,0.0,0.0,0.0,0.0,0.0,0.0,0.0,0.0,0.0,0.0,0.0,0.0,0.0,0.0,0.0,0.0,0.0,0.0,0.0,0.0,0.0,0.0,0.0,0.0,0.0,0.0,0.0,0.0,0.0,0.0,0.0,0.0,0.0,0.0,0.0,0.0,0.0,0.0,0.0,0.0,0.0,-2.7884,-3.0072,0.0,0.0,0.0,0.0,0.0,0.0,0.0,0.0,0.0,0.0,0.0,0.0,0.0,0.0,-3.0081,-3.1642,-3.2474,-3.2589,-3.3987,-3.4718,-3.4833,-3.4833,-3.4776,-3.4604,-3.3377,0.0,-3.3492,-3.3788,0.0,0.0,0.0,0.0,0.0,0.0,0.0,0.0,0.0,0.0,0.0,0.0,0.0,0.0,0.0,0.0,0.0,0.0,0.0,0.0,0.0,0.0,0.0,0.0,0.0,0.0,0.0,0.0,0.0,0.0,0.0,0.0,0.0,0.0,0.0,0.0,-3.0475,-3.2053,-3.2947,-3.3313,-3.3517,-3.3559,-3.3474,-3.2077,-2.9777,-2.9652,0.0,0.0,0.0,0.0,0.0,0.0,0.0,0.0,0.0,0.0,0.0,0.0,0.0,0.0,0.0,0.0,0.0,0.0,0.0,0.0,0.0,0.0,0.0,0.0,0.0,0.0,0.0,0.0,0.0,0.0,0.0,0.0,0.0,0.0,0.0,0.0,0.0,0.0,0.0,-2.6992,-2.8789,-2.9886,-3.0391,-2.9966,0.0,0.0,0.0,0.0,0.0,0.0,0.0,0.0,0.0,-3.0521,-3.1427,-3.1865,-3.1782,-3.3407,-3.4208,-3.4198,-3.496,-3.5304,-3.5304,-3.5304,-3.5304,-3.5266,-3.4391,-3.4124,-3.4283,-3.3827,-3.3538,-3.3272,0.0,0.0,0.0,0.0,0.0,-2.7532,0.0,0.0,0.0,0.0,0.0,0.0,0.0,0.0,0.0,0.0,0.0,0.0,0.0,0.0,0.0,0.0,0.0,0.0,0.0,0.0,0.0,0.0,0.0,0.0,0.0,0.0,0.0,0.0,-3.1675,-3.3498,-3.487,-3.535,-3.5601,-3.5729,-3.5724,-3.402,-3.1146,-3.1021,-2.9939,0.0,0.0,0.0,0.0,0.0,0.0,0.0,0.0,0.0,0.0,0.0,0.0,0.0,0.0,0.0,0.0,0.0,0.0,0.0,0.0,0.0,0.0,0.0,0.0,0.0,0.0,0.0,0.0,0.0,0.0,0.0,0.0,0.0,0.0,0.0,0.0,0.0,0.0,-2.786,-2.9425,-3.0095,-3.126,-3.134,0.0,0.0,0.0,0.0,0.0,0.0,-3.1243,-3.1243,-3.141,-3.1785,-3.3219,-3.393,-3.3819,-3.5254,-3.5971,-3.5975,-3.6021,-3.6051,-3.6051,-3.6051,-3.5921,-3.5695,-3.5548,-3.5446,-3.5337,-3.4354,-3.3768,-3.35,-3.3864,-3.2697,-3.081,-3.0379,-2.9886,-2.9424,0.0,0.0,0.0,0.0,0.0,0.0,0.0,0.0,0.0,0.0,0.0,0.0,0.0,0.0,0.0,0.0,0.0,0.0,0.0,0.0,0.0,0.0,0.0,0.0,0.0,0.0,0.0,-3.0216,-3.233,-3.3866,-3.4812,-3.5215,-3.5454,-3.551,-3.571,-3.4805,-3.3142,-3.2947,-3.1851,-3.0111,0.0,0.0,0.0,0.0,0.0,0.0,0.0,0.0,0.0,0.0,0.0,0.0,0.0,0.0,0.0,0.0,0.0,0.0,0.0,0.0,0.0,0.0,0.0,0.0,0.0,0.0,0.0,0.0,0.0,0.0,0.0,0.0,0.0,0.0,0.0,0.0,0.0,0.0,0.0,-3.1678,-3.414,0.0,0.0,0.0,0.0,-3.0681,-3.0656,-3.1391,-3.299,-3.3015,-3.3712,-3.5298,-3.617,-3.6614,-3.6588,-3.7371,-3.7766,-3.7775,-3.7763,-3.7766,-3.7766,-3.7766,-3.7313,-3.6534,-3.6527,-3.6427,-3.6215,-3.5843,-3.5221,-3.443,-3.3504,-3.2616,-3.1644,-3.0039,-3.0346,-3.1528,0.0,0.0,0.0,0.0,0.0,0.0,0.0,0.0,0.0,0.0,0.0,0.0,0.0,0.0,0.0,0.0,0.0,0.0,0.0,0.0,0.0,0.0,0.0,0.0,0.0,0.0,-2.7628,-2.9144,-3.1139,-3.2433,-3.3089,-3.3927,-3.4408,-3.4629,-3.5213,-3.5274,-3.4908,-3.4788,-3.3749,-3.2151,-3.1428,-2.9814,0.0,0.0,0.0,0.0,0.0,0.0,0.0,0.0,0.0,0.0,0.0,0.0,0.0,0.0,0.0,0.0,0.0,0.0,0.0,0.0,0.0,0.0,0.0,0.0,0.0,0.0,0.0,0.0,0.0,0.0,0.0,0.0,0.0,0.0,0.0,0.0,0.0,-3.1795,-3.3359,0.0,-3.3445,-3.3378,-3.309,-3.242,-3.3399,-3.4521,-3.5651,-3.6219,-3.7025,-3.8132,-3.8373,-3.846,-3.84,-3.8078,-3.7901,-3.7897,-3.7913,-3.8182,-3.8738,-3.8789,-3.8908,-3.9087,-3.8562,-3.8278,-3.8142,-3.789,-3.7179,-3.6114,-3.524,-3.4955,-3.4982,-3.4235,-3.4264,-3.4647,0.0,0.0,0.0,0.0,0.0,0.0,0.0,0.0,0.0,0.0,0.0,0.0,0.0,0.0,0.0,0.0,0.0,0.0,0.0,0.0,0.0,0.0,0.0,0.0,0.0,-2.5077,-2.7174,-2.8712,-3.0186,-3.1224,-3.188,-3.275,-3.3263,-3.3492,-3.443,-3.5018,-3.5301,-3.5558,-3.507,-3.4057,-3.3405,-3.1452,-2.8845,0.0,0.0,0.0,0.0,0.0,0.0,0.0,0.0,0.0,0.0,0.0,0.0,0.0,0.0,0.0,0.0,0.0,0.0,0.0,0.0,0.0,0.0,0.0,0.0,0.0,0.0,0.0,0.0,0.0,0.0,0.0,0.0,0.0,0.0,0.0,-3.0652,-3.2341,-3.4041,-3.5117,-3.5152,-3.5424,-3.5695,-3.5952,-3.7006,-3.776,-3.799,-3.8544,-3.8948,-3.9202,-3.9333,-3.9373,-3.9341,-3.8954,-3.878,-3.8777,-3.9077,-3.9535,-4.0092,-4.0415,-4.0088,-3.9234,-3.9554,-3.9035,-3.7928,-3.8082,-3.8003,-3.7673,-3.7012,-3.6775,-3.6833,-3.6634,-3.6473,-3.6325,0.0,0.0,0.0,0.0,0.0,0.0,0.0,0.0,0.0,0.0,0.0,0.0,0.0,0.0,0.0,0.0,0.0,0.0,0.0,0.0,0.0,0.0,0.0,0.0,-2.4233,-2.4977,-2.6563,-2.9053,-2.9574,-3.0325,-3.1342,-3.1824,-3.2091,-3.2224,-3.3414,-3.4077,-3.4334,-3.5191,-3.5695,-3.5738,-3.3978,-3.2279,-3.0586,0.0,0.0,0.0,0.0,0.0,0.0,0.0,0.0,0.0,0.0,0.0,0.0,0.0,0.0,0.0,0.0,0.0,0.0,0.0,0.0,0.0,0.0,0.0,0.0,0.0,0.0,0.0,0.0,0.0,0.0,0.0,0.0,0.0,-2.7327,-3.0821,-3.3478,-3.359,-3.6575,-3.8645,-3.8633,-3.9394,-4.0234,-4.1055,-4.1066,-4.0665,-3.9845,-3.9689,-3.9243,-3.8429,-3.9034,-3.937,-3.9398,-4.0169,-4.0534,-4.0546,-4.1412,-4.1854,-4.1873,-4.2739,-4.0877,-3.7102,-3.9522,-3.8696,-3.5701,-3.6488,-3.769,-3.8971,-3.8521,-3.7792,-3.6986,-3.6807,-3.6673,-3.651,0.0,0.0,0.0,0.0,0.0,0.0,0.0,0.0,0.0,0.0,0.0,0.0,0.0,0.0,0.0,0.0,0.0,0.0,0.0,0.0,0.0,0.0,0.0,0.0,-2.4346,-2.5522,-2.6802,-2.8244,-2.822,-2.8712,-2.9682,-3.0397,-3.0945,-3.1372,-3.2296,-3.3184,-3.4032,-3.4419,-3.5018,-3.5636,-3.5195,-3.4039,-3.2539,0.0,0.0,0.0,0.0,0.0,0.0,0.0,0.0,0.0,0.0,0.0,0.0,0.0,0.0,0.0,0.0,0.0,0.0,0.0,0.0,0.0,0.0,0.0,0.0,0.0,0.0,0.0,0.0,0.0,0.0,0.0,0.0,-3.1916,-3.245,-3.3562,-3.5279,-3.7807,-3.8959,-3.9546,-3.9531,-3.9766,-3.9746,-3.9336,-3.9296,-3.9452,-3.9842,-3.8619,-3.8069,-3.8458,-3.8564,-3.8879,-3.9468,-4.0828,-4.1489,-4.145,-4.2335,-4.2739,-4.2777,-4.3585,-4.3682,-4.3107,-4.2607,-4.1857,-4.0896,-3.9877,-3.9362,-3.908,-3.7599,-3.7148,-3.7387,-3.7633,-3.7877,-3.7757,0.0,0.0,0.0,0.0,0.0,0.0,0.0,0.0,0.0,0.0,0.0,0.0,0.0,0.0,0.0,0.0,0.0,0.0,0.0,0.0,0.0,0.0,0.0,-2.3178,-2.4778,-2.5898,-2.6774,-2.7439,-2.7631,-2.8029,-2.8633,-2.9272,-2.9775,-3.0219,-3.1026,-3.1883,-3.2749,-3.3544,-3.4334,-3.5009,-3.5373,-3.4636,-3.3285,-3.3221,-3.2187,-3.0735,-3.0645,-3.0696,-3.063,-2.9471,0.0,0.0,0.0,0.0,0.0,0.0,0.0,0.0,0.0,0.0,0.0,0.0,0.0,0.0,0.0,0.0,0.0,0.0,0.0,0.0,0.0,0.0,0.0,0.0,-3.2328,-3.5349,-3.7372,-3.7169,-3.7838,-4.0613,-4.1279,-4.1499,-4.1484,-4.1816,-4.1836,-4.1328,-4.1289,-4.1172,-4.0957,-3.9959,-3.8957,-3.8026,-3.8931,-3.912,-3.8511,-4.0423,-4.1374,-4.1354,-4.2159,-4.2758,-4.3124,-4.3932,-4.3989,0.0,-4.3201,-4.2297,-4.0912,-4.0223,-3.9669,0.0,0.0,0.0,0.0,0.0,-3.8465,-3.8644,0.0,0.0,0.0,0.0,0.0,0.0,0.0,0.0,0.0,0.0,0.0,0.0,0.0,0.0,0.0,0.0,0.0,0.0,0.0,0.0,0.0,-2.1696,-2.265,-2.3807,-2.5307,-2.6016,-2.6505,-2.6808,-2.7439,-2.7851,-2.8102,-2.843,-2.8725,-2.8957,-2.9738,-3.0397,-3.1016,-3.2486,-3.3437,-3.4016,-3.4759,-3.4427,-3.3528,-3.3463,-3.2553,-3.1281,-3.1106,-3.1176,-3.1246,-3.0753,0.0,0.0,0.0,0.0,0.0,0.0,0.0,0.0,0.0,0.0,0.0,0.0,0.0,0.0,0.0,0.0,0.0,0.0,0.0,0.0,0.0,0.0,0.0,0.0,-3.555,-3.8356,-4.159,-4.0927,-4.0734,-4.2471,-4.3378,-4.3859,-4.3847,-4.4551,-4.4961,-4.4863,-4.4844,-4.4141,-4.248,0.0,0.0,0.0,0.0,-3.9502,-3.7274,-3.9652,-4.0862,-4.0868,-4.1605,-4.2351,-4.314,-4.3932,-4.3124,-4.1143,-4.2508,-4.1373,-3.8623,-3.9119,-3.9333,-3.9375,-3.9771,-3.9048,-3.7755,-3.7766,-3.8409,0.0,0.0,0.0,0.0,0.0,0.0,0.0,0.0,0.0,0.0,0.0,0.0,0.0,0.0,0.0,0.0,0.0,0.0,0.0,0.0,0.0,-1.7534,-2.0734,-2.156,-2.2887,-2.4863,-2.5368,-2.6068,-2.697,-2.6791,-2.7129,-2.7954,-2.801,-2.8192,-2.8431,-2.8712,-2.9405,-3.0387,-3.0624,-3.1675,-3.316,-3.3412,-3.4117,-3.4994,-3.4982,-3.4749,-3.4434,-3.4457,-3.4475,-3.4291,-3.2807,-3.2377,-3.242,-3.2327,0.0,0.0,0.0,0.0,0.0,0.0,0.0,0.0,0.0,0.0,0.0,0.0,0.0,0.0,0.0,0.0,0.0,0.0,0.0,0.0,-3.5762,-3.8127,-4.0519,-4.2662,-4.2692,-4.2973,-4.4189,-4.4571,-4.4753,-4.4741,-4.4901,-4.4707,-4.4004,-4.3945,-4.3496,-4.2461,-4.0449,0.0,-3.7341,-3.7717,-3.799,-3.815,-4.0654,-4.1886,-4.1838,0.0,0.0,-4.3207,-4.3962,-4.4412,-4.4547,-4.3475,-4.2667,-4.2008,-4.0699,-4.0166,-4.0051,-3.8821,-3.8467,-3.8401,-3.6476,-3.7332,-3.9177,0.0,0.0,0.0,0.0,0.0,0.0,0.0,0.0,0.0,0.0,0.0,0.0,0.0,0.0,0.0,0.0,0.0,0.0,0.0,-1.7295,-1.807,-2.048,-2.1498,-2.2535,-2.3758,-2.453,-2.5271,-2.6005,-2.6282,-2.6724,-2.7303,-2.7238,-2.743,-2.7847,-2.778,-2.8245,-2.9127,-2.9453,-3.0221,-3.1328,-3.209,-3.2887,-3.3688,-3.4642,-3.4986,-3.4945,-3.4993,-3.4993,-3.4849,-3.3845,-3.358,-3.3631,-3.3543,-3.2976,-3.2026,0.0,0.0,0.0,0.0,0.0,0.0,0.0,0.0,0.0,0.0,0.0,0.0,0.0,0.0,-3.1788,0.0,0.0,-3.4661,-3.805,-3.8973,-4.0466,-4.392,-4.4423,-4.466,-4.5278,-4.5422,-4.5318,-4.4937,-4.4906,-4.4389,-4.3144,-4.3047,-4.2676,-4.1836,-4.0586,-3.9101,-3.736,-3.8502,-3.8713,-3.7804,-4.0283,-4.1537,-4.151,-4.185,-4.2228,-4.266,-4.34,-4.3975,-4.4289,-4.3395,-4.2768,-4.2307,-4.095,-4.0398,-4.0319,-3.9493,-3.938,-3.95,-3.7706,-3.8233,-3.9643,0.0,0.0,0.0,0.0,0.0,0.0,0.0,0.0,0.0,0.0,0.0,0.0,0.0,0.0,0.0,0.0,0.0,0.0,0.0,-1.7399,-1.8446,-2.0064,-2.1192,-2.1941,-2.2232,-2.327,-2.4081,-2.4611,-2.5443,-2.6019,-2.6385,-2.6282,-2.6472,-2.6948,-2.6771,-2.7026,-2.763,-2.824,-2.8758,-2.9278,-3.0492,-3.1183,-3.1673,-3.3276,-3.4076,-3.4329,-3.4419,-3.4442,-3.4446,-3.4265,-3.4265,-3.4345,-3.4255,-3.4316,-3.3829,-3.0781,-3.0793,0.0,0.0,0.0,0.0,0.0,0.0,0.0,0.0,0.0,-3.1988,-3.118,-3.2781,-3.4345,-3.4437,-3.4295,-3.5707,-4.0485,-4.0269,-4.0981,-4.524,-4.5745,-4.5791,-4.6072,-4.5975,-4.5676,-4.5119,-4.5055,-4.453,-4.3242,-4.3164,-4.2792,-4.1972,-4.1933,-4.0897,-3.8628,-4.0379,-4.0346,-3.8233,-4.0019,-4.1011,-4.1182,-4.1092,-4.1615,-4.2632,-4.3047,-4.3274,-4.3331,-4.2915,-4.2253,-4.1358,-4.0666,-4.0379,-4.0379,-4.0379,-4.0432,-4.0389,-3.954,-3.9622,-4.0158,0.0,0.0,0.0,0.0,0.0,0.0,0.0,0.0,0.0,0.0,0.0,0.0,0.0,0.0,0.0,0.0,0.0,0.0,-1.487,-1.5321,-1.6417,-1.8372,-1.929,-1.9939,-2.0289,-2.1315,-2.2304,-2.3314,-2.3667,-2.4337,-2.5271,-2.5271,-2.5293,-2.5352,-2.5558,-2.5851,-2.6149,-2.6212,-2.6792,-2.7669,-2.8199,-2.9196,-3.0458,-3.1144,-3.2224,-3.3405,-3.3825,-3.3988,-3.4012,-3.4136,-3.4208,-3.4223,-3.4344,-3.4427,-3.4117,-3.2179,0.0,-3.1083,-2.7791,-2.5931,-2.5281,-2.6786,-2.8773,-3.0163,0.0,0.0,-3.5681,-3.3654,-3.6514,-3.9444,-3.9627,-4.1478,-4.3173,-4.3794,-4.4408,-4.5291,-4.6567,-4.6084,-4.589,-4.6696,-4.6261,-4.5909,-4.5947,-4.5956,-4.5926,-4.5875,-4.5854,-4.5483,-4.4624,-4.4565,-4.4095,-4.3021,-4.2502,-4.2119,-4.1816,-4.1319,-4.1437,-4.213,-4.2069,-4.2914,-4.4463,-4.3656,-4.3639,-4.4157,-4.2554,-4.1319,-4.0463,-4.0346,-4.0307,-4.0325,-4.0379,-4.0432,-4.0482,-4.037,-4.0266,-4.0196,0.0,0.0,0.0,0.0,0.0,0.0,0.0,0.0,0.0,0.0,0.0,0.0,0.0,0.0,0.0,0.0,0.0,0.0,-1.283,-1.3561,-1.4811,-1.6581,-1.734,-1.7778,-1.8142,-1.8873,-1.9821,-2.0887,-2.1285,-2.1868,-2.2702,-2.26,-2.2688,-2.2904,-2.3432,-2.382,-2.4073,-2.4642,-2.5096,-2.554,-2.6368,-2.728,-2.8216,-2.9303,-3.033,-3.121,-3.1533,-3.157,0.0,0.0,-3.1797,-3.1999,-3.3232,-3.3038,-3.2192,-3.1462,-3.0662,0.0,-2.8274,-2.7981,-2.839,-2.9673,-3.1474,-3.2999,-3.3278,-3.5473,-3.7248,-3.6489,-3.8345,-4.0425,-4.1568,-4.1102,-4.1553,0.0,-4.3753,-4.3538,-4.5817,-4.6278,-4.649,-4.6855,-4.4905,-4.3187,-4.2332,-4.3592,-4.3713,-4.1894,-4.3164,-4.4082,-4.4231,-4.4231,-4.4073,-4.3718,-4.3342,-4.3157,-4.3162,-4.2791,-4.2787,-4.3105,-4.3058,-4.3137,-4.335,-4.3345,-4.3214,-4.2874,-4.153,-4.072,-4.036,-4.0325,-4.0307,-4.0307,-4.0325,-4.0415,-4.0502,-4.0495,-4.046,-4.0356,0.0,0.0,0.0,0.0,0.0,0.0,0.0,0.0,0.0,0.0,0.0,0.0,0.0,0.0,0.0,0.0,0.0,0.0,0.0,-1.1897,-1.3094,-1.4648,-1.5121,0.0,-1.5671,-1.6308,-1.7135,-1.8195,-1.8773,-1.9422,-2.024,-2.0096,-2.0182,-2.0492,-2.1178,-2.1565,-2.1752,-2.2747,-2.3139,-2.324,-2.4268,-2.5192,-2.6108,-2.7255,-2.7987,-2.8383,-2.904,-2.914,0.0,0.0,-2.912,-2.9691,-3.108,-3.1112,-3.0553,-3.0122,-2.8981,-2.8019,-2.8662,-2.9296,-3.0233,-3.2145,-3.3673,-3.5034,-3.6277,-3.7535,-3.8532,-3.8801,-3.9905,-4.1285,-4.2711,-4.1208,-4.0978,-4.4768,-4.3614,-4.3148,-4.5802,-4.678,-4.7067,-4.6604,-4.3946,-4.1089,-3.833,-4.0615,-4.1716,-4.0335,-4.1787,-4.3102,-4.3984,-4.4023,-4.4139,-4.4386,-4.4152,-4.4047,-4.4059,-4.381,-4.3693,-4.368,-4.3885,-4.3518,-4.2662,-4.2916,-4.2505,-4.1544,-4.08,-4.0454,-4.0454,-4.0375,-4.0341,-4.0341,-4.0306,-4.0379,-4.0466,-4.046,-4.0473,-4.0473,0.0,0.0,0.0,0.0,0.0,0.0,0.0,0.0,0.0,0.0,0.0,0.0,0.0,0.0,0.0,0.0,0.0,0.0,0.0,-1.0166,-1.1157,-1.2368,-1.2685,-1.2846,-1.2941,-1.3597,-1.4415,-1.5412,-1.6224,-1.7157,-1.8272,-1.8272,-1.8272,-1.8324,-1.8949,-1.9205,-1.9256,-2.0273,-2.07,-2.0798,-2.1574,-2.2907,-2.4408,-2.4834,-2.4956,-2.5078,-2.6775,0.0,0.0,0.0,-2.6811,-2.8073,-2.7613,-2.874,0.0,-2.8426,-2.6943,-2.6328,-2.8811,-2.8476,-2.8435,-3.2702,-3.4292,-3.5192,-3.6796,-3.8559,-3.9927,-4.0179,-4.1698,-4.3141,-4.3592,-4.4231,-4.4702,-4.4806,-4.5668,-4.6623,-4.7496,-4.7874,-4.747,-4.583,-4.4113,-4.0805,0.0,-3.7628,-4.1064,-4.4353,-4.3954,-4.3944,-4.482,-4.4859,-4.5243,-4.6094,-4.5293,-4.4898,-4.4961,-4.4117,-4.3673,-4.3611,-4.4529,-4.446,-4.3537,-4.2578,-4.1662,-4.0827,-4.0648,-4.0588,-4.0574,-4.0454,-4.0441,-4.0473,-4.0341,-4.0325,-4.0415,-4.0396,-4.0427,-4.0489,0.0,0.0,0.0,0.0,0.0,0.0,0.0,0.0,0.0,0.0,0.0,0.0,0.0,0.0,0.0,0.0,0.0,0.0,0.0,-0.7323,-0.7926,-0.9469,-0.953,-0.9612,-0.9854,-1.0032,-1.0608,-1.1721,-1.1916,-1.248,-1.3348,-1.3348,-1.3336,-1.3387,-1.4646,-1.5175,-1.5279,-1.666,-1.7597,-1.827,-1.8739,-2.0225,-2.2111,-2.1532,-2.2118,-2.2955,0.0,0.0,0.0,0.0,-2.3817,-2.4959,-2.6349,-2.6616,-2.6189,-2.5103,-2.5617,-2.6579,-2.6745,-2.8431,-3.061,-3.2473,-3.4546,-3.6385,-3.7368,-3.8219,-3.8844,-3.9172,-3.9036,-3.9268,-4.0664,-3.9853,-3.9924,-4.2822,-4.2212,-4.2427,-4.543,-4.4631,-4.4556,-4.6839,-4.3758,0.0,0.0,0.0,0.0,-3.9727,-4.2032,-4.4148,-4.5675,-4.521,-4.5291,-4.6178,-4.5924,-4.5778,-4.5797,-4.5505,-4.5362,-4.5375,-4.4495,-4.3578,-4.2641,-4.1779,-4.1208,-4.0927,-4.0784,-4.073,-4.0718,-4.0481,-4.0406,-4.0422,-4.0326,-4.0308,-4.0325,-4.0325,-4.0379,-4.0447,0.0,0.0,0.0,0.0,0.0,0.0,0.0,0.0,0.0,0.0,0.0,0.0,0.0,0.0,0.0,0.0,0.0,0.0,0.0,0.0,-0.5173,-0.6584,-0.6591,-0.6696,-0.7042,-0.6978,-0.7495,-0.8455,-0.851,-0.8889,-0.9656,-0.9721,-0.9874,-1.0109,-1.1012,-1.16,-1.2095,-1.3221,-1.4123,-1.493,-1.5627,-1.7011,-1.8619,-1.82,-1.8748,0.0,0.0,0.0,0.0,-1.9383,-2.0559,-2.2051,-2.3305,-2.3569,-2.3523,-2.419,-2.518,-2.6253,-2.7198,-2.9607,-3.219,-3.3575,-3.547,-3.7181,-3.756,-3.8042,-3.8482,-3.8866,-3.8481,-3.8349,-3.9212,-3.8139,-3.8141,-4.1283,-4.0798,-4.1266,-4.4762,-4.4367,-4.4476,-4.6636,-4.3903,-4.2794,0.0,0.0,0.0,-3.8147,-4.0232,-4.2276,-4.3752,-4.3334,-4.4007,-4.6099,-4.6158,-4.6183,-4.6207,-4.6191,-4.6071,-4.5815,-4.3714,-4.2533,-4.2213,-4.1385,-4.0482,-3.966,-4.049,-4.0345,-3.9529,-4.025,-4.0549,-4.0521,-4.0408,-4.0377,-4.0375,-4.0342,-4.0379,-4.0432,0.0,0.0,0.0,0.0,0.0,0.0,0.0,0.0,0.0,0.0,0.0,0.0,0.0,0.0,0.0,0.0,0.0,0.0,0.0,0.0,0.0,-0.3897,-0.3858,-0.4024,-0.4419,-0.4594,-0.4975,-0.573,-0.6032,-0.6546,-0.716,-0.7339,-0.7753,-0.8281,-0.7989,-0.8512,-0.9602,-1.0021,-1.0464,-1.0981,-1.2216,-1.3285,-1.4215,-1.486,0.0,0.0,0.0,0.0,0.0,-1.5216,-1.7329,-1.9647,-1.9159,-2.0189,-2.223,-2.543,-2.553,-2.5535,-2.9774,-3.1721,-3.3159,-3.5687,-3.6934,-3.7522,-3.7394,-3.8002,-3.8706,-3.913,-3.9688,-3.9871,0.0,0.0,-3.9016,-4.0207,-4.1243,-4.2786,-4.5315,-4.6556,-4.6648,0.0,0.0,0.0,0.0,0.0,0.0,-3.9669,0.0,-3.9072,-3.9869,-3.9943,-4.1832,-4.5955,-4.6091,-4.6131,-4.6199,-4.6148,-4.5719,-4.4825,-4.2344,-4.1532,-4.2201,-4.1377,-3.9656,-3.7436,-3.9918,-3.9595,-3.7486,-3.983,-4.0791,-4.078,-4.059,-4.0511,-4.0496,-4.0427,-4.0449,-4.0502,0.0,0.0,0.0,0.0,0.0,0.0,0.0,0.0,0.0,0.0,0.0,0.0,0.0,0.0,0.0,0.0,0.0,0.0,0.0,0.0,0.0,0.0,0.0,0.0,0.0,0.0,0.0,0.0,0.0,-0.3475,-0.3832,-0.3777,-0.3824,0.0,-0.4506,-0.4922,-0.5307,-0.6528,-0.7384,-0.8024,0.0,-1.0241,-1.173,0.0,0.0,0.0,0.0,0.0,0.0,0.0,-1.709,-2.0685,-2.2409,-2.3557,-2.4329,-2.4512,-2.5876,-2.7517,-2.8579,-3.1652,-3.4722,-3.5461,-3.6812,-3.7796,-3.7158,-3.7214,-3.7155,-3.6396,-3.5155,-3.4218,0.0,0.0,0.0,-3.7865,-3.7454,0.0,-4.2256,-4.2197,0.0,-4.3801,0.0,-4.4586,-4.3959,-4.4917,0.0,0.0,-4.1609,-4.34,-4.4314,-4.3781,-4.421,-4.5959,-4.6018,-4.6072,-4.6125,-4.5522,-4.4471,-4.2984,-4.231,-4.1761,-4.133,-4.1091,-4.0643,-4.0032,-4.0711,-4.0614,-4.0057,-4.0577,-4.081,-4.08,-4.0687,-4.0588,-4.0519,-4.0588,-4.0504,-4.036,0.0,0.0,0.0,0.0,0.0,0.0,0.0,0.0,0.0,0.0,0.0,0.0,0.0,0.0,0.0,0.0,0.0,0.0,0.0,0.0,0.0,0.0,0.0,0.0,0.0,0.0,0.0,0.0,0.0,0.0,0.0,-0.1243,-0.1272,-0.1355,-0.1536,-0.2117,-0.2943,0.0,0.0,0.0,0.0,0.0,0.0,0.0,0.0,0.0,0.0,0.0,0.0,0.0,0.0,-2.0552,-2.4009,-2.4984,-2.51,-2.6238,-2.7356,-2.8456,-2.9471,-3.1981,-3.4418,-3.4895,-3.6101,-3.6839,-3.5866,-3.5645,-3.5165,-3.3721,-3.2464,-3.1476,-3.0883,-2.9839,0.0,0.0,0.0,0.0,-4.0779,-4.0697,-4.0901,0.0,-4.3493,0.0,-4.5375,-4.5677,-4.4662,0.0,-4.2056,-4.2686,-4.371,-4.3275,-4.3906,-4.5938,-4.5997,-4.5861,-4.5586,-4.4748,-4.3651,-4.2343,-4.1953,-4.1501,-4.1006,-4.1039,-4.0418,-3.9379,0.0,-4.037,-3.9409,-4.0454,-4.0915,-4.0924,-4.0829,-4.0734,-4.0687,-4.073,-4.0655,-4.0545,0.0,0.0,0.0,0.0,0.0,0.0,0.0,0.0,0.0,0.0,0.0,0.0,0.0,0.0,0.0,0.0,0.0,0.0,0.0,0.0,0.0,0.0,0.0,0.0,0.0,0.0,0.0,0.0,0.0,0.0,0.0,0.0,0.0,0.0,0.0,0.0,0.0,0.0,0.0,0.0,0.0,0.0,0.0,0.0,0.0,0.0,0.0,0.0,0.0,0.0,-1.902,-2.0147,-2.4686,-2.5528,-2.5492,-2.8608,-2.9023,-2.8968,-3.1166,-3.2469,-3.3477,-3.4464,-3.5297,-3.5562,-3.4535,-3.402,-3.3274,-3.1446,-3.0878,-3.026,-2.8775,-2.9491,-3.1389,-3.47,0.0,-3.7751,-3.9602,-4.0466,-4.1061,-4.155,-4.2084,-4.3277,-4.5425,-4.5014,-4.468,-4.4881,-4.1703,-4.026,-4.1412,-4.1446,-4.2837,-4.5899,-4.591,-4.5472,-4.4734,-4.3851,-4.3027,-4.2214,-4.1455,-4.1068,-4.1012,-4.1054,-3.9859,-3.7842,0.0,0.0,-3.7883,-4.009,-4.1033,-4.1091,-4.0964,-4.0921,-4.0896,-4.084,-4.0828,-4.0787,0.0,0.0,0.0,0.0,0.0,0.0,0.0,0.0,0.0,0.0,-0.2252,0.0,0.0,0.0,0.0,0.0,0.0,0.0,0.0,0.0,0.0,0.0,0.0,0.0,0.0,0.0,0.0,0.0,0.0,0.0,0.0,0.0,0.0,0.0,0.0,0.0,0.0,0.0,0.0,0.0,0.0,0.0,0.0,0.0,0.0,0.0,0.0,0.0,0.0,0.0,-1.957,-2.1532,-2.5357,-2.712,-2.7674,-2.7293,-2.8738,-3.05,-3.0883,-3.2767,-3.4672,-3.5155,-3.5685,-3.5974,-3.5447,-3.4295,0.0,0.0,-2.9425,-2.8351,-2.8811,-2.9467,-3.0998,-3.4348,-3.5863,-3.6378,-3.5666,-3.8546,-4.0303,0.0,-4.1475,-4.3265,-4.3642,0.0,0.0,0.0,0.0,-4.3262,-4.4384,-4.4649,-4.515,-4.5977,-4.5337,-4.4627,-4.3825,-4.2965,-4.2117,-4.1309,-4.1168,-4.1081,-4.1085,-4.103,-4.0801,-4.0443,0.0,0.0,-4.0452,-4.084,-4.1046,-4.1089,-4.1075,-4.1006,-4.0906,-4.1003,-4.0906,-4.0726,0.0,0.0,0.0,0.0,0.0,0.0,0.0,0.0,0.0,0.0,-0.285,-0.2309,0.0,0.0,0.0,0.0,0.0,0.0,0.0,0.0,0.0,0.0,0.0,0.0,0.0,0.0,0.0,0.0,0.0,0.0,0.0,0.0,0.0,0.0,0.0,0.0,0.0,0.0,0.0,0.0,0.0,0.0,0.0,0.0,0.0,0.0,0.0,0.0,0.0,0.0,-1.8009,-2.074,-2.5132,-2.7056,-2.7557,-2.6612,-2.795,-2.9824,-3.0168,-3.1577,-3.3323,-3.4698,-3.5114,-3.4704,-3.282,0.0,0.0,-2.7487,-2.6182,-2.5651,-2.5757,-2.6507,0.0,-3.3045,-3.4794,-3.5929,-3.6859,-3.8999,0.0,-3.9474,-4.0881,-4.19,0.0,0.0,0.0,0.0,0.0,-4.2109,-4.5033,-4.4974,-4.5171,-4.5822,-4.4626,-4.3848,-4.3594,-4.2691,-4.186,-4.111,-4.1095,-4.1081,-4.1056,-4.1046,-4.1041,-4.1043,-4.1012,0.0,-3.9116,-4.0449,-4.0231,-3.9192,-4.0525,-4.1022,-4.1013,-4.1084,-4.1025,-4.0915,0.0,0.0,0.0,0.0,0.0,0.0,0.0,-0.537,-0.4735,-0.4098,-0.3278,-0.2513,-0.2045,-0.1707,-0.1248,0.0,0.0,0.0,0.0,0.0,0.0,0.0,0.0,0.0,0.0,0.0,0.0,-0.0474,0.0,0.0,0.0,0.0,0.0,0.0,0.0,0.0,0.0,0.0,0.0,0.0,0.0,0.0,0.0,0.0,0.0,0.0,0.0,0.0,0.0,0.0,-1.6404,-1.9198,-2.3794,-2.564,-2.6007,-2.5968,-2.7088,-2.8543,-2.9566,-3.0559,-3.1756,-3.3681,-3.4056,-3.3193,-3.0349,-2.9615,0.0,-2.4585,-2.3738,-2.3674,-2.3569,-2.4479,-2.6934,0.0,-3.3478,-3.5139,-3.8077,-3.9142,-3.9748,0.0,-4.0467,0.0,0.0,0.0,0.0,0.0,0.0,0.0,-4.4953,-4.4633,-4.4682,-4.5383,-4.3945,-4.3201,-4.3267,-4.2364,-4.1632,-4.1052,-4.1085,-4.1065,-4.1013,-4.1061,-4.1052,-4.1003,-4.1007,0.0,0.0,-3.993,-3.9489,-3.7421,-4.0019,-4.1045,-4.1074,-4.1085,-4.1111,-4.1109,0.0,0.0,0.0,0.0,0.0,0.0,0.0,-0.5198,-0.451,-0.4056,-0.2942,-0.2205,-0.2247,-0.2113,-0.1825,0.0,0.0,0.0,0.0,0.0,0.0,0.0,0.0,0.0,0.0,0.0,0.0,-0.0401,-0.0622,0.0,0.0,0.0,0.0,0.0,0.0,0.0,0.0,0.0,0.0,0.0,0.0,0.0,0.0,0.0,0.0,0.0,0.0,0.0,0.0,0.0,0.0,-1.7618,-2.0858,-2.2225,-2.3024,-2.4862,0.0,0.0,-2.9423,-3.0784,-3.1726,-3.2376,-3.2618,-3.24,-3.107,0.0,-2.8013,-2.5832,-2.4347,-2.3949,-2.5569,-2.6761,-2.8611,-3.1923,0.0,-3.2778,-3.5553,-3.6739,-3.7935,-3.9656,0.0,0.0,0.0,0.0,0.0,0.0,0.0,0.0,-4.49,-4.4867,-4.4723,-4.4441,-4.3524,-4.2728,-4.2141,-4.1403,-4.0991,-4.0921,-4.1045,-4.111,-4.1085,-4.102,-4.1,-4.0994,0.0,0.0,0.0,-3.9945,-3.9457,-3.7376,-4.0056,-4.1055,-4.1011,-4.1074,-4.1104,-4.1101,0.0,0.0,0.0,0.0,0.0,0.0,0.0,-0.5558,-0.5014,-0.422,-0.3634,-0.3118,-0.2859,-0.274,-0.2327,0.0,0.0,0.0,0.0,0.0,0.0,0.0,0.0,0.0,0.0,0.0,0.0,0.0,0.0,0.0,0.0,0.0,0.0,0.0,0.0,0.0036,0.0,0.0,0.0,0.0,0.0,0.0,0.0,0.0,0.0,0.0,0.0,0.0,-1.1602,0.0,0.0,0.0,-1.7085,-1.8194,0.0,0.0,-2.4164,-2.6138,-2.7022,-2.8774,-3.0644,-3.1978,-3.2379,-3.1824,-2.9297,0.0,-2.6921,-2.3671,-2.2637,-2.2643,-2.3716,-2.4569,-2.6221,-2.9512,0.0,0.0,-3.6284,-3.765,-3.9009,-4.1162,-4.1886,0.0,0.0,0.0,0.0,0.0,0.0,0.0,-4.4497,-4.4241,-4.398,-4.3943,-4.2736,-4.2047,-4.1951,-4.1125,-4.0746,-4.077,-4.0296,-4.0364,-4.0904,-4.039,-4.0482,-4.1006,0.0,0.0,0.0,-3.9229,-3.852,-3.5232,-3.9418,-4.1055,-4.1054,-4.1034,-4.1072,-4.1091,0.0,0.0,0.0,0.0,0.0,0.0,-0.648,-0.6164,-0.5712,-0.4568,-0.4244,-0.3904,-0.3424,-0.3177,-0.2783,-0.2052,0.0,0.0,0.0,0.0,0.0,0.0,0.0,0.0,0.0,0.0,0.0,0.0,0.0,0.0,0.0,0.0,-0.0479,-0.039,0.0,0.0,0.0,0.0,0.0,0.0,0.0,0.0,0.0,0.0,0.0,0.0,0.0,0.0,0.0,0.0,0.0,0.0,-1.5642,0.0,0.0,0.0,-2.2105,-2.4305,-2.4957,-2.689,-2.9184,-3.0865,-3.1124,-3.0196,0.0,0.0,-2.5406,-2.2005,-2.1448,-2.1672,-2.2192,-2.2632,-2.4015,0.0,0.0,-3.1307,-3.5913,-3.7567,-3.9111,0.0,0.0,0.0,0.0,0.0,0.0,0.0,0.0,0.0,0.0,-4.3221,-4.3014,-4.3323,-4.2305,-4.1628,-4.1362,-4.0815,-4.0549,-4.0597,-4.0055,-3.9735,-3.9615,-3.9557,-3.9481,-3.9413,0.0,0.0,0.0,-3.8966,-3.8341,-3.4865,-3.9286,-4.1022,-4.1055,-4.1026,-4.1027,-4.1054,0.0,0.0,0.0,0.0,0.0,0.0,0.0,-0.7106,-0.6338,-0.504,-0.4564,-0.4154,-0.3758,-0.3378,-0.3249,-0.3385,0.0,0.0,0.0,0.0,0.0,0.0,0.0,0.0,0.0,0.0,0.0,0.0,0.0,0.0,0.0,0.0,0.0,0.0,0.0,0.0,0.0,0.0,0.0,0.0,0.0,0.0,0.0,0.0,0.0,0.0,0.0,0.0,0.0,0.0,0.0,0.0,0.0,0.0,0.0,0.0,-2.0359,-2.1877,-2.3946,-2.5799,-2.7394,-2.855,-2.8162,-2.7133,0.0,-2.4574,-2.3412,-2.1666,-2.1355,-2.154,-2.194,-2.1866,-2.2784,-2.6,-2.7857,0.0,-3.3463,-3.5538,0.0,0.0,0.0,0.0,0.0,0.0,0.0,0.0,0.0,0.0,0.0,-4.1834,-4.1855,-4.2385,-4.2408,-4.1665,-4.012,-4.0315,-4.0396,-4.0406,-4.0596,-3.934,-3.6895,-3.8617,-3.8005,0.0,0.0,0.0,0.0,-3.9432,-3.9383,-3.7325,-3.9972,-4.1006,-4.1,-4.1003,-4.0998,-4.1003,0.0,0.0,0.0,0.0,0.0,0.0,0.0,-0.8449,-0.801,-0.7297,-0.7108,-0.6932,-0.6753,-0.6526,-0.6313,-0.6101,0.0,0.0,0.0,0.0,0.0,0.0,0.0,0.0,0.0,0.0,0.0,0.0,0.0,0.0,0.0,0.0,0.0,0.0,0.0,0.0,0.0,0.0,0.0,0.0,0.0,0.0,0.0,0.0,0.0,0.0,0.0,0.0,0.0,0.0,0.0,0.0,0.0,0.0,0.0,0.0,0.0,-2.0795,-2.149,-2.2942,-2.444,-2.5183,-2.5575,-2.5437,-2.4147,-2.3723,-2.312,-2.1321,-2.0925,-2.1055,-2.1462,-2.1886,-2.2982,-2.5497,-2.6882,0.0,0.0,0.0,0.0,0.0,0.0,0.0,0.0,0.0,0.0,0.0,0.0,0.0,0.0,-4.1152,-4.0535,-4.1557,-4.155,-4.0927,-3.9687,-3.9982,-4.012,-4.012,-3.964,-3.8386,-3.6603,-3.8426,0.0,0.0,0.0,0.0,0.0,-3.78,-3.7846,-3.6328,-3.8957,-4.039,-4.0986,-4.0945,-4.0961,-4.0994,0.0,0.0,0.0,0.0,0.0,0.0,0.0,-0.9688,-0.9334,-0.9003,-0.8803,-0.8639,-0.8639,-0.8595,-0.8393,-0.7921,0.0,0.0,0.0,0.0,0.0,0.0,0.0,0.0,0.0,0.0,0.0,0.0,0.0,0.0,0.0,0.0,0.0,0.0,0.0,0.0,0.0,0.0,0.0,0.0,0.0,0.0,-1.1797,0.0,0.0,0.0,0.0,0.0,0.0,0.0,0.0,0.0,0.0,0.0,0.0,0.0,-1.7961,-1.9306,-1.9683,-2.0978,-2.245,-2.3068,-2.323,0.0,-2.2292,-2.1973,-2.1598,-2.0659,-2.1066,-2.1483,-2.1183,-2.2047,-2.3055,-2.3677,-2.5956,-2.8559,0.0,0.0,0.0,0.0,0.0,0.0,0.0,0.0,0.0,0.0,0.0,0.0,0.0,-3.9865,-3.8984,-3.9918,-3.9898,-3.9395,-3.8428,-3.8644,-3.8946,-3.9312,-3.8442,-3.739,-3.6329,-3.7791,0.0,0.0,0.0,0.0,0.0,-3.7276,-3.7481,-3.6737,-3.8717,-3.9878,-4.0479,-4.0781,-4.0904,-4.0921,0.0,0.0,0.0,0.0,0.0,0.0,0.0,0.0,0.0,0.0,-0.9787,-0.956,-0.9794,-0.9845,-0.9645,0.0,0.0,0.0,0.0,0.0,0.0,0.0,0.0,0.0,0.0,0.0,0.0,0.0,-0.5233,-0.5588,-0.5671,0.0,0.0,0.0,0.0,0.0,0.0,0.0,0.0,0.0,0.0,0.0,0.0,0.0,0.0,0.0,0.0,0.0,0.0,0.0,0.0,0.0,0.0,0.0,0.0,0.0,0.0,0.0,0.0,-1.9741,-2.1156,-2.1695,-2.0997,-2.0133,-2.0119,-1.9638,0.0,-1.9939,-2.1614,-2.257,-2.1192,-2.2498,-2.3179,-2.1295,-2.5208,-2.8104,0.0,-3.0162,0.0,0.0,0.0,0.0,0.0,0.0,0.0,0.0,0.0,0.0,0.0,-3.8052,-3.721,-3.7684,-3.7539,-3.7155,-3.6589,-3.6645,-3.7088,-3.7903,-3.7075,-3.6335,-3.5715,-3.6772,0.0,0.0,0.0,0.0,0.0,-3.7654,-3.8022,-3.817,-3.903,-3.9383,-3.9475,-4.0369,-4.0662,-4.0602,0.0,0.0,0.0,0.0,0.0,0.0,0.0,0.0,0.0,0.0,-1.1999,-1.1895,-1.1749,-1.1668,-1.1411,0.0,0.0,0.0,0.0,0.0,0.0,0.0,0.0,0.0,0.0,0.0,0.0,-0.5914,-0.6125,-0.6197,-0.6243,-0.721,0.0,0.0,0.0,0.0,0.0,0.0,0.0,0.0,0.0,0.0,0.0,0.0,0.0,0.0,-1.6602,-1.6981,0.0,0.0,0.0,0.0,0.0,0.0,0.0,0.0,-1.7099,-1.6996,-1.7183,0.0,-1.8209,-1.8341,-1.8405,-1.844,0.0,-1.8708,-1.9296,-2.1079,-2.2166,-2.2702,-2.2194,-2.4184,-2.5201,-2.3118,-2.5581,-2.7872,-2.8273,0.0,0.0,0.0,0.0,0.0,0.0,0.0,0.0,0.0,0.0,0.0,0.0,-3.6693,-3.5791,-3.5775,-3.4595,-3.4697,-3.6203,-3.6444,-3.6014,-3.502,-3.6055,-3.481,-3.1741,-3.6021,0.0,0.0,0.0,0.0,-3.7354,-3.7018,-3.7287,-3.7886,-3.8108,-3.8229,-3.8304,-3.8524,-3.8601,-3.8678,0.0,0.0,0.0,0.0,0.0,0.0,0.0,0.0,0.0,0.0,0.0,0.0,0.0,0.0,0.0,0.0,0.0,0.0,0.0,0.0,0.0,0.0,0.0,0.0,0.0,0.0,0.0,0.0,0.0,-0.8256,0.0,0.0,0.0,0.0,0.0,0.0,0.0,0.0,0.0,0.0,-1.4808,0.0,0.0,0.0,0.0,0.0,-1.7557,-1.776,0.0,-1.7988,-1.7895,-1.7842,0.0,0.0,0.0,0.0,-1.7112,-1.6835,-1.7023,-1.7154,-1.7371,-1.7995,-1.7845,-1.7757,-1.8674,-1.8601,-1.9003,-2.117,-2.2183,-2.2627,-2.2513,-2.4,-2.4762,-2.3351,-2.4671,0.0,0.0,0.0,0.0,0.0,0.0,0.0,0.0,0.0,0.0,0.0,0.0,0.0,0.0,-3.5705,-3.4696,-3.427,-3.319,-3.3301,-3.4852,-3.5015,-3.4486,-3.3316,-3.4468,-3.3944,-3.2047,-3.5249,-3.5715,0.0,0.0,0.0,-3.612,-3.4926,-3.5281,-3.6599,-3.7048,-3.7214,-3.7318,-3.7743,-3.7877,-3.7935,0.0,0.0,0.0,0.0,0.0,0.0,0.0,0.0,0.0,0.0,0.0,0.0,0.0,0.0,0.0,0.0,0.0,0.0,0.0,0.0,0.0,0.0,0.0,0.0,0.0,0.0,0.0,0.0,0.0,0.0,0.0,0.0,0.0,0.0,0.0,0.0,0.0,0.0,0.0,0.0,-1.6032,0.0,0.0,0.0,0.0,0.0,0.0,0.0,0.0,-1.7988,-1.7975,-1.7949,-1.8002,0.0,0.0,0.0,0.0,0.0,-1.7341,-1.7402,-1.7689,-1.9083,-1.8345,-1.7725,-1.9533,-1.8937,-1.8642,-2.1086,-2.2206,-2.276,-2.2762,-2.3774,0.0,0.0,0.0,0.0,0.0,0.0,0.0,0.0,0.0,0.0,0.0,0.0,0.0,0.0,0.0,0.0,0.0,-3.4622,-3.3636,-3.3032,-3.2476,-3.2519,-3.3178,-3.3226,-3.2886,-3.2192,-3.2864,-3.3306,-3.3537,-3.4587,-3.5092,0.0,0.0,0.0,-3.4961,-3.3254,-3.3582,-3.5267,-3.6112,-3.6339,-3.6322,-3.7143,-3.7405,-3.7354,0.0,0.0,0.0,0.0,0.0,0.0,0.0,0.0,0.0,0.0,0.0,0.0,0.0,0.0,0.0,0.0,0.0,0.0,0.0,0.0,0.0,0.0,0.0,0.0,0.0,0.0,0.0,0.0,0.0,0.0,-1.2896,-1.3053,-1.3119,0.0,0.0,0.0,0.0,0.0,0.0,0.0,0.0,0.0,0.0,0.0,0.0,0.0,0.0,0.0,0.0,-1.7988,-1.7988,-1.8002,-1.8201,0.0,0.0,0.0,0.0,0.0,-1.7571,-1.7834,-1.8498,-1.9741,-1.8707,-1.7942,-2.007,-1.9191,-1.8871,-2.2299,-2.3568,-2.4024,0.0,-2.675,-2.7569,0.0,0.0,0.0,0.0,0.0,0.0,0.0,0.0,0.0,0.0,0.0,0.0,0.0,0.0,0.0,0.0,0.0,-3.2038,-3.1679,-3.1691,-3.1878,-3.2316,-3.2401,-3.1877,-3.0737,-3.2121,-3.2245,-3.1315,-3.437,-3.5715,0.0,0.0,-3.634,-3.7199,-3.5656,-3.5267,-3.5641,-3.5962,-3.5623,-3.5018,-3.5268,-3.5362,-3.538,0.0,0.0,0.0,0.0,0.0,0.0,0.0,0.0,0.0,0.0,0.0,0.0,0.0,0.0,0.0,0.0,0.0,0.0,0.0,0.0,0.0,0.0,0.0,0.0,0.0,0.0,0.0,0.0,0.0,-1.3926,-1.4098,-1.4274,-1.4227,-1.3968,0.0,0.0,0.0,0.0,0.0,0.0,0.0,0.0,0.0,0.0,0.0,0.0,0.0,0.0,0.0,0.0,-1.7988,-1.8042,-1.8333,0.0,0.0,0.0,0.0,0.0,-1.8083,-1.8607,-1.9539,-2.1385,-1.9794,-1.8777,-2.2312,-2.091,-1.9928,0.0,0.0,0.0,0.0,0.0,-2.5449,-2.4203,0.0,0.0,0.0,0.0,0.0,0.0,0.0,0.0,0.0,0.0,0.0,0.0,0.0,0.0,0.0,0.0,-3.1202,-3.0723,-3.0493,-3.0737,-3.1452,-3.1325,-3.0903,-3.0145,-3.1729,-3.1691,-3.0296,-3.2916,-3.4049,-3.3931,0.0,-3.3978,-3.5312,-3.3703,-3.3778,-3.4881,-3.4992,-3.4813,-3.4561,-3.4732,-3.4793,-3.4832,0.0,0.0,0.0,0.0,0.0,0.0,0.0,0.0,0.0,0.0,0.0,0.0,0.0,0.0,0.0,0.0,0.0,0.0,0.0,0.0,0.0,0.0,0.0,0.0,0.0,0.0,-1.5764,-1.5452,-1.5282,-1.5271,-1.5325,-1.5586,-1.5372,0.0,0.0,0.0,0.0,0.0,0.0,0.0,0.0,0.0,0.0,0.0,0.0,0.0,0.0,0.0,0.0,0.0,0.0,0.0,0.0,0.0,0.0,-1.8837,-1.8852,-1.8604,-1.8717,-1.9283,-2.0292,-2.2116,-2.0534,-1.9741,-2.4363,-2.2415,0.0,0.0,0.0,0.0,0.0,-2.3251,0.0,-2.5428,0.0,0.0,0.0,0.0,0.0,0.0,0.0,0.0,0.0,0.0,0.0,0.0,0.0,0.0,0.0,0.0,-3.0513,-2.987,-2.954,-2.9717,-3.0452,-3.036,-3.0325,-3.0296,-3.1585,-3.155,-3.0417,-3.2035,-3.2736,-3.2598,-3.152,-3.1947,-3.3358,-3.1892,-3.2347,-3.4023,-3.4055,-3.4179,-3.4344,-3.4301,-3.4331,-3.4393,0.0,0.0,0.0,0.0,0.0,0.0,0.0,0.0,0.0,0.0,0.0,0.0,0.0,0.0,0.0,0.0,0.0,0.0,0.0,0.0,0.0,0.0,0.0,0.0,0.0,-1.8064,-1.8387,-1.8204,-1.8204,-1.7835,-1.7218,-1.7407,-1.6832,-1.5646,0.0,0.0,0.0,0.0,0.0,-1.8654,0.0,0.0,0.0,0.0,0.0,0.0,0.0,0.0,0.0,0.0,0.0,0.0,0.0,0.0,-1.8534,-1.8948,-1.9502,-1.983,-1.9356,-1.9779,-2.0408,-2.0584,-1.9991,-2.0555,-2.5044,-2.2771,0.0,-2.478,0.0,0.0,0.0,-2.3293,-2.3195,-2.6546,0.0,0.0,0.0,0.0,0.0,0.0,0.0,0.0,0.0,0.0,0.0,0.0,0.0,0.0,0.0,0.0,0.0,-2.9213,-2.921,-2.9194,-2.9148,-2.9717,-3.0517,-3.1485,-3.1789,-3.1968,-3.2039,-3.2896,-3.3155,-3.3026,-3.2958,-3.3195,-3.3612,-3.2727,-3.28,-3.3462,-3.3588,-3.3884,-3.4128,-3.338,-3.3234,-3.331,0.0,0.0,0.0,0.0,0.0,0.0,0.0,0.0,0.0,0.0,0.0,0.0,0.0,0.0,0.0,0.0,0.0,0.0,0.0,0.0,0.0,0.0,0.0,-1.7413,-1.7416,-1.81,-1.8408,-1.8238,-1.7991,-1.7502,-1.6728,-1.6813,0.0,0.0,0.0,0.0,0.0,0.0,-1.8799,-1.8671,-1.9135,0.0,0.0,0.0,0.0,0.0,0.0,0.0,0.0,0.0,-1.8187,-1.8042,-1.8268,-1.8321,-1.8476,-1.9292,-1.9442,-1.9279,-1.893,-1.9269,-1.9788,-2.0334,-1.9874,-2.0204,-2.3619,-2.2251,-2.1181,-2.4666,-2.343,0.0,0.0,0.0,-2.3758,0.0,0.0,0.0,0.0,0.0,0.0,0.0,0.0,0.0,0.0,0.0,0.0,0.0,0.0,0.0,0.0,0.0,0.0,-2.8637,-2.8255,-2.84,-2.9058,-2.9118,-2.9448,-3.0126,-3.0608,-3.0965,-3.1145,-3.1594,-3.1939,-3.2196,-3.2291,-3.2437,-3.2564,-3.2143,-3.2196,-3.2553,-3.2934,-3.3361,-3.3689,-3.3541,-3.3276,-3.2974,0.0,0.0,0.0,0.0,0.0,0.0,0.0,0.0,0.0,0.0,0.0,0.0,0.0,0.0,0.0,0.0,0.0,0.0,0.0,0.0,0.0,0.0,0.0,-1.7329,-1.7425,-1.7988,-1.8329,-1.8389,-1.8241,-1.7839,-1.7205,0.0,0.0,0.0,0.0,0.0,0.0,0.0,-1.9017,-1.8876,-1.9358,-1.9276,0.0,0.0,0.0,0.0,0.0,0.0,0.0,0.0,-1.8383,-1.8121,-1.8333,-1.8307,-1.8464,-1.9553,-1.9306,-1.863,-1.8776,-1.8783,-1.8846,-1.947,-1.9211,-1.9408,-2.1925,-2.1486,-2.1356,-2.4285,-2.3054,-2.1478,-2.1524,0.0,0.0,0.0,0.0,0.0,0.0,0.0,0.0,0.0,0.0,0.0,0.0,0.0,0.0,0.0,0.0,0.0,0.0,0.0,0.0,0.0,-2.7455,-2.7825,-2.8574,-2.848,-2.856,-2.8701,-2.9348,-2.9853,-3.0208,-3.0427,-3.0673,-3.0988,-3.1261,-3.1414,-3.149,-3.1528,-3.1714,-3.1932,-3.2299,-3.2651,-3.2934,-3.2669,-3.2302,-3.1939,0.0,0.0,0.0,0.0,0.0,0.0,0.0,0.0,0.0,0.0,0.0,0.0,0.0,0.0,0.0,0.0,0.0,0.0,0.0,0.0,0.0,0.0,0.0,-1.7692,-1.77,-1.8128,-1.8545,-1.8992,-1.9411,-1.9398,-1.9072,-1.9435,0.0,0.0,0.0,0.0,0.0,0.0,-1.9061,-1.9657,-2.0267,-2.0523,-2.0512,0.0,0.0,0.0,0.0,0.0,0.0,0.0,-1.864,-1.8344,-1.8707,0.0,0.0,-1.9738,-1.9111,-1.8182,-1.9044,-1.852,-1.769,-1.7775,-1.782,-1.8302,-2.0161,-2.0699,-2.1399,-2.3628,-2.4048,-2.4001,-2.379,0.0,0.0,0.0,0.0,0.0,0.0,0.0,0.0,0.0,0.0,0.0,0.0,0.0,0.0,0.0,0.0,0.0,0.0,0.0,0.0,0.0,-2.6899,-2.7524,-2.7386,-2.794,-2.7989,-2.7625,-2.8152,-2.8826,-2.9585,-2.9585,-2.9601,-2.9617,-3.0081,-3.0402,-3.0633,-3.1067,-3.1432,-3.1677,-3.1677,-3.1823,-3.1794,-3.0429,-2.9976,-2.9958,0.0,0.0,0.0,0.0,0.0,0.0,0.0,0.0,0.0,0.0,0.0,0.0,0.0,0.0,0.0,0.0,0.0,0.0,0.0,0.0,0.0,0.0,0.0,0.0,0.0,0.0,-1.9014,-1.8145,-1.8275,-1.8044,0.0,0.0,0.0,-1.6679,0.0,0.0,0.0,0.0,-2.1418,-2.0459,-2.1247,-2.1134,-2.0519,0.0,0.0,0.0,0.0,0.0,0.0,0.0,0.0,0.0,-1.8279,0.0,-1.8413,-1.9452,-1.8798,-1.7858,-1.8561,-1.8037,-1.7329,-1.763,-1.8123,-1.8622,0.0,-1.9907,0.0,0.0,-2.2396,-2.2226,-2.1438,0.0,0.0,0.0,0.0,0.0,0.0,0.0,0.0,0.0,0.0,0.0,0.0,0.0,0.0,0.0,0.0,0.0,0.0,0.0,0.0,0.0,-2.5076,-2.5521,-2.5574,-2.6607,-2.71,-2.6997,-2.756,-2.8189,-2.8826,-2.8826,-2.9058,-2.9451,-2.9524,-2.9657,-2.9908,-2.9881,-3.0048,-3.0319,-3.064,-3.0717,-3.0585,-3.0595,-3.0039,-2.9236,0.0,0.0,0.0,0.0,0.0,0.0,0.0,0.0,0.0,0.0,0.0,0.0,0.0,0.0,0.0,0.0,0.0,0.0,0.0,0.0,0.0,0.0,0.0,0.0,0.0,-1.8562,-1.8545,0.0,0.0,0.0,0.0,0.0,0.0,-1.6891,0.0,-1.9275,0.0,0.0,-2.1661,-2.0782,-2.1582,-2.1322,-2.0478,0.0,0.0,0.0,0.0,0.0,0.0,0.0,0.0,0.0,-1.8514,-1.8653,-1.9001,-1.9357,-1.8794,-1.8115,-1.8594,-1.799,-1.75,-1.8618,-1.8739,-1.8758,-1.925,0.0,0.0,0.0,-2.2342,-2.2181,-2.1474,0.0,0.0,0.0,0.0,0.0,0.0,0.0,0.0,0.0,0.0,0.0,0.0,0.0,0.0,0.0,0.0,0.0,0.0,0.0,0.0,0.0,-2.4293,-2.4824,-2.5182,-2.5937,-2.6336,-2.6336,-2.6707,-2.7056,-2.7384,-2.7913,-2.8367,-2.8779,-2.8904,-2.918,-2.9589,-2.938,-2.9409,-2.9569,-2.9772,-2.9657,-2.9409,-2.9617,-2.9075,-2.8228,0.0,0.0,0.0,0.0,0.0,0.0,0.0,0.0,0.0,0.0,0.0,0.0,0.0,0.0,0.0,0.0,0.0,0.0,0.0,0.0,0.0,0.0,0.0,0.0,0.0,0.0,0.0,0.0,0.0,0.0,0.0,0.0,-1.7673,-1.7665,0.0,-1.8779,-1.9466,-2.0277,-2.0681,-2.0843,-2.154,-2.1276,-2.046,-2.0958,0.0,0.0,0.0,0.0,0.0,0.0,0.0,0.0,-1.9139,-1.9395,-1.9732,-1.9373,-1.8968,-1.8636,-1.9027,-1.8385,-1.8074,-1.9857,-1.9255,-1.8526,-1.9878,-2.0347,-2.1052,-2.2838,0.0,-2.3139,-2.3071,0.0,0.0,0.0,0.0,0.0,0.0,0.0,0.0,0.0,0.0,0.0,0.0,0.0,0.0,0.0,0.0,0.0,0.0,0.0,0.0,0.0,-2.4055,-2.487,-2.548,-2.5645,-2.5742,0.0,-2.5797,-2.5728,-2.5673,-2.6916,-2.7575,-2.779,-2.8189,-2.8732,-2.9393,-2.9182,-2.9106,-2.9106,-2.909,-2.8706,-2.8222,-2.7956,-2.7525,-2.7072,0.0,0.0,0.0,0.0,0.0,0.0,0.0,0.0,0.0,0.0,0.0,0.0,0.0,0.0,0.0,0.0,0.0,0.0,0.0,0.0,0.0,0.0,0.0,0.0,0.0,0.0,0.0,0.0,0.0,0.0,0.0,0.0,0.0,-1.7983,0.0,-1.9858,-1.9528,-2.1515,-2.1946,-2.137,-2.2003,-2.1869,-2.1245,-2.1323,-2.0991,0.0,0.0,0.0,0.0,0.0,0.0,0.0,-1.8936,-1.859,-1.8407,-1.9039,-1.8818,-1.8565,-1.956,-1.9343,-1.87,-1.8343,-1.7395,-1.7121,-1.9059,-1.9315,-1.9807,-2.2296,-2.2172,-2.193,0.0,0.0,0.0,0.0,0.0,0.0,0.0,0.0,0.0,0.0,0.0,0.0,0.0,0.0,0.0,0.0,0.0,0.0,0.0,0.0,0.0,-2.1876,-2.2643,-2.3163,-2.3293,-2.4536,-2.516,0.0,-2.5577,-2.5783,-2.5783,-2.6443,-2.6997,-2.7503,-2.7327,-2.7479,-2.786,-2.7515,-2.758,-2.7875,-2.8415,-2.7998,-2.7123,-2.7448,-2.6974,-2.6188,0.0,0.0,0.0,0.0,0.0,0.0,0.0,0.0,0.0,0.0,0.0,0.0,0.0,0.0,0.0,0.0,0.0,0.0,0.0,0.0,0.0,0.0,0.0,0.0,0.0,0.0,0.0,0.0,0.0,0.0,0.0,0.0,0.0,-1.8371,0.0,-1.9697,-1.9829,-2.1034,-2.1277,-2.0878,-2.157,-2.1339,-2.0648,-2.1119,-2.0828,-2.0204,-2.0357,0.0,0.0,0.0,0.0,0.0,0.0,0.0,-1.8398,-1.8606,-1.8582,-1.8568,-1.8802,-1.8862,-1.8706,-1.8041,-1.773,-1.7821,-1.8537,-1.8873,-1.9421,-2.0804,-2.0815,0.0,0.0,0.0,0.0,0.0,0.0,0.0,0.0,0.0,0.0,0.0,0.0,0.0,0.0,0.0,0.0,0.0,0.0,0.0,0.0,-2.1428,-2.1582,-2.1789,-2.2167,-2.2506,-2.2841,-2.3813,-2.4319,-2.4319,-2.4765,-2.5147,-2.5425,-2.5851,-2.6283,-2.6602,-2.6467,-2.652,-2.6811,-2.652,-2.6414,-2.6491,-2.6621,-2.6102,-2.5319,-2.5793,-2.5591,-2.5144,0.0,0.0,0.0,0.0,0.0,0.0,0.0,0.0,0.0,0.0,0.0,0.0,0.0,0.0,0.0,0.0,0.0,0.0,0.0,0.0,0.0,0.0,0.0,0.0,0.0,0.0,0.0,0.0,0.0,0.0,0.0,0.0,0.0,-1.9211,0.0,-1.9406,-2.012,-1.9978,-2.0028,-2.0239,-2.0861,-2.0563,-1.9812,-2.0662,-2.0512,-1.9859,-2.0204,-1.998,-1.9485,-1.9229,0.0,0.0,0.0,0.0,-1.8539,-1.8194,-1.8311,-1.8394,-1.7969,-1.8047,-1.8243,-1.7955,-1.8113,0.0,-1.7859,-1.8209,-1.8704,-1.8824,-1.9303,0.0,0.0,0.0,0.0,0.0,0.0,0.0,0.0,0.0,0.0,0.0,0.0,0.0,0.0,0.0,0.0,0.0,0.0,0.0,-2.0952,-2.0945,-2.1222,-2.1757,-2.1825,-2.2186,-2.2811,-2.3185,-2.3437,-2.3628,-2.3936,-2.4279,-2.456,-2.4913,-2.5329,-2.5741,-2.5631,-2.5809,-2.6026,-2.5741,-2.5568,-2.5408,-2.505,-2.4445,-2.3884,-2.42,-2.4236,-2.4138,0.0,0.0,0.0,0.0,0.0,0.0,0.0,0.0,0.0,0.0,0.0,0.0,0.0,0.0,0.0,0.0,0.0,0.0,0.0,0.0,0.0,0.0,0.0,0.0,0.0,0.0,0.0,0.0,0.0,0.0,0.0,0.0,0.0,-2.1276,0.0,0.0,-2.0143,-1.9559,-1.9785,-2.0563,-2.0698,-2.0514,-2.012,-2.0204,-2.005,-1.9788,-1.9741,-1.9472,-1.9161,-1.8983,-1.8755,0.0,0.0,0.0,-1.7209,-1.792,-1.7957,-1.7879,-1.8526,-1.7996,-1.7119,-1.6769,-1.5674,-1.5057,0.0,0.0,-1.6168,0.0,0.0,0.0,0.0,0.0,0.0,0.0,0.0,0.0,0.0,0.0,0.0,0.0,0.0,0.0,0.0,0.0,0.0,0.0,0.0,0.0,-1.9965,-2.025,-2.0452,-2.0506,-2.0694,-2.1095,-2.1803,-2.2113,-2.2738,-2.3628,-2.3936,-2.3606,-2.2757,-2.2802,-2.3847,-2.5618,-2.5063,-2.5119,-2.5494,-2.5134,-2.5218,-2.5602,-2.5628,-2.5133,-2.4402,-2.4339,-2.3909,-2.3376,0.0,0.0,0.0,0.0,0.0,0.0,0.0,0.0,0.0,0.0,0.0,0.0,0.0,0.0,0.0,0.0,0.0,0.0,0.0,0.0,0.0,0.0,-2.1797,0.0,0.0,0.0,0.0,0.0,0.0,0.0,-2.2757,-2.2757,-2.2383,0.0,0.0,0.0,0.0,-2.0337,-2.0313,-2.008,-2.0239,-2.01,-1.9782,-2.005,-1.996,-1.969,-1.9777,-1.9362,-1.8745,-1.8693,-1.8344,-1.7908,-1.7868,0.0,0.0,0.0,-1.7178,-1.6927,-1.7415,-1.6517,-1.5565,-1.5815,-1.4853,-1.4261,-1.5552,-1.5348,-1.5192,0.0,0.0,0.0,0.0,0.0,0.0,0.0,0.0,0.0,0.0,0.0,0.0,0.0,0.0,0.0,0.0,0.0,0.0,0.0,0.0,-1.9223,-1.9489,-1.975,-1.9937,-1.9937,-2.0194,-2.0473,-2.073,-2.1101,-2.1513,-2.2102,-2.2137,-2.1854,-2.135,-2.1235,-2.2268,-2.4115,-2.3223,-2.308,-2.3482,-2.3178,-2.316,-2.3152,-2.3085,-2.2708,-2.2192,-2.2305,-2.2276,-2.2317,0.0,0.0,0.0,0.0,0.0,0.0,0.0,0.0,0.0,0.0,0.0,0.0,0.0,0.0,0.0,0.0,0.0,0.0,0.0,0.0,0.0,-2.2032,-2.2049,-2.2132,-2.2283,0.0,0.0,0.0,0.0,-2.1203,-2.3116,-2.3445,-2.3086,0.0,-2.3106,-2.245,0.0,0.0,0.0,-2.0042,-2.0213,0.0,0.0,0.0,-1.9833,-1.9626,-1.9827,-1.931,-1.85,-1.85,-1.8042,-1.7488,-1.7475,-1.7018,0.0,0.0,0.0,-1.6306,-1.6128,-1.5321,-1.4604,-1.4846,-1.4095,-1.3647,0.0,0.0,-1.4466,0.0,0.0,0.0,0.0,0.0,0.0,0.0,0.0,0.0,0.0,0.0,0.0,0.0,0.0,0.0,0.0,0.0,0.0,0.0,0.0,-1.8193,-1.8497,-1.8849,-1.9081,-1.9044,-1.9375,-1.9573,-1.9835,-2.0211,-2.0279,-2.0148,-2.0234,-2.0075,-1.9738,-1.9611,-2.0399,-2.1901,-2.1274,-2.1232,-2.1524,-2.14,-2.1272,-2.1189,-2.0824,-2.0567,-2.0425,-2.0616,-2.0851,-2.1135,0.0,0.0,0.0,0.0,0.0,0.0,0.0,0.0,0.0,0.0,0.0,0.0,0.0,0.0,0.0,-2.3604,0.0,0.0,0.0,0.0,0.0,-2.2731,-2.2764,0.0,-2.3571,0.0,0.0,0.0,0.0,0.0,-2.1829,-2.3026,-2.3565,-2.3505,-2.3565,-2.3448,-2.314,0.0,0.0,0.0,0.0,0.0,0.0,0.0,0.0,0.0,0.0,0.0,-1.85,-1.85,-1.8016,-1.7404,-1.7488,-1.6964,-1.638,0.0,0.0,0.0,-1.523,-1.5021,-1.4864,-1.3535,-1.2638,-1.2324,0.0,0.0,0.0,0.0,0.0,0.0,0.0,0.0,0.0,0.0,0.0,0.0,0.0,0.0,0.0,0.0,0.0,0.0,0.0,0.0,0.0,0.0,0.0,-1.6597,-1.6456,-1.7195,-1.7577,-1.7617,-1.7784,-1.824,-1.9044,-1.9541,-1.9197,-1.815,-1.8981,-1.8832,-1.7748,-1.7748,-1.8176,-1.8988,-1.9841,-2.0284,-2.0284,-2.0284,-2.0616,-2.1045,-2.0318,-2.0222,-2.0391,-2.0296,-2.0079,-2.0003,0.0,0.0,0.0,0.0,0.0,0.0,0.0,0.0,0.0,0.0,0.0,0.0,0.0,-2.3929,-2.3651,-2.3651,-2.3456,0.0,0.0,0.0,0.0,-2.3358,-2.3358,-2.349,-2.3702,0.0,0.0,0.0,0.0,-2.1355,-2.2323,-2.2353,-2.2817,-2.367,-2.5312,-2.4671,-2.239,-2.3437,0.0,0.0,0.0,0.0,0.0,0.0,0.0,0.0,0.0,0.0,0.0,-1.9684,-1.8728,-1.7909,-1.7927,-1.726,-1.6393,-1.6265,-1.6166,-1.6042,-1.556,-1.4932,-1.4227,-1.3661,-1.2408,-1.1551,-1.2631,-1.2875,0.0,0.0,0.0,0.0,0.0,0.0,0.0,0.0,0.0,0.0,0.0,0.0,0.0,0.0,0.0,0.0,0.0,0.0,0.0,0.0,0.0,0.0,-1.6612,-1.6419,-1.6701,-1.7619,-1.7643,-1.7716,-1.7767,-1.756,-1.7244,-1.6769,-1.6991,-1.6806,-1.6318,-1.626,-1.6318,-1.6607,-1.7179,-1.7989,-1.8844,-1.8844,-1.8955,-1.9175,-1.8855,-1.885,-1.8946,-1.8946,-1.8935,-1.8939,0.0,0.0,0.0,0.0,0.0,0.0,0.0,0.0,0.0,0.0,0.0,0.0,0.0,0.0,-2.4183,-2.3974,-2.3958,-2.3844,-2.3634,-2.3685,-2.3783,-2.3994,-2.3994,-2.4125,-2.4335,0.0,0.0,0.0,0.0,0.0,0.0,-2.2024,-2.2353,-2.3056,-2.5193,-2.4923,0.0,0.0,0.0,-2.1465,0.0,0.0,-2.1193,0.0,0.0,0.0,0.0,0.0,0.0,0.0,0.0,0.0,0.0,-1.764,-1.6411,-1.6017,-1.5834,0.0,-1.5324,0.0,0.0,0.0,-1.1888,-1.097,-1.1703,0.0,0.0,0.0,0.0,0.0,0.0,0.0,0.0,0.0,0.0,0.0,0.0,0.0,0.0,0.0,0.0,0.0,0.0,0.0,0.0,0.0,0.0,0.0,-1.6269,-1.5974,-1.621,-1.7073,-1.717,-1.7092,-1.6814,-1.6192,-1.5904,-1.5872,-1.5505,-1.5295,-1.5254,-1.5137,-1.5186,-1.5303,-1.5478,-1.6265,-1.7368,-1.7501,-1.7667,-1.7765,-1.7611,-1.7667,-1.7809,-1.7907,-1.7907,-1.8015,0.0,0.0,0.0,0.0,0.0,0.0,0.0,0.0,0.0,0.0,0.0,0.0,0.0,0.0,0.0,-2.4717,-2.4619,-2.4381,-2.3783,-2.3768,-2.4027,-2.4587,0.0,0.0,0.0,0.0,0.0,0.0,0.0,0.0,0.0,0.0,-2.2319,-2.1724,-2.2984,-2.4134,-2.5099,0.0,-2.4888,-2.4646,0.0,-2.3999,-2.3856,0.0,0.0,0.0,-2.4684,-2.3316,0.0,-2.2519,0.0,0.0,0.0,-1.7969,-1.6423,-1.6076,-1.5867,0.0,0.0,0.0,0.0,0.0,0.0,0.0,-1.0506,0.0,0.0,0.0,0.0,0.0,0.0,0.0,0.0,0.0,0.0,0.0,0.0,0.0,0.0,0.0,0.0,0.0,0.0,0.0,0.0,0.0,0.0,-1.5341,-1.5158,-1.5769,-1.6065,-1.6004,-1.6227,-1.6281,-1.6192,-1.566,-1.5392,-1.5373,-1.475,-1.4515,-1.4515,-1.4515,-1.4684,-1.498,-1.497,-1.5313,-1.5874,-1.6249,-1.6684,-1.7101,-1.6581,-1.6684,-1.7202,-1.7202,-1.7202,-1.7257,0.0,0.0,0.0,0.0,0.0,0.0,0.0,0.0,0.0,0.0,0.0,0.0,0.0,0.0,0.0,-2.6156,-2.5616,-2.5264,-2.5106,-2.5074,-2.5135,-2.5308,-2.5308,-2.5405,0.0,0.0,0.0,0.0,0.0,0.0,0.0,0.0,0.0,0.0,-2.1939,-2.2443,-2.2822,-2.4425,0.0,0.0,-2.5354,-2.4801,0.0,0.0,0.0,0.0,0.0,-2.4984,-2.3336,0.0,-2.2328,-1.9373,0.0,0.0,0.0,-1.6076,0.0,0.0,-1.4801,0.0,0.0,0.0,0.0,0.0,0.0,0.0,0.0,0.0,0.0,0.0,0.0,0.0,0.0,0.0,0.0,0.0,0.0,0.0,0.0,0.0,0.0,0.0,0.0,0.0,0.0,0.0,-1.3099,-1.3674,-1.4525,-1.561,-1.6258,-1.62,-1.5958,-1.5885,-1.5817,-1.5285,-1.4876,-1.4731,-1.4561,-1.4515,-1.4515,-1.4515,-1.4575,-1.4625,-1.4911,-1.5088,-1.5254,-1.5546,-1.6056,-1.6581,-1.6181,-1.6296,-1.6637,-1.6637,-1.6637,-1.6694,0.0,0.0,0.0,0.0,0.0,0.0,0.0,0.0,0.0,0.0,0.0,0.0,0.0,0.0,0.0,-2.6668,-2.6037,-2.5616,-2.5616,-2.5616,-2.5616,-2.5616,-2.5616,-2.5524,-2.5301,0.0,0.0,0.0,0.0,0.0,0.0,0.0,0.0,0.0,0.0,0.0,0.0,0.0,0.0,0.0,-2.5921,0.0,0.0,-2.7283,-2.7239,0.0,0.0,0.0,-2.5303,-2.5882,-2.3414,0.0,0.0,0.0,0.0,0.0,0.0,0.0,0.0,0.0,0.0,0.0,0.0,0.0,-1.0025,-1.0845,0.0,0.0,0.0,0.0,0.0,0.0,0.0,0.0,0.0,0.0,0.0,0.0,0.0,0.0,0.0,0.0,0.0,0.0,0.0,-1.1781,-1.2121,-1.2799,-1.394,-1.4699,-1.5273,-1.5557,-1.5299,-1.5116,-1.5123,-1.479,-1.4553,-1.4396,-1.4446,-1.4515,-1.4515,-1.4515,-1.4515,-1.4506,-1.4684,-1.4862,-1.497,-1.502,-1.543,-1.5951,-1.5758,-1.5884,-1.6181,-1.6181,-1.6249,-1.6431,0.0,0.0,0.0,0.0,0.0,0.0,0.0,0.0,0.0,0.0,0.0,0.0,0.0,0.0,0.0,0.0,-2.615,-2.5697,-2.5616,-2.5616,-2.5616,-2.5616,-2.5616,-2.5394,-2.4902,0.0,0.0,0.0,0.0,0.0,0.0,0.0,0.0,0.0,0.0,0.0,0.0,0.0,0.0,-2.5918,-2.6147,-2.7491,0.0,0.0,-2.8781,-2.8693,-3.0105,-2.8915,-2.6609,-2.6655,-2.4135,0.0,0.0,0.0,0.0,0.0,-1.6438,0.0,0.0,0.0,0.0,0.0,0.0,0.0,-1.0023,-1.0788,-1.1264,0.0,0.0,0.0,0.0,0.0,0.0,0.0,0.0,0.0,0.0,0.0,0.0,0.0,0.0,0.0,0.0,-1.0513,-1.0962,-1.0962,-1.1706,-1.2519,-1.3317,-1.3462,-1.3833,-1.4458,-1.4371,-1.4334,-1.4351,-1.4285,-1.4312,-1.4267,-1.4327,-1.4327,-1.4387,-1.4267,-1.4258,-1.4267,-1.4387,-1.4556,-1.4793,-1.4565,-1.4852,-1.541,-1.5352,-1.5584,-1.5816,-1.5816,-1.6066,-1.6316,0.0,0.0,0.0,0.0,0.0,0.0,0.0,0.0,0.0,0.0,0.0,0.0,0.0,0.0,0.0,0.0,0.0,-2.6231,-2.5648,-2.5616,-2.5616,-2.5616,-2.5616,-2.5394,-2.4902,-2.4184,0.0,0.0,0.0,0.0,0.0,0.0,0.0,0.0,0.0,0.0,0.0,0.0,0.0,-2.4964,-2.6916,0.0,-2.7735,-2.9824,-2.9337,-2.7642,-2.8915,-2.768,-2.5216,0.0,-2.2858,-2.255,0.0,0.0,0.0,0.0,0.0,0.0,0.0,0.0,0.0,0.0,0.0,0.0,-1.0669,-1.0398,-0.9986,0.0,0.0,0.0,0.0,0.0,0.0,0.0,0.0,0.0,0.0,0.0,0.0,0.0,0.0,0.0,0.0,-1.0067,-1.0143,-1.0143,-1.0887,-1.1706,-1.2519,-1.3171,-1.365,-1.3958,-1.4412,-1.4606,-1.4555,-1.4368,-1.4206,-1.407,-1.3511,-1.3381,-1.3519,-1.2956,-1.2765,-1.2948,-1.345,-1.3752,-1.3812,-1.4318,-1.4852,-1.5362,-1.5137,-1.5254,-1.5526,-1.5526,-1.57,-1.5999,0.0,0.0,0.0,0.0,0.0,0.0,0.0,0.0,0.0,0.0,0.0,0.0,0.0,0.0,0.0,0.0,0.0,0.0,0.0,0.0,-2.5982,-2.5431,-2.5359,-2.4926,-2.4158,-2.3706,-2.3289,0.0,0.0,0.0,0.0,0.0,0.0,0.0,0.0,0.0,0.0,0.0,-2.3638,-2.5114,-2.6988,0.0,-2.8292,-3.0321,-3.0277,-2.9189,-2.9505,-2.7966,-2.5482,-2.3633,-2.2847,0.0,0.0,-2.0171,-1.8942,0.0,-1.609,-1.4373,0.0,0.0,0.0,-1.252,0.0,0.0,0.0,-1.0624,-1.0317,-0.9285,0.0,0.0,0.0,0.0,0.0,0.0,0.0,0.0,0.0,0.0,0.0,0.0,0.0,0.0,0.0,-0.9922,-0.9922,-0.9922,-1.0293,-1.0887,-1.1632,-1.207,-1.2725,-1.3608,-1.3862,-1.4078,-1.4329,-1.4217,-1.3958,-1.339,-1.313,-1.2887,-1.2634,-1.2389,-1.2328,-1.2451,-1.2826,-1.3252,-1.3563,-1.3511,-1.3923,-1.4519,-1.4359,-1.441,-1.4688,-1.4332,-1.4442,-1.4728,0.0,0.0,0.0,0.0,0.0,0.0,0.0,0.0,0.0,0.0,0.0,0.0,0.0,0.0,0.0,0.0,0.0,0.0,0.0,0.0,-2.645,-2.5341,-2.5207,-2.464,-2.357,-2.3274,-2.29,-2.237,0.0,0.0,0.0,0.0,0.0,0.0,0.0,0.0,0.0,0.0,0.0,-2.5609,0.0,-2.7954,-2.8961,-3.0541,-3.1042,-3.0704,-2.9997,-2.8088,-2.5638,-2.421,0.0,-2.1907,-2.2317,-2.0938,0.0,0.0,0.0,0.0,0.0,0.0,0.0,0.0,0.0,-1.2562,0.0,0.0,0.0,-0.9478,0.0,0.0,0.0,0.0,0.0,0.0,0.0,0.0,0.0,0.0,0.0,0.0,0.0,0.0,0.0,-0.9654,-0.9745,-0.9836,-0.9846,-1.0143,-1.0812,-1.1111,-1.1922,-1.3244,-1.3353,-1.3684,-1.4164,-1.393,-1.3484,-1.2808,-1.2613,-1.2266,-1.1772,-1.1772,-1.1834,-1.1903,-1.2143,-1.2565,-1.313,-1.2634,-1.2818,-1.3442,-1.3321,-1.3494,-1.3666,-1.3122,-1.3122,-1.3416,-2.8187,-2.8557,0.0,0.0,0.0,0.0,0.0,0.0,0.0,0.0,0.0,0.0,0.0,0.0,0.0,0.0,0.0,0.0,-2.6753,0.0,0.0,-2.5697,-2.5652,-2.5137,-2.413,-2.3871,-2.3224,-2.2231,0.0,0.0,0.0,0.0,0.0,0.0,-2.2175,0.0,0.0,0.0,-2.4646,0.0,-2.7089,-2.7506,0.0,-3.0485,-3.075,-2.957,-2.8152,-2.629,-2.4221,0.0,-2.1997,-2.1825,0.0,-2.0105,-1.9211,0.0,0.0,0.0,0.0,0.0,0.0,0.0,-1.2869,0.0,0.0,0.0,-1.054,-1.0361,0.0,0.0,0.0,0.0,0.0,0.0,0.0,0.0,0.0,0.0,0.0,0.0,0.0,0.0,0.0,0.0,-0.9176,-0.9588,-0.962,-0.9695,-0.9771,-1.126,-1.2224,-1.2445,-1.3658,-1.4308,-1.4336,-1.3451,-1.29,-1.2789,-1.1417,-1.0856,-1.0926,-1.0364,-1.0174,-1.0295,-1.0899,-1.1197,-1.1384,-1.202,-1.2389,-1.2451,-1.2573,-1.2634,-1.2634,-1.2565,-1.2757,-1.307,-2.7582,-2.8469,0.0,0.0,0.0,0.0,0.0,0.0,0.0,0.0,0.0,0.0,0.0,0.0,0.0,0.0,0.0,-2.9506,0.0,0.0,0.0,0.0,-2.5821,-2.5038,-2.4235,-2.3991,-2.3434,-2.2622,-2.256,0.0,0.0,0.0,0.0,0.0,-2.2264,0.0,-2.4671,0.0,-2.4277,0.0,0.0,0.0,0.0,-2.9127,-2.9501,-2.841,-2.6584,-2.5374,-2.4377,0.0,-2.189,0.0,0.0,0.0,0.0,0.0,0.0,0.0,0.0,0.0,0.0,0.0,0.0,0.0,-1.3839,0.0,-1.185,0.0,0.0,0.0,0.0,0.0,0.0,0.0,0.0,0.0,0.0,0.0,0.0,0.0,0.0,0.0,0.0,0.0,0.0,0.0,0.0,-0.9145,-0.9,-0.9988,-1.1031,-1.2057,-1.2237,-1.2735,-1.3685,-1.2729,-1.2006,-1.1551,-1.0809,-1.0364,-1.0047,-0.9868,-0.9798,-0.9926,-1.0288,-1.0717,-1.1142,-1.1031,-1.1281,-1.171,-1.1219,-1.1413,-1.1911,-1.1538,-1.1483,-1.1608,-2.6469,0.0,0.0,0.0,0.0,0.0,0.0,0.0,0.0,0.0,0.0,0.0,-2.903,-2.9018,0.0,0.0,-3.0602,-3.0417,0.0,0.0,-2.8613,0.0,0.0,0.0,0.0,-2.4423,-2.3895,-2.3216,0.0,0.0,0.0,0.0,0.0,0.0,0.0,-2.2415,-2.3905,0.0,-2.3955,-2.5497,-2.5354,-2.5488,-2.5886,-2.7646,-2.8143,-2.759,-2.5874,-2.5192,-2.473,-2.2104,-2.2019,0.0,-2.1888,0.0,0.0,0.0,0.0,0.0,-1.8003,0.0,0.0,0.0,0.0,0.0,0.0,0.0,0.0,0.0,0.0,0.0,0.0,0.0,0.0,0.0,0.0,0.0,0.0,0.0,0.0,0.0,0.0,0.0,0.0,0.0,0.0,-0.8452,-0.8583,-0.8574,-0.8367,-0.9074,-1.0056,-1.1452,-1.1168,-1.1592,-1.2884,-1.2026,-1.1253,-1.0702,-1.0419,-0.9995,-0.9484,-0.9676,-0.974,-0.974,-0.9798,-1.0231,-1.078,-1.0168,-1.0295,-1.0843,-1.0231,-1.0421,-1.1052,-1.0681,-1.0561,-1.0624,-2.5257,-2.6147,0.0,0.0,0.0,0.0,0.0,0.0,0.0,0.0,0.0,0.0,0.0,0.0,0.0,0.0,0.0,-3.1021,-3.0028,0.0,-2.8967,0.0,0.0,-2.6077,0.0,0.0,-2.4643,-2.4089,0.0,0.0,0.0,0.0,0.0,0.0,0.0,-2.1159,-2.2937,-2.3129,-2.4007,-2.5369,-2.6051,-2.6189,-2.5952,0.0,-2.696,-2.7287,-2.6531,0.0,0.0,-2.3044,-2.2273,0.0,0.0,0.0,0.0,0.0,0.0,0.0,0.0,0.0,0.0,-1.5267,0.0,0.0,0.0,0.0,-1.2093,0.0,0.0,0.0,0.0,0.0,0.0,0.0,0.0,0.0,0.0,0.0,0.0,0.0,0.0,0.0,0.0,0.0,0.0,-0.7615,-0.7922,-0.808,-0.7948,-0.9132,-0.997,-1.0265,-1.1007,-1.1594,-1.2031,-1.119,-1.0787,-1.0867,-1.0049,-0.9598,-0.9484,-0.9484,-0.9484,-0.9484,-0.9548,-0.9548,-0.9548,-0.974,-0.9804,-0.9862,-0.9989,-1.0047,-1.0047,-1.0238,-1.0434,-1.0624,0.0,0.0,0.0,0.0,0.0,0.0,0.0,-2.6796,0.0,0.0,-2.8972,0.0,0.0,-3.1928,-3.1928,0.0,0.0,-3.2959,-3.1679,-3.1117,0.0,0.0,0.0,-2.77,0.0,0.0,0.0,0.0,0.0,0.0,0.0,0.0,0.0,0.0,0.0,-2.077,0.0,0.0,0.0,0.0,0.0,-2.4992,-2.4609,0.0,0.0,-2.6389,-2.5984,-2.5453,0.0,-2.343,-2.3107,-2.3211,-2.2923,-2.2575,-2.2554,-2.3698,-2.2745,0.0,0.0,0.0,-1.9214,-1.8203,0.0,0.0,0.0,0.0,0.0,0.0,0.0,0.0,0.0,0.0,0.0,0.0,0.0,0.0,0.0,0.0,0.0,0.0,0.0,0.0,0.0,0.0,0.0,-0.6974,-0.7056,-0.7008,0.0,-0.778,-0.8722,-0.9355,-0.9437,-0.982,-1.0565,-0.9884,-0.9513,-0.957,-0.9462,-0.9359,-0.934,-0.9432,-0.9484,-0.9484,-0.9484,-0.9484,-0.9484,-0.9548,-0.9612,-0.9612,-0.967,-0.974,-0.9926,-1.018,-1.0371,-1.0434,-2.5734,0.0,0.0,0.0,0.0,0.0,0.0,0.0,0.0,0.0,-2.9329,0.0,-3.1805,0.0,-3.2307,0.0,-3.3301,-3.3602,-3.257,-3.1422,0.0,-3.1202,-2.9187,0.0,0.0,0.0,0.0,0.0,0.0,-2.3223,0.0,0.0,0.0,0.0,0.0,-2.0399,-2.1205,0.0,-2.2919,0.0,0.0,-2.4418,0.0,0.0,-2.5359,-2.5676,0.0,-2.5194,-2.4684,-2.4002,-2.3851,-2.3921,-2.3665,-2.3532,-2.3692,-2.4454,-2.3634,-2.2483,-2.274,-2.1875,0.0,-1.9747,-1.8983,0.0,-1.7472,0.0,0.0,0.0,0.0,0.0,0.0,0.0,0.0,0.0,0.0,0.0,0.0,-0.778,0.0,0.0,0.0,0.0,0.0,0.0,-0.6383,-0.6325,-0.6401,-0.6302,0.0,0.0,-0.7664,-0.8353,-0.8263,-0.8551,-0.9372,-0.8936,-0.8758,-0.8822,-0.8959,-0.9015,-0.8991,-0.9208,-0.935,-0.935,-0.942,-0.9484,-0.9484,-0.9484,-0.9484,-0.9484,-0.9484,-0.9612,-0.974,-0.9989,-1.018,-1.0244,-2.5775,0.0,0.0,0.0,-2.5789,0.0,0.0,0.0,-2.8375,0.0,-3.0002,-3.0036,-3.111,-3.1586,-3.1409,-3.0453,-3.2003,-3.2881,-3.2489,-3.029,0.0,0.0,-2.8482,-2.7105,-2.8116,0.0,0.0,0.0,0.0,0.0,0.0,0.0,0.0,0.0,-2.0502,0.0,-2.0403,-2.1716,-2.2444,-2.2829,-2.3478,-2.4338,-2.5119,-2.4145,-2.441,-2.5312,-2.5312,-2.5052,-2.479,-2.479,-2.4502,-2.42,-2.42,-2.4345,-2.4469,-2.4248,-2.4138,-2.3884,-2.3318,-2.2752,-2.1893,-2.0044,0.0,0.0,0.0,0.0,-1.6421,0.0,0.0,0.0,0.0,0.0,0.0,0.0,0.0,0.0,0.0,0.0,0.0,0.0,0.0,0.0,0.0,-0.6111,-0.6119,-0.5648,-0.5893,-0.5984,0.0,0.0,-0.7057,-0.73,-0.7567,-0.7914,-0.8327,-0.838,-0.8435,-0.8553,-0.8556,-0.8553,-0.8534,-0.8827,-0.8964,-0.9022,-0.9285,-0.9484,-0.9484,-0.9484,-0.9484,-0.9484,-0.9484,-0.9484,-0.9548,-0.974,-0.9862,-1.0047,-2.5482,-2.5075,-2.5089,0.0,-2.5884,-2.667,0.0,0.0,0.0,0.0,-3.0666,-3.1117,-3.1876,-3.2369,-3.2263,-3.1173,-3.1894,0.0,0.0,0.0,0.0,-3.0719,-3.0088,-2.9249,-2.8337,-2.7507,0.0,-2.6483,0.0,0.0,-2.4017,0.0,0.0,0.0,0.0,0.0,-2.0579,-2.2357,-2.3375,-2.3748,-2.337,-2.358,0.0,0.0,-2.441,-2.5312,-2.5312,-2.5052,-2.479,-2.479,-2.4502,-2.42,-2.42,-2.4345,-2.4539,-2.4625,-2.4551,-2.4316,-2.403,-2.359,-2.2947,-2.1926,-2.1231,-2.061,0.0,0.0,0.0,0.0,0.0,0.0,0.0,0.0,0.0,0.0,0.0,0.0,0.0,0.0,0.0,-0.7475,0.0,0.0,-0.6214,-0.5911,-0.5684,-0.5618,-0.5545,-0.5604,0.0,0.0,0.0,-0.7078,-0.6855,-0.7091,-0.7706,-0.766,-0.7716,-0.8027,-0.8415,-0.8494,-0.8354,-0.8669,-0.8805,-0.8641,-0.8705,-0.8899,-0.9087,-0.8835,-0.9028,-0.9484,-0.9215,-0.928,-0.9548,-0.974,-0.9862,-0.9983,-2.5297,0.0,0.0,-2.4725,0.0,0.0,-2.7357,-2.8045,0.0,-3.017,-3.0423,0.0,-3.1269,-3.1944,-3.1957,-3.0918,-3.1459,0.0,-3.0937,0.0,0.0,-3.0721,-3.001,-2.9209,-2.8209,-2.7517,0.0,-2.6785,0.0,0.0,-2.4398,0.0,0.0,0.0,0.0,-2.1067,-2.1224,-2.3019,-2.3982,-2.4276,-2.3826,0.0,0.0,-2.3941,-2.441,-2.5312,-2.5312,-2.5111,-2.4921,-2.4861,-2.4574,-2.4345,-2.4345,-2.4418,-2.4574,-2.4849,-2.4753,-2.4478,-2.4267,-2.3882,-2.3343,-2.2827,-2.2058,-2.1323,-2.0859,-1.9221,-1.7642,0.0,0.0,0.0,0.0,0.0,0.0,0.0,0.0,0.0,0.0,0.0,0.0,0.0,-0.7679,0.0,-0.708,-0.6077,-0.547,-0.5445,-0.5352,-0.5386,0.0,0.0,0.0,-0.6481,-0.6595,-0.6769,-0.7013,-0.6958,-0.7112,-0.748,-0.7721,-0.787,-0.8001,-0.8398,-0.8518,-0.8454,-0.8614,-0.8829,-0.8952,-0.8705,-0.8835,-0.9157,-0.8894,-0.8899,-0.9098,-0.935,-0.96,-0.9798,-2.5208,0.0,0.0,0.0,0.0,0.0,0.0,-2.8147,0.0,-2.9963,0.0,-2.9722,-3.0089,-3.0878,-3.1069,-3.0214,0.0,-3.1171,-3.1368,-2.9785,-2.9552,-3.104,-2.9379,-2.8279,-2.8068,-2.7394,0.0,0.0,0.0,-2.4217,-2.5264,0.0,0.0,0.0,0.0,0.0,0.0,-2.3649,-2.4312,-2.4558,-2.4626,-2.4819,-2.5023,-2.4266,-2.453,-2.5241,-2.5312,-2.5182,-2.5052,-2.4921,-2.4718,-2.4562,-2.4562,-2.4574,-2.4634,-2.4981,-2.4847,-2.4562,-2.4225,-2.3867,-2.3503,-2.3009,-2.2322,-2.1578,-2.0783,-1.9971,-1.8921,-1.722,-1.6995,-1.6549,0.0,0.0,0.0,0.0,0.0,0.0,0.0,0.0,0.0,0.0,0.0,0.0,0.0,-0.6541,-0.5593,-0.5605,-0.5567,-0.5589,0.0,0.0,0.0,-0.5965,-0.6513,0.0,-0.6489,0.0,-0.6623,-0.7093,-0.6958,-0.7178,-0.7504,-0.8028,-0.824,-0.8228,-0.8635,-0.8857,-0.8888,-0.877,-0.8705,-0.877,-0.8641,-0.8576,-0.8576,-0.8894,-0.9151,-0.942,-2.5123,0.0,0.0,0.0,0.0,-2.7232,-2.8326,-2.9316,-2.978,-2.9642,-2.9894,-2.9975,-2.9653,-3.0154,-3.0235,-2.9653,-2.9864,0.0,0.0,0.0,0.0,-3.0324,-3.0174,-2.9713,-2.8845,-2.8805,-2.8635,0.0,-2.5763,-2.485,-2.5264,0.0,0.0,0.0,0.0,0.0,-2.4026,-2.3739,0.0,-2.4921,-2.5109,-2.4711,-2.4109,-2.4783,-2.4956,-2.4921,-2.5182,-2.5182,-2.5123,-2.5052,-2.4921,-2.4729,-2.4729,-2.4849,-2.4981,-2.5052,-2.511,-2.5033,-2.4268,-2.4071,-2.3894,-2.3096,-2.2787,-2.247,-2.1774,-2.0711,-1.9449,-1.803,-1.709,-1.6317,-1.5999,0.0,0.0,0.0,0.0,0.0,0.0,0.0,0.0,0.0,0.0,0.0,0.0,0.0,0.0,0.0,0.0,0.0,0.0,0.0,0.0,0.0,-0.6164,0.0,0.0,0.0,-0.6745,-0.7387,-0.7275,-0.7301,-0.7512,-0.7737,-0.7886,-0.7841,-0.787,-0.8154,-0.8576,-0.8247,-0.8312,-0.8576,-0.8829,-0.8829,-0.877,-0.8835,-0.877,-0.8641,-2.5634,0.0,0.0,0.0,0.0,0.0,0.0,-2.9489,0.0,-2.9894,-3.0078,-3.0124,-2.9894,-3.0168,-3.0305,-3.0062,-3.0062,-3.0115,-3.0395,-3.0326,-3.0366,-3.0726,-3.0577,0.0,-2.9152,-2.9046,-2.8664,-2.8102,-2.5648,-2.4683,0.0,0.0,0.0,0.0,0.0,-2.2669,0.0,0.0,0.0,-2.4958,-2.53,-2.5022,-2.4366,-2.466,-2.4622,-2.449,-2.4766,-2.4838,-2.4838,-2.5052,-2.5052,-2.4992,-2.4992,-2.5052,-2.5111,-2.5182,-2.5241,-2.5143,-2.4565,-2.4286,-2.3949,-2.3355,-2.28,-2.2188,-2.1606,-2.0476,-1.9284,-1.8326,-1.7154,-1.6108,-1.5367,-1.5079,0.0,0.0,0.0,0.0,0.0,0.0,0.0,0.0,0.0,0.0,0.0,0.0,0.0,0.0,0.0,0.0,0.0,0.0,0.0,0.0,0.0,0.0,0.0,0.0,0.0,-0.6908,-0.6885,-0.7094,-0.7358,-0.7629,-0.7698,-0.7726,-0.7941,-0.813,-0.8358,-0.8163,-0.8177,-0.8252,-0.8441,-0.8441,-0.8376,-0.8576,-0.8576,-0.8511,0.0,-2.5481,0.0,0.0,-2.6655,0.0,-2.843,-2.9278,-2.9999,-3.0295,-3.0306,-3.0306,-3.0216,-3.0397,-3.0441,-3.0247,-3.0148,-3.0243,-3.0543,-3.0355,-3.0467,-3.1039,-3.0678,-3.0028,-2.9154,-2.8786,-2.8281,0.0,-2.5425,-2.4326,0.0,0.0,0.0,0.0,0.0,0.0,0.0,0.0,-2.5267,-2.5192,-2.5589,-2.5394,-2.4929,-2.4457,-2.4273,-2.42,-2.4502,-2.449,-2.449,-2.4909,-2.4981,-2.4981,-2.5052,-2.4981,-2.4969,-2.5028,-2.517,-2.5204,-2.4743,-2.4292,-2.3826,-2.342,-2.2621,-2.1782,-2.1195,-2.0206,-1.925,-1.8537,-1.7226,-1.5958,-1.4817,-1.4814,0.0,0.0,0.0,0.0,0.0,0.0,0.0,0.0,0.0,0.0,0.0,0.0,0.0,0.0,0.0,0.0,0.0,0.0,0.0,0.0,0.0,-0.5948,-0.5822,0.0,-0.6017,0.0,-0.6486,-0.6776,-0.7176,-0.7409,-0.7542,-0.7565,-0.7915,-0.8137,-0.8243,-0.819,-0.8153,-0.8117,-0.8117,-0.8052,-0.8047,-0.8312,-0.8447,-0.8382,0.0,0.0,0.0,0.0,0.0,0.0,-2.9161,-2.9105,-2.9251,-3.0418,-3.0578,-3.0487,-3.0216,-3.0216,-2.9851,-2.9071,-2.9579,-2.9724,-2.9288,-2.9854,-3.0244,-3.0291,-3.0209,-2.9765,-2.8826,-2.8717,-2.8222,0.0,0.0,-2.422,0.0,0.0,0.0,0.0,0.0,0.0,0.0,-2.4133,-2.5082,-2.6255,-2.5865,-2.547,-2.5089,-2.4676,-2.4345,-2.4273,-2.4646,-2.4562,-2.4273,-2.4718,-2.4718,-2.4562,-2.479,-2.4718,-2.449,-2.4334,-2.4683,-2.5004,-2.4259,-2.3819,-2.343,-2.2905,-2.2444,-2.2037,-2.1467,-2.079,-1.9867,-1.8829,-1.7316,-1.6135,-1.5804,-1.5266,-1.4591,0.0,0.0,0.0,0.0,0.0,0.0,0.0,0.0,0.0,0.0,0.0,0.0,0.0,0.0,0.0,0.0,0.0,0.0,-0.6533,0.0,-0.627,-0.5885,-0.5888,0.0,-0.6812,-0.6518,-0.6548,-0.6942,-0.6923,-0.7064,-0.7142,-0.7183,-0.7481,-0.7967,-0.7947,-0.8164,-0.8452,-0.8452,-0.8312,-0.8172,-0.8236,-0.8177,-0.8052,0.0,0.0,0.0,0.0,0.0,0.0,0.0,-2.8169,-2.8288,-2.8276,-2.9268,-2.9943,-2.976,-2.9954,-2.9601,-2.8554,-2.8892,-2.9101,-2.8892,-2.9137,-2.9259,-2.9262,-2.934,-2.8597,-2.6974,-2.6697,-2.6226,0.0,0.0,0.0,0.0,0.0,0.0,0.0,0.0,-2.1737,-2.2584,-2.3266,-2.3844,-2.4399,-2.3949,-2.3559,-2.3324,-2.2791,-2.2529,-2.2456,-2.2745,-2.3065,-2.3372,-2.379,-2.4261,-2.4718,-2.479,-2.4718,-2.4646,-2.4562,-2.4634,-2.4659,-2.4377,-2.3488,-2.2533,-2.2173,-2.1386,-2.0654,-2.0172,-1.9716,-1.9215,-1.8775,-1.7635,-1.6579,-1.6139,-1.5757,-1.5275,0.0,0.0,0.0,0.0,0.0,0.0,0.0,0.0,0.0,0.0,0.0,0.0,0.0,0.0,0.0,0.0,0.0,0.0,-0.6497,0.0,-0.5944,-0.6113,-0.593,-0.6053,-0.6563,-0.6511,-0.659,-0.6714,-0.6865,-0.7003,-0.7072,-0.7072,-0.7292,-0.7608,-0.7748,-0.7905,-0.804,-0.8176,-0.8233,-0.8256,-0.8256,-0.8301,-0.8187,-2.8632,0.0,-2.6758,0.0,-2.719,-2.688,-2.6578,-2.6973,-2.7022,-2.6425,-2.7484,-2.8423,-2.8609,-2.8713,-2.8473,-2.7369,-2.7661,-2.7702,-2.7611,-2.7764,-2.7766,-2.7804,-2.7849,0.0,-2.5534,-2.5138,-2.4696,-2.4181,-2.2254,0.0,0.0,0.0,0.0,0.0,-2.0903,-2.1448,-2.174,-2.2409,-2.2833,-2.3057,-2.2617,-2.235,-2.2254,-2.1689,-2.144,-2.148,-2.1578,-2.1928,-2.2456,-2.2734,-2.3338,-2.4032,-2.449,-2.4562,-2.449,-2.4116,-2.4032,-2.3948,-2.357,-2.2597,-2.1551,-2.1293,-2.0485,-1.9668,-1.9349,-1.8987,-1.8562,-1.824,-1.7629,-1.6975,-1.6561,-1.6398,-1.6127,-1.5487,0.0,0.0,0.0,0.0,0.0,0.0,-1.1059,-1.0323,-1.0027,0.0,0.0,0.0,0.0,0.0,0.0,0.0,0.0,0.0,0.0,0.0,0.0,-0.5795,-0.5862,-0.6322,-0.6433,-0.6486,-0.6486,-0.6637,-0.6805,-0.6851,-0.6851,-0.6974,-0.7241,-0.7381,-0.7566,-0.7726,-0.7863,-0.806,-0.8216,-0.8216,-0.814,-0.7876,-2.8839,-2.7945,-2.7158,-2.7169,-2.6406,-2.5594,-2.5183,-2.5477,-2.5594,-2.5183,-2.5486,-2.5935,-2.6386,-2.6481,-2.6034,-2.5059,-2.541,-2.5474,-2.4945,-2.5451,-2.5737,0.0,0.0,-2.5449,-2.4925,-2.459,-2.417,-2.375,0.0,0.0,-2.0024,0.0,-1.886,-1.9273,-2.003,-2.0799,-2.1686,-2.1686,-2.2217,-2.3057,-2.2617,-2.2516,-2.2587,-2.196,-2.1857,-2.1944,-2.1834,-2.1832,-2.1832,-2.1842,-2.1832,-2.2134,-2.374,-2.4043,-2.3666,-2.2446,-2.2499,-2.2691,-2.1476,-2.0783,-2.0386,-2.0386,-1.9982,-1.9615,-1.9592,-1.9053,-1.8177,-1.7112,-1.7079,-1.7207,-1.7207,-1.722,-1.6867,-1.5848,0.0,0.0,0.0,0.0,0.0,0.0,-1.0834,-1.0071,-0.9818,0.0,0.0,0.0,0.0,0.0,0.0,0.0,0.0,-0.7417,-0.6851,0.0,-0.58,-0.5447,-0.5735,-0.6468,-0.6329,-0.6338,-0.6338,-0.6338,-0.6338,-0.6335,-0.6335,-0.6471,-0.6834,-0.6834,-0.7175,-0.7726,-0.7726,-0.7792,-0.8,-0.8,-0.7442,-0.672,-2.6238,-2.6202,-2.6144,-2.6044,-2.5853,-2.5412,-2.45,-2.4496,-2.4347,-2.3547,-2.3538,-2.361,-2.38,-2.5256,-2.5789,0.0,-2.4543,-2.4564,0.0,-2.4362,-2.4418,-2.486,-2.4437,-2.3694,-2.2536,-2.2151,-2.1767,-2.1364,0.0,0.0,0.0,-1.9151,-1.9333,-1.9949,-2.0189,-2.0473,-2.0736,-2.0736,-2.0907,-2.1159,-2.1034,-2.0907,-2.0898,-2.0729,-2.0551,-2.0376,-2.0335,-2.0564,-2.0924,-2.0924,-2.1298,-2.1907,-2.2371,-2.236,-2.2134,-2.1983,-2.1659,-2.141,-2.1201,-2.042,-1.9561,-1.9345,-1.872,-1.8082,-1.7833,-1.766,-1.7559,-1.7313,-1.7394,-1.7483,-1.7548,-1.7507,-1.7146,-1.6446,-1.6325,0.0,0.0,0.0,0.0,0.0,-1.1311,-1.0299,0.0,-0.9274,0.0,0.0,0.0,0.0,0.0,0.0,0.0,0.0,-0.7359,0.0,-0.641,-0.6093,-0.619,-0.6471,-0.6351,-0.6198,-0.6022,-0.618,-0.6338,-0.6338,-0.6338,-0.6384,-0.6489,-0.6638,-0.676,-0.7013,-0.7238,-0.7459,-0.7548,-0.7052,-0.6814,-0.6499,-2.5278,-2.5188,-2.5189,-2.5025,-2.4704,-2.4239,-2.3413,-2.3421,-2.3267,-2.2455,-2.2458,-2.2644,-2.2745,-2.4016,0.0,-2.3809,-2.369,-2.3654,-2.3899,-2.3681,-2.3654,-2.4106,-2.3681,-2.3046,-2.2037,0.0,0.0,-2.0711,-1.9958,-1.9677,-1.9765,-1.9765,-2.0015,-2.0555,-2.0464,-2.0473,-2.0473,-2.0382,-2.0292,-2.0292,-2.0292,-2.0245,-2.0199,-2.0149,-1.9973,-1.9787,-1.9728,-1.9907,-2.0207,-2.0137,-2.0555,-2.0987,-2.0886,-2.0682,-2.0605,-2.1058,-2.0894,-2.0498,-2.0294,-1.9608,-1.9009,-1.8756,-1.8301,-1.7743,-1.7295,-1.724,-1.7362,-1.7446,-1.7561,-1.7667,-1.7961,-1.7935,-1.7743,-1.7333,-1.7146,-1.6664,-1.5367,0.0,0.0,0.0,0.0,0.0,0.0,-0.9214,0.0,0.0,0.0,0.0,0.0,0.0,0.0,-0.7662,-0.7422,0.0,-0.6197,-0.5978,-0.5959,-0.6309,-0.6124,-0.6,-0.5941,-0.6099,-0.618,-0.618,-0.6261,-0.6257,-0.618,-0.6409,-0.6563,-0.6641,-0.6872,-0.7114,-0.7218,-0.6445,-0.6061,-0.5759,-2.547,-2.4837,0.0,0.0,-2.3203,0.0,-2.209,-2.2329,-2.2424,-2.2081,-2.2329,-2.2745,-2.2946,-2.2946,-2.2846,-2.2644,0.0,0.0,0.0,-2.322,-2.342,-2.3447,-2.3429,-2.3211,-2.3011,-2.2536,-2.2056,-2.1371,-2.0761,-2.0499,-2.0744,-2.0744,-2.0826,-2.0997,-2.0826,-2.0744,-2.0736,-2.0473,-2.0292,-2.0292,-2.0292,-2.0292,-2.0257,-2.0173,-2.0114,-2.0044,-1.9859,-1.9795,-1.98,-1.9695,-1.9578,-1.9588,-1.9396,-1.9188,-1.9188,-1.9913,-2.0119,-1.9894,-1.9002,-1.87,-1.87,-1.87,-1.8531,-1.8346,-1.7918,-1.7714,-1.7526,-1.7526,-1.7663,-1.7917,-1.8306,-1.8364,-1.8399,-1.841,-1.7951,-1.7047,-1.513,0.0,0.0,0.0,0.0,0.0,0.0,-0.9211,-0.9004,0.0,0.0,0.0,0.0,0.0,-0.8488,-0.7212,-0.7261,-0.6673,-0.539,-0.5279,-0.5413,-0.5886,-0.5794,-0.5842,-0.5876,-0.5867,-0.5864,-0.5864,-0.618,-0.6103,-0.5864,-0.618,-0.6412,-0.6563,-0.6641,-0.6795,-0.6927,-0.6067,-0.5255,-0.4552,0.0,0.0,-2.2941,-2.2742,-2.2646,-2.2619,-2.2432,-2.2492,-2.2619,-2.2424,-2.2492,-2.2644,-2.2644,-2.2644,-2.2644,-2.2653,-2.2784,-2.2938,-2.3329,-2.3081,-2.3144,-2.3637,-2.3171,-2.2814,-2.2519,-2.2136,-2.1743,-2.1275,-2.1278,-2.1216,-2.0907,-2.0907,-2.0907,-2.0997,-2.0907,-2.0907,-2.0907,-2.0736,-2.0654,-2.0564,-2.0382,-2.0292,-2.0283,-2.0288,-2.0162,-2.0079,-2.0079,-1.9938,-1.9759,-1.9756,-1.972,-1.9742,-1.9597,-1.9471,-1.9489,-1.9473,-1.9301,-1.9002,-1.8922,-1.8851,-1.87,-1.87,-1.8692,-1.8585,-1.8329,-1.8232,-1.8171,-1.7925,-1.7923,-1.8063,-1.8302,-1.8212,-1.8086,-1.8072,-1.7083,-1.5944,-1.4945,-1.3145,0.0,0.0,-1.042,-0.9997,-0.9813,-1.0001,-0.9988,0.0,0.0,0.0,0.0,-1.0226,-0.9491,-0.802,-0.8288,-0.7688,-0.5903,-0.6046,-0.601,-0.5886,-0.5794,-0.5734,-0.5624,-0.5683,-0.5637,-0.5637,-0.5715,-0.5715,-0.5712,-0.5944,-0.6018,-0.6096,-0.6633,-0.6398,-0.5668,-0.5205,-0.4375,-0.3329,-2.2753,-2.2857,-2.2885,-2.2667,-2.2607,-2.2644,-2.2644,-2.2644,-2.2644,-2.2644,-2.2644,-2.2644,-2.2644,-2.2644,-2.2644,-2.2644,-2.2763,-2.3035,-2.3338,-2.3359,-2.3431,-2.3945,-2.3646,-2.3332,-2.3045,-2.2824,-2.2337,-2.1679,-2.1596,-2.1488,-2.1195,-2.1195,-2.1186,-2.1275,-2.1195,-2.1195,-2.1195,-2.0835,-2.0744,-2.0654,-2.0382,-2.0292,-2.0292,-2.0292,-2.0262,-2.0171,-2.0171,-2.0041,-1.9834,-1.9748,-1.9783,-1.9713,-1.9414,-1.9502,-1.9488,-1.9083,-1.8977,-1.9002,-1.9073,-1.9073,-1.8922,-1.8851,-1.8851,-1.8772,-1.8603,-1.8442,-1.8362,-1.8193,-1.8121,-1.804,-1.8193,-1.8121,-1.787,-1.7448,-1.6516,-1.5196,-1.3762,-1.2345,0.0,-1.0545,-1.0205,-1.0084,-1.0146,-1.0242,-1.0129,-0.9802,0.0,0.0,-1.0582,-1.0605,-0.9873,-0.8291,-0.856,-0.7727,-0.5636,-0.5813,-0.5841,-0.5717,-0.569,-0.5566,-0.5347,-0.546,-0.5401,-0.5321,-0.5559,-0.5559,-0.5479,-0.5712,-0.5789,-0.5789,-0.6247,-0.5854,-0.4974,-0.4489,-0.3664,-0.2749,-2.3456,-2.3456,-2.3347,-2.3147,-2.2846,-2.2644,-2.2644,-2.2653,-2.2644,-2.2644,-2.2644,-2.2644,-2.2644,-2.2644,-2.2644,-2.2644,-2.2846,-2.3046,-2.3347,-2.3646,-2.3954,-2.4152,-2.4152,-2.4053,-2.3854,-2.3646,-2.309,-2.2065,-2.1585,-2.1208,-2.1103,-2.114,-2.1293,-2.1454,-2.1383,-2.1392,-2.1392,-2.1024,-2.0835,-2.0744,-2.0473,-2.0382,-2.0382,-2.0292,-2.0292,-2.0201,-2.0201,-2.011,-1.9795,-1.9754,-1.9652,-1.9584,-1.928,-1.9373,-1.9445,-1.8858,-1.8892,-1.9216,-1.9082,-1.9063,-1.9063,-1.8922,-1.8843,-1.8763,-1.8612,-1.8442,-1.8273,-1.8282,-1.804,-1.7878,-1.7878,-1.7789,-1.7415,-1.6563,-1.5716,-1.4414,-1.2215,0.0,-1.0813,-1.0079,-0.9864,-1.0063,-1.0621,-1.0336,-1.0105,-1.0223,-1.0207,-1.0521,0.0,-1.0979,-1.0075,-0.8388,-0.8422,-0.7427,-0.5099,-0.5371,-0.5502,-0.5491,-0.5455,-0.5333,-0.5211,-0.5249,-0.5182,-0.5007,-0.5323,-0.5401,-0.5243,-0.5479,-0.5559,-0.5556,-0.5786,-0.5312,-0.4363,-0.3875,-0.3124,-0.2257,-2.3646,-2.3546,-2.3356,-2.3347,-2.3147,-2.2946,-2.2946,-2.2745,-2.2644,-2.2644,-2.2644,-2.2644,-2.2644,-2.2644,-2.2644,-2.2644,-2.2644,-2.2846,-2.3356,-2.3646,-2.3954,-2.4152,-2.4152,-2.4053,-2.3854,-2.2837,-2.2113,-2.1565,-2.0597,-1.9845,-1.9593,-1.9678,-2.0076,-2.0529,-2.0907,-2.1275,-2.1651,-2.1392,-2.1302,-2.1212,-2.0835,-2.0654,-2.0654,-2.0382,-2.0201,-1.9928,-1.9928,-1.9853,-1.9671,-1.9613,-1.9596,-1.9612,-1.9309,-1.9318,-1.9295,-1.9076,-1.8877,-1.859,-1.8279,-1.8193,-1.8193,-1.8201,-1.8201,-1.8112,-1.7861,-1.7861,-1.7781,-1.7554,-1.7554,-1.7473,-1.7473,-1.6706,-1.5851,-1.538,-1.3773,-1.227,-1.1527,0.0,-1.0636,-1.0519,-1.0637,-1.082,-1.0893,-1.0722,-1.0799,-1.117,-1.1154,-1.1435,-1.1919,-1.1865,-1.095,-0.8853,-0.8645,-0.7598,-0.5644,-0.5644,-0.5633,-0.5703,-0.5581,-0.5458,-0.5336,-0.5057,-0.4952,-0.5015,-0.4857,-0.4935,-0.5093,-0.5246,-0.5321,-0.5398,-0.5786,-0.4846,-0.3355,-0.3345,-0.2332,-0.0899,-2.3755,-2.3546,-2.3456,-2.3546,-2.3347,-2.3247,-2.3247,-2.2946,-2.2846,-2.2846,-2.2644,-2.2644,-2.2644,-2.2644,-2.2544,-2.2333,-2.2333,-2.2434,-2.2636,-2.3247,-2.3447,-2.3338,-2.3238,-2.2929,-2.2215,-2.1709,-2.1224,-2.0842,-1.9889,-1.9244,-1.8814,-1.8458,-1.838,-1.8648,-1.884,-1.9115,-1.9298,-1.9039,-1.8956,-1.8956,-1.8588,-1.8411,-1.8403,-1.8319,-1.8133,-1.8041,-1.794,-1.7755,-1.7576,-1.7375,-1.7762,-1.8311,-1.8056,-1.8603,-1.9234,-1.8803,-1.8615,-1.8502,-1.8134,-1.804,-1.804,-1.804,-1.804,-1.7959,-1.787,-1.7781,-1.77,-1.7546,-1.7473,-1.7221,-1.6624,-1.6034,-1.527,-1.3756,-1.2562,0.0,0.0,-1.0333,-1.0233,-1.0233,-1.0547,-1.0824,-1.0824,-1.102,-1.1139,-1.1337,-1.1759,-1.1983,-1.2048,-1.214,-1.1111,-0.8989,-0.766,-0.6612,-0.5733,-0.5733,-0.5733,-0.5733,-0.5523,-0.5435,-0.5289,-0.511,-0.5002,-0.4949,-0.4886,-0.4937,-0.5018,-0.5093,-0.5168,-0.5168,-0.5476,-0.4377,-0.2656,-0.2934,-0.1832,-0.0302,-2.3646,-2.3546,-2.3546,-2.3755,-2.3655,-2.3447,-2.3447,-2.3247,-2.3046,-2.3046,-2.2946,-2.2745,-2.2745,-2.2434,-2.2114,-2.1802,-2.1497,-2.1285,-2.1285,-2.1996,-2.2308,-2.2316,-2.2106,-2.1489,-2.0672,-2.0357,-2.002,-1.9853,-1.881,-1.8098,-1.7688,-1.7056,-1.6763,-1.6879,-1.6973,-1.7059,-1.7152,-1.7073,-1.6987,-1.6987,-1.672,-1.6626,-1.6633,-1.6539,-1.6445,-1.6445,-1.6243,-1.5954,-1.567,-1.5481,-1.6055,-1.6821,-1.6546,-1.7305,-1.8292,-1.7667,-1.7593,-1.7629,-1.7548,-1.731,-1.7064,-1.7064,-1.709,-1.7041,-1.7041,-1.6952,-1.6862,-1.6862,-1.6778,-1.642,-1.5565,-1.5281,-1.4521,-1.2711,0.0,0.0,0.0,-1.0223,-1.0264,-1.0366,-1.0682,-1.0973,-1.0973,-1.1227,-1.1446,-1.1594,-1.2024,-1.2213,-1.2151,-1.186,-1.0716,-0.8571,-0.6668,-0.5733,-0.5733,-0.5733,-0.5733,-0.5733,-0.5638,-0.5491,-0.5282,-0.5186,-0.5078,-0.4945,-0.4938,-0.4964,-0.4937,-0.5018,-0.4937,-0.4937,-0.4851,-0.3752,-0.2189,-0.227,-0.1316,0.0076,-2.3347,-2.3646,-2.3755,-2.3755,-2.3755,-2.3746,-2.3746,-2.3546,-2.3347,-2.3347,-2.3347,-2.3347,-2.3347,-2.1988,-2.1057,-2.0955,-1.9605,-1.8769,-1.9073,-1.9066,-1.9907,-2.1684,-2.0751,-2.0135,-2.0033,-1.8582,-1.8053,-1.8561,-1.6613,-1.553,-1.5368,-1.5468,-1.5667,-1.5886,-1.6331,-1.6778,-1.7245,-1.7152,-1.7152,-1.7159,-1.6987,-1.6901,-1.6807,-1.6626,-1.6351,-1.625,-1.6156,-1.5873,-1.5406,-1.5399,-1.5494,-1.5494,-1.5203,-1.538,-1.5651,-1.536,-1.5045,-1.5015,-1.5814,-1.5168,-1.4256,-1.4256,-1.4314,-1.4294,-1.4294,-1.4294,-1.4294,-1.4294,-1.4426,-1.4615,-1.4529,-1.3957,-1.3349,-1.2783,0.0,0.0,-1.1214,-1.1214,-1.1369,-1.1892,-1.1791,-1.1624,-1.1624,-1.1461,-1.1564,-1.1974,-1.2115,-1.2125,-1.2059,-1.1206,-0.9639,-0.734,-0.6266,-0.5733,-0.5733,-0.5733,-0.5733,-0.5733,-0.5725,-0.5571,-0.5464,-0.5271,-0.5228,-0.5186,-0.5023,-0.48,-0.4701,-0.4937,-0.4859,-0.4621,-0.383,-0.2969,-0.2112,-0.1096,-0.0313,0.0234,-2.3546,-2.3746,-2.3845,-2.4053,-2.4053,-2.4053,-2.4053,-2.3854,-2.3546,-2.3138,-2.2937,-2.2426,-2.1489,-2.0767,-2.0033,-1.9199,-1.8471,-1.8157,-1.8053,-1.7423,-1.7627,-1.8991,-1.806,-1.7443,-1.7443,-1.6817,-1.6617,-1.6829,-1.5608,-1.492,-1.482,-1.4456,-1.4196,-1.4131,-1.4314,-1.4413,-1.4453,-1.4453,-1.4453,-1.4453,-1.4364,-1.4364,-1.437,-1.4274,-1.4184,-1.4088,-1.389,-1.3698,-1.3511,-1.3312,-1.3794,-1.4465,-1.437,-1.4841,-1.5305,-1.5108,-1.4374,-1.3708,-1.4078,-1.4104,-1.4034,-1.4034,-1.3957,-1.3969,-1.3969,-1.3969,-1.3969,-1.3969,-1.4052,-1.3951,-1.3416,-1.305,-1.27,-1.1975,0.0,-1.133,-1.1336,-1.1336,-1.1398,-1.166,-1.1589,-1.1497,-1.1497,-1.1724,-1.1942,-1.2131,-1.2453,-1.2617,-1.2291,-1.0631,-0.8958,-0.7278,-0.6286,-0.5803,-0.5733,-0.5733,-0.5733,-0.5733,-0.5733,-0.5708,-0.5662,-0.5497,-0.5414,-0.5404,-0.5173,-0.5082,-0.5036,-0.4967,-0.4937,-0.4779,-0.3752,-0.2813,-0.1877,-0.0783,0.0078,0.0628,-2.3555,-2.3755,-2.3854,-2.4053,-2.4152,-2.4152,-2.3945,-2.3746,-2.3329,-2.2409,-2.2097,-2.1481,-2.0025,-1.9302,-1.8672,-1.7627,-1.7114,-1.6704,-1.6499,-1.5767,-1.5654,-1.6393,-1.5879,-1.5571,-1.5571,-1.5464,-1.5464,-1.5571,-1.4864,-1.4522,-1.4438,-1.3866,-1.3453,-1.3217,-1.3141,-1.3017,-1.2867,-1.2797,-1.2764,-1.2764,-1.2764,-1.2764,-1.2764,-1.2764,-1.2764,-1.2764,-1.2565,-1.2467,-1.237,-1.2175,-1.2754,-1.3426,-1.3329,-1.38,-1.4262,-1.3968,-1.3301,-1.264,-1.2543,-1.278,-1.3147,-1.3164,-1.3173,-1.3115,-1.3115,-1.3115,-1.3115,-1.3115,-1.3179,-1.3061,-1.2422,-1.2396,-1.2258,-1.1708,-1.1614,-1.1708,-1.1807,-1.1807,-1.1807,-1.1807,-1.1807,-1.1807,-1.1807,-1.2141,-1.2337,-1.2337,-1.2769,-1.2651,-1.1547,-0.9545,-0.7998,-0.6786,-0.6143,-0.5831,-0.5844,-0.5771,-0.5733,-0.5733,-0.5733,-0.5733,-0.573,-0.5646,-0.5499,-0.5454,-0.5374,-0.5115,-0.4907,-0.5039,-0.4912,-0.4589,-0.3372,-0.25,-0.1641,-0.0313,0.0549,0.1021,-2.3347,-2.3646,-2.3755,-2.3755,-2.4053,-2.3945,-2.3429,-2.3329,-2.271,-2.1057,-2.0853,-2.042,-1.9265,-1.7705,-1.6666,-1.6673,-1.5125,-1.4196,-1.4196,-1.4196,-1.4196,-1.4196,-1.4724,-1.5035,-1.5035,-1.4515,-1.4509,-1.5035,-1.4509,-1.4067,-1.382,-1.382,-1.3701,-1.347,-1.3222,-1.3109,-1.3093,-1.2861,-1.2764,-1.2764,-1.2764,-1.2764,-1.2764,-1.2764,-1.2764,-1.2764,-1.2764,-1.2662,-1.237,-1.237,-1.237,-1.237,-1.2078,-1.198,-1.198,-1.1683,-1.1585,-1.1585,-1.1292,-1.1194,-1.1244,-1.123,-1.1293,-1.1313,-1.1313,-1.1313,-1.1313,-1.1313,-1.1495,-1.1562,-1.1562,-1.1829,-1.2078,-1.237,-1.237,-1.2467,-1.2764,-1.2764,-1.2764,-1.2764,-1.2764,-1.2764,-1.2764,-1.2764,-1.2759,-1.2764,-1.2953,-1.1956,-0.9515,-0.7939,-0.6652,-0.5713,-0.5716,-0.5805,-0.6086,-0.5852,-0.5735,-0.5735,-0.5733,-0.5733,-0.5733,-0.5733,-0.5579,-0.5464,-0.5464,-0.5054,-0.4358,-0.491,-0.4784,-0.4044,-0.2526,-0.1799,-0.133,0.0628,0.1336,0.1258,-2.3655,-2.3854,-2.3954,-2.3538,-2.3538,-2.3329,-2.2828,-2.2097,-2.1261,-2.0444,-1.9605,-1.8561,-1.6996,-1.648,-1.5855,-1.5024,-1.4504,-1.4196,-1.4196,-1.4401,-1.4401,-1.4196,-1.4299,-1.4407,-1.4407,-1.4299,-1.4299,-1.4407,-1.4299,-1.4159,-1.4083,-1.4083,-1.3954,-1.3717,-1.3642,-1.3518,-1.3351,-1.3104,-1.3001,-1.2985,-1.2829,-1.2764,-1.2764,-1.2764,-1.2764,-1.2764,-1.2764,-1.2764,-1.2667,-1.2667,-1.2667,-1.2662,-1.237,-1.2273,-1.2273,-1.198,-1.1883,-1.1878,-1.178,-1.178,-1.1668,-1.1312,-1.125,-1.1197,-1.1197,-1.1197,-1.1197,-1.1197,-1.1255,-1.1298,-1.1298,-1.1351,-1.1492,-1.1785,-1.1883,-1.1883,-1.2175,-1.237,-1.2565,-1.2565,-1.2667,-1.2667,-1.2273,-1.1565,-1.1463,-1.2175,-1.177,-1.0551,-0.8528,-0.7612,-0.668,-0.5637,-0.5538,-0.5598,-0.5519,-0.5747,-0.5671,-0.5307,-0.5228,-0.5013,-0.4748,-0.5102,-0.5174,-0.5137,-0.5065,-0.4841,-0.4633,-0.4365,-0.3786,-0.3002,-0.1885,-0.1059,-0.0321,0.1206,0.161,0.1527,-2.3238,-2.3438,-2.3438,-2.3029,-2.3029,-2.2619,-2.1692,-2.0955,-2.0025,-1.8575,-1.7837,-1.6903,-1.5339,-1.5238,-1.4922,-1.4299,-1.4196,-1.4299,-1.4401,-1.4396,-1.4396,-1.4401,-1.4299,-1.4196,-1.4196,-1.4196,-1.4196,-1.4196,-1.4196,-1.4196,-1.4196,-1.4196,-1.4116,-1.3965,-1.3863,-1.3744,-1.3599,-1.3357,-1.3249,-1.3233,-1.2996,-1.2899,-1.2888,-1.2797,-1.2764,-1.2764,-1.2764,-1.2861,-1.2953,-1.2861,-1.2764,-1.2764,-1.257,-1.2565,-1.2467,-1.2273,-1.2175,-1.2175,-1.2078,-1.198,-1.1883,-1.1585,-1.1487,-1.1389,-1.1487,-1.1389,-1.1389,-1.1487,-1.1487,-1.1487,-1.1487,-1.1487,-1.1585,-1.1878,-1.1883,-1.198,-1.2273,-1.2467,-1.2565,-1.2565,-1.2467,-1.217,-1.1473,-1.0574,-1.0275,-1.0872,-1.0092,-0.9004,-0.7908,-0.6822,-0.6001,-0.5353,-0.525,-0.5319,-0.5451,-0.5631,-0.5533,-0.5078,-0.4926,-0.4694,-0.43,-0.4565,-0.4743,-0.4739,-0.4594,-0.4485,-0.4301,-0.4036,-0.3546,-0.2833,-0.166,-0.0826,-0.0164,0.1451,0.1854,0.1783,-2.2426,-2.2526,-2.2526,-2.2426,-2.2325,-2.1794,-2.0135,-1.9723,-1.8776,-1.628,-1.5755,-1.5339,-1.4299,-1.4196,-1.4196,-1.4196,-1.4191,-1.4299,-1.4498,-1.4401,-1.4401,-1.4606,-1.4401,-1.4191,-1.4196,-1.4196,-1.4196,-1.4196,-1.4196,-1.4196,-1.4196,-1.4196,-1.4196,-1.4186,-1.3954,-1.3852,-1.3836,-1.3604,-1.3513,-1.3486,-1.3238,-1.3141,-1.3114,-1.2883,-1.2797,-1.2791,-1.277,-1.2958,-1.305,-1.2856,-1.2861,-1.2861,-1.2861,-1.2861,-1.2856,-1.257,-1.2467,-1.2467,-1.2175,-1.217,-1.217,-1.217,-1.1975,-1.178,-1.198,-1.178,-1.178,-1.198,-1.2078,-1.2073,-1.2078,-1.2078,-1.2078,-1.237,-1.237,-1.2467,-1.2667,-1.2662,-1.2662,-1.2662,-1.2073,-1.1277,-1.0271,-0.9682,-0.9186,-0.8784,-0.7912,-0.7425,-0.7319,-0.5629,-0.4836,-0.5039,-0.4836,-0.4935,-0.5536,-0.5447,-0.5209,-0.4833,-0.4824,-0.4584,-0.422,-0.4222,-0.4308,-0.421,-0.421,-0.4032,-0.3582,-0.386,-0.3646,-0.2932,-0.1493,-0.0824,-0.0499,0.1517,0.2074,0.1943,-2.2224,-2.2325,-2.2325,-2.1928,-2.1183,-2.0246,-1.9531,-1.785,-1.6592,-1.5968,-1.5131,-1.4509,-1.4196,-1.4196,-1.4196,-1.4196,-1.4396,-1.4396,-1.4299,-1.4617,-1.4724,-1.4299,-1.4396,-1.4396,-1.4196,-1.4196,-1.4196,-1.4196,-1.4196,-1.4196,-1.4196,-1.4196,-1.4196,-1.4191,-1.4137,-1.4116,-1.4094,-1.3846,-1.3744,-1.3728,-1.3491,-1.34,-1.3367,-1.3125,-1.3028,-1.3007,-1.2829,-1.2861,-1.2856,-1.2953,-1.3152,-1.3346,-1.3346,-1.3346,-1.3346,-1.3249,-1.3249,-1.3249,-1.3147,-1.3152,-1.3152,-1.3152,-1.2953,-1.2662,-1.2078,-1.2078,-1.2273,-1.2273,-1.2467,-1.2565,-1.237,-1.2273,-1.2273,-1.2078,-1.2273,-1.237,-1.2175,-1.177,-1.1468,-1.1277,-1.0186,-0.9201,-0.8612,-0.8007,-0.7009,-0.5225,-0.5922,-0.6024,-0.5135,-0.4535,-0.4234,-0.4234,-0.4234,-0.4334,-0.4638,-0.462,-0.4656,-0.4737,-0.467,-0.4309,-0.3582,-0.3946,-0.4002,-0.3765,-0.3765,-0.3676,-0.3587,-0.3304,-0.227,-0.0847,-0.0597,0.0336,0.1552,0.2023,0.2185,0.2187,-2.0672,-2.0459,-2.004,-1.9738,-1.9213,-1.8582,-1.7752,-1.6599,-1.5654,-1.5131,-1.4617,-1.4196,-1.4196,-1.4196,-1.4196,-1.4196,-1.4299,-1.4401,-1.4396,-1.4509,-1.4509,-1.4401,-1.4401,-1.4293,-1.4196,-1.4196,-1.4196,-1.4196,-1.4196,-1.4196,-1.4196,-1.4196,-1.4196,-1.4196,-1.4196,-1.4196,-1.4186,-1.4051,-1.3997,-1.3976,-1.3739,-1.3642,-1.3615,-1.3373,-1.3281,-1.3249,-1.3012,-1.2856,-1.2861,-1.305,-1.3147,-1.3346,-1.3346,-1.3443,-1.3539,-1.3539,-1.3539,-1.3539,-1.3539,-1.3539,-1.3539,-1.3539,-1.3346,-1.3147,-1.2759,-1.2759,-1.2759,-1.2856,-1.3055,-1.305,-1.2662,-1.2565,-1.2565,-1.237,-1.2473,-1.2467,-1.2078,-1.1575,-1.0974,-1.0293,-0.9004,-0.7816,-0.6628,-0.6024,-0.5227,-0.4133,-0.473,-0.5031,-0.4438,-0.4036,-0.3833,-0.4033,-0.3833,-0.3934,-0.4236,-0.4338,-0.4416,-0.4567,-0.4483,-0.4091,-0.3422,-0.3697,-0.3567,-0.323,-0.323,-0.323,-0.323,-0.2963,-0.2037,-0.078,-0.0434,0.0514,0.1674,0.2212,0.234,0.2393,-1.9228,-1.8387,-1.7549,-1.7549,-1.7443,-1.7022,-1.6074,-1.5761,-1.5238,-1.4299,-1.4196,-1.4196,-1.4196,-1.4196,-1.4196,-1.4196,-1.4196,-1.4293,-1.4606,-1.4396,-1.4401,-1.4713,-1.4509,-1.4412,-1.4299,-1.4299,-1.4299,-1.4196,-1.4196,-1.4196,-1.4196,-1.4196,-1.4196,-1.4196,-1.4196,-1.4196,-1.4196,-1.4196,-1.4196,-1.4175,-1.3965,-1.3884,-1.3857,-1.3729,-1.3643,-1.361,-1.3355,-1.3243,-1.3177,-1.3274,-1.3344,-1.3402,-1.3402,-1.3471,-1.3636,-1.3636,-1.3636,-1.3636,-1.3636,-1.3636,-1.3636,-1.3636,-1.3636,-1.3636,-1.3636,-1.3443,-1.3346,-1.3539,-1.3636,-1.3443,-1.2953,-1.2861,-1.2764,-1.2462,-1.2467,-1.2268,-1.1678,-1.0979,-1.0284,-0.9406,-0.8014,-0.6423,-0.4734,-0.4234,-0.3934,-0.3934,-0.4137,-0.4237,-0.4237,-0.3836,-0.3633,-0.3833,-0.3633,-0.3633,-0.3934,-0.4237,-0.4338,-0.4438,-0.4367,-0.4062,-0.355,-0.3537,-0.3312,-0.2978,-0.2969,-0.2875,-0.2875,-0.2694,-0.2059,-0.1069,-0.0175,0.0606,0.1376,0.2311,0.2563,0.2431,-1.9228,-1.8387,-1.7549,-1.7549,-1.681,-1.6074,-1.5968,-1.5024,-1.4407,-1.4191,-1.4196,-1.4196,-1.4196,-1.4196,-1.4196,-1.4196,-1.4196,-1.4293,-1.4606,-1.4821,-1.4934,-1.4928,-1.5154,-1.5154,-1.4934,-1.4606,-1.4396,-1.4196,-1.4196,-1.4196,-1.4196,-1.4196,-1.4196,-1.4196,-1.4196,-1.4196,-1.4196,-1.4196,-1.4196,-1.4191,-1.4159,-1.4143,-1.4116,-1.419,-1.4201,-1.4167,-1.4117,-1.4309,-1.4488,-1.4488,-1.4442,-1.4463,-1.4463,-1.4394,-1.4202,-1.4202,-1.4202,-1.4202,-1.4202,-1.4202,-1.4202,-1.4202,-1.4202,-1.4202,-1.4202,-1.4022,-1.3835,-1.3835,-1.4016,-1.3913,-1.3244,-1.305,-1.2559,-1.0984,-1.0881,-1.0783,-1.0002,-0.8905,-0.811,-0.8219,-0.6429,-0.4834,-0.3836,-0.3736,-0.3635,-0.3635,-0.3433,-0.3433,-0.3736,-0.3433,-0.323,-0.3331,-0.323,-0.3433,-0.3635,-0.3934,-0.4135,-0.4438,-0.4624,-0.4567,-0.4181,-0.3924,-0.3663,-0.3313,-0.2985,-0.2875,-0.2873,-0.1974,-0.1065,-0.0174,0.0783,0.1632,0.2443,0.2545,0.2483,0.2275,-1.7331,-1.6499,-1.5666,-1.5666,-1.5238,-1.4922,-1.4922,-1.4509,-1.4196,-1.4196,-1.4196,-1.4196,-1.4196,-1.4293,-1.4504,-1.4617,-1.4617,-1.4719,-1.4821,-1.4928,-1.5041,-1.5041,-1.5148,-1.5148,-1.5041,-1.4928,-1.4826,-1.4617,-1.4509,-1.4396,-1.4396,-1.4396,-1.4396,-1.4396,-1.4299,-1.4196,-1.4196,-1.4196,-1.4196,-1.4191,-1.4401,-1.4396,-1.4493,-1.4601,-1.4663,-1.4629,-1.459,-1.451,-1.4485,-1.4282,-1.4309,-1.443,-1.4335,-1.4248,-1.4214,-1.427,-1.4332,-1.4296,-1.434,-1.4298,-1.4202,-1.3919,-1.3823,-1.3823,-1.3823,-1.3539,-1.3352,-1.3636,-1.3732,-1.3431,-1.1863,-1.157,-1.1175,-0.9694,-0.9596,-0.9497,-0.8803,-0.7908,-0.7015,-0.6132,-0.5135,-0.4336,-0.3835,-0.3833,-0.3833,-0.3833,-0.3533,-0.3533,-0.3835,-0.3533,-0.3433,-0.3433,-0.3433,-0.3433,-0.3332,-0.3633,-0.3935,-0.4135,-0.4437,-0.4491,-0.4313,-0.4181,-0.3905,-0.3421,-0.3208,-0.3086,-0.2873,-0.2424,-0.1338,0.0,0.0442,0.1484,0.2732,0.2636,0.2504,0.2396]},{"header":{"parameterUnit":"m.s-1","parameterCategory":1,"la1":30.6,"la2":28.766,"lo1":-90.7593,"lo2":-88.6598,"dy":0.0162,"dx":0.0183,"nx":116,"ny":114,"refTime":"2023-04-29T00:00:00:Z","depth":0,"parameterNumber":3,"parameterNumberName":"V-component_of_WINDS"},"data":[0.0,0.0,0.0,0.0,0.0,0.0,0.0,0.0,0.0,0.0,0.0,0.0,0.0,0.0,0.0,0.0,0.0,0.0,0.0,0.0,0.0,0.0,0.0,0.0,0.0,0.0,0.0,0.0,0.0,0.0,0.0,0.0,0.0,0.0,0.0,0.0,0.0,0.0,0.0,0.0,0.0,0.0,0.0,0.0,0.0,0.0,0.0,0.0,0.0,0.0,0.0,0.0,0.0,0.0,0.0,0.0,0.0,0.0,0.0,0.0,0.0,0.0,0.0,0.0,0.0,0.0,0.0,0.0,0.0,0.0,0.0,0.0,0.0,0.0,0.0,0.0,0.0,0.0,0.0,0.0,0.0,0.0,0.0,0.0,0.0,0.0,0.0,0.0,0.0,0.0,0.0,0.0,0.0,0.0,0.0,0.0,0.0,0.0,0.0,0.0,0.0,0.0,0.0,0.0,0.0,0.0,0.0,0.0,0.0,0.0,0.0,0.0,0.0,0.0,0.0,0.0,0.0,0.0,0.0,0.0,0.0,0.0,0.0,0.0,0.0,0.0,0.0,0.0,0.0,0.0,0.0,0.0,0.0,0.0,0.0,0.0,0.0,0.0,0.0,0.0,0.0,0.0,0.0,0.0,0.0,0.0,0.0,0.0,0.0,0.0,0.0,0.0,0.0,0.0,0.0,0.0,0.0,0.0,0.0,0.0,0.0,0.0,0.0,0.0,0.0,0.0,0.0,0.0,0.0,0.0,0.0,0.0,0.0,0.0,0.0,0.0,0.0,0.0,0.0,0.0,0.0,0.0,0.0,0.0,0.0,0.0,0.0,0.0,0.0,0.0,0.0,0.0,0.0,0.0,0.0,0.0,0.0,0.0,0.0,0.0,0.0,0.0,0.0,0.0,0.0,0.0,0.0,0.0,0.0,0.0,0.0,0.0,0.0,0.0,0.0,0.0,0.0,0.0,0.0,0.0,0.0,0.0,0.0,0.0,0.0,0.0,0.0,0.0,0.0,0.0,0.0,0.0,0.0,0.0,0.0,0.0,0.0,0.0,0.0,0.0,0.0,0.0,0.0,0.0,0.0,0.0,0.0,0.0,0.0,0.0,0.0,0.0,0.0,0.0,0.0,0.0,0.0,0.0,0.0,0.0,0.0,0.0,0.0,0.0,0.0,0.0,0.0,0.0,0.0,0.0,0.0,0.0,0.0,0.0,0.0,0.0,0.0,0.0,0.0,0.0,0.0,0.0,0.0,0.0,0.0,0.0,0.0,0.0,0.0,0.0,0.0,0.0,0.0,0.0,0.0,0.0,0.0,0.0,0.0,0.0,0.0,0.0,0.0,0.0,0.0,0.0,0.0,0.0,0.0,0.0,0.0,0.0,0.0,0.0,0.0,0.0,0.0,0.0,0.0,0.0,0.0,0.0,0.0,0.0,0.0,0.0,0.0,0.0,0.0,0.0,0.0,0.0,0.0,0.0,0.0,0.0,0.0,0.0,0.0,0.0,0.0,0.0,0.0,0.0,0.0,0.0,0.0,0.0,0.0,0.0,0.0,0.0,0.0,0.0,0.0,0.0,0.0,0.0,0.0,0.0,0.0,0.0,0.0,0.0,0.0,0.0,0.0,0.0,0.0,0.0,0.0,0.0,0.0,0.0,0.0,0.0,0.0,0.0,0.0,0.0,0.0,0.0,0.0,0.0,0.0,0.0,0.0,0.0,0.0,0.0,0.0,0.0,0.0,0.0,0.0,0.0,0.0,0.0,0.0,0.0,0.0,0.0,0.0,0.0,0.0,0.0,0.0,0.0,0.0,0.0,0.0,0.0,0.0,0.0,0.0,0.0,0.0,0.0,0.0,0.0,0.0,0.0,0.0,0.0,0.0,0.0,0.0,0.0,0.0,0.0,0.0,0.0,0.0,0.0,0.0,0.0,0.0,0.0,0.0,0.0,0.0,0.0,0.0,0.0,0.0,0.0,0.0,0.0,0.0,0.0,0.0,0.0,0.0,0.0,0.0,0.0,0.0,0.0,0.0,0.0,0.0,0.0,0.0,0.0,0.0,0.0,0.0,0.0,0.0,0.0,0.0,0.0,0.0,0.0,0.0,0.0,0.0,0.0,0.0,0.0,0.0,0.0,0.0,0.0,0.0,0.0,0.0,0.0,0.0,0.0,0.0,0.0,0.0,0.0,0.0,0.0,0.0,0.0,0.0,0.0,0.0,0.0,0.0,0.0,0.0,0.0,0.0,0.0,0.0,0.0,0.0,0.0,0.0,0.0,0.0,0.0,0.0,0.0,0.0,0.0,0.0,0.0,0.0,0.0,0.0,0.0,0.0,0.0,0.0,0.0,0.0,0.0,0.0,0.0,0.0,0.0,0.0,0.0,0.0,0.0,0.0,0.0,0.0,0.0,0.0,0.0,0.0,0.0,0.0,0.0,0.0,0.0,0.0,0.0,0.0,0.0,0.0,0.0,0.0,0.0,0.0,0.0,0.0,0.0,0.0,0.0,0.0,0.0,0.0,0.0,0.0,0.0,0.0,0.0,0.0,0.0,0.0,0.0,0.0,0.0,0.0,0.0,0.0,0.0,0.0,0.0,0.0,0.0,0.0,0.0,0.0,0.0,0.0,0.0,0.0,0.0,0.0,0.0,0.0,0.0,0.0,0.0,0.0,0.0,0.0,0.0,0.0,0.0,0.0,0.0,0.0,0.0,0.0,0.0,0.0,0.0,0.0,0.0,0.0,0.0,0.0,0.0,0.0,0.0,0.0,0.0,0.0,0.0,0.0,0.0,0.0,0.0,0.0,0.0,0.0,0.0,0.0,0.0,0.0,0.0,0.0,0.0,0.0,0.0,0.0,0.0,0.0,0.0,0.0,0.0,0.0,0.0,0.0,0.0,0.0,0.0,0.0,0.0,0.0,0.0,0.0,0.0,0.0,0.0,0.0,0.0,0.0,0.0,0.0,0.0,0.0,0.0,0.0,0.0,0.0,0.0,0.0,0.0,0.0,0.0,0.0,0.0,0.0,0.0,0.0,0.0,0.0,0.0,0.0,0.0,0.0,0.0,0.0,0.0,0.0,0.0,0.0,0.0,0.0,0.0,0.0,0.0,0.0,0.0,0.0,0.0,0.0,0.0,0.0,0.0,0.0,0.0,0.0,0.0,0.0,0.0,0.0,0.0,0.0,0.0,0.0,0.0,0.0,0.0,0.0,0.0,0.0,0.0,0.0,0.0,0.0,0.0,0.0,0.0,0.0,0.0,0.0,0.0,0.0,0.0,0.0,0.0,0.0,0.0,0.0,0.0,0.0,0.0,0.0,0.0,0.0,0.0,0.0,0.0,0.0,0.0,0.0,0.0,0.0,0.0,0.0,0.0,0.0,0.0,0.0,0.0,0.0,0.0,0.0,0.0,0.0,0.0,0.0,0.0,0.0,0.0,0.0,0.0,0.0,0.0,0.0,0.0,0.0,0.0,0.0,0.0,0.0,0.0,0.0,0.0,0.0,0.0,0.0,0.0,0.0,0.0,0.0,0.0,0.0,0.0,0.0,0.0,0.0,0.0,0.0,0.0,0.0,0.0,0.0,0.0,0.0,0.0,0.0,0.0,0.0,0.0,0.0,0.0,0.0,0.0,0.0,0.0,0.0,0.0,0.0,0.0,0.0,0.0,0.0,0.0,0.0,0.0,0.0,0.0,0.0,0.0,0.0,0.0,0.0,0.0,0.0,0.0,0.0,0.0,0.0,0.0,0.0,0.0,0.0,0.0,0.0,0.0,0.0,0.0,0.0,0.0,0.0,0.0,0.0,0.0,0.0,0.0,0.0,0.0,0.0,0.0,0.0,0.0,0.0,0.0,0.0,0.0,0.0,0.0,0.0,0.0,0.0,0.0,0.0,0.0,0.0,0.0,0.0,0.0,0.0,0.0,0.0,0.0,0.0,0.0,0.0,0.0,0.0,0.0,0.0,0.0,0.0,0.0,0.0,0.0,0.0,0.0,0.0,0.0,0.0,0.0,0.0,0.0,0.0,0.0,0.0,0.0,0.0,0.0,0.0,0.0,0.0,0.0,0.0,0.0,0.0,0.0,0.0,0.0,0.0,0.0,0.0,0.0,0.0,0.0,0.0,0.0,0.0,0.0,0.0,0.0,0.0,0.0,0.0,0.0,0.0,0.0,0.0,0.0,0.0,0.0,0.0,0.0,0.0,0.0,0.0,0.0,0.0,0.0,0.0,0.0,0.0,0.0,0.0,0.0,0.0,0.0,0.0,0.0,0.0,0.0,0.0,0.0,0.0,0.0,0.0,0.0,0.0,0.0,0.0,0.0,0.0,0.0,0.0,0.0,0.0,0.0,0.0,0.0,0.0,0.0,0.0,0.0,0.0,0.0,0.0,0.0,0.0,0.0,0.0,0.0,0.0,0.0,0.0,0.0,0.0,0.0,0.0,0.0,0.0,0.0,0.0,0.0,0.0,0.0,0.0,0.0,0.0,0.0,0.0,0.0,0.0,0.0,0.0,0.0,0.0,0.0,0.0,0.0,0.0,0.0,0.0,0.0,0.0,0.0,0.0,0.0,0.0,0.0,0.0,0.0,0.0,0.0,0.0,0.0,0.0,0.0,0.0,0.0,0.0,0.0,0.0,0.0,0.0,0.0,0.0,0.0,0.0,0.0,0.0,0.0,0.0,0.0,0.0,0.0,0.0,0.0,0.0,0.0,0.0,0.0,0.0,0.0,0.0,0.0,0.0,0.0,0.0,0.0,0.0,0.0,0.0,0.0,0.0,0.0,0.0,0.0,0.0,0.0,0.0,0.0,0.0,0.0,0.0,0.0,0.0,0.0,0.0,0.0,0.0,0.0,0.0,0.0,0.0,0.0,0.0,0.0,0.0,0.0,0.0,0.0,0.0,0.0,0.0,0.0,0.0,0.0,0.0,0.0,0.0,0.0,0.0,0.0,0.0,0.0,0.0,0.0,0.0,0.0,0.0,0.0,0.0,0.0,0.0,0.0,0.0,0.0,0.0,0.0,0.0,0.0,0.0,0.0,0.0,0.0,0.0,0.0,0.0,0.0,0.0,0.0,0.0,0.0,0.0,0.0,0.0,0.0,0.0,0.0,0.0,0.0,0.0,0.0,0.0,0.0,0.0,0.0,0.0,0.0,0.0,0.0,0.0,0.0,0.0,0.0,0.0,0.0,0.0,0.0,0.0,0.0,0.0,0.0,0.0,0.0,0.0,0.0,0.0,0.0,0.0,0.0,0.0,0.0,0.0,0.0,0.0,0.0,0.0,0.0,0.0,0.0,0.0,0.0,0.0,0.0,0.0,0.0,0.0,0.0,0.0,0.0,0.0,0.0,0.0,0.0,0.0,0.0,0.0,0.0,0.0,0.0,0.0,0.0,0.0,0.0,0.0,0.0,0.0,0.0,0.0,0.0,0.0,0.0,0.0,0.0,0.0,0.0,0.0,0.0,0.0,0.0,0.0,0.0,0.0,0.0,0.0,0.0,0.0,0.0,0.0,0.0,0.0,0.0,0.0,0.0,0.0,0.0,0.0,0.0,0.0,0.0,0.0,0.0,0.0,0.0,0.0,0.0,0.0,0.0,0.0,0.0,0.0,0.0,0.0,0.0,0.0,0.0,0.0,0.0,0.0,0.0,0.0,0.0,0.0,0.0,0.0,0.0,0.0,0.0,0.0,0.0,0.0,0.0,0.0,0.0,0.0,0.0,0.0,0.0,0.0,0.0,0.0,0.0,0.0,0.0,0.0,0.0,0.0,0.0,0.0,0.0,0.0,0.0,0.0,0.0,0.0,0.0,0.0,0.0,0.0,0.0,0.0,0.0,0.0,0.0,0.0,0.0,0.0,0.0,0.0,0.0,0.0,0.0,0.0,0.0,0.0,0.0,0.0,0.0,0.0,0.0,0.0,0.0,0.0,0.0,0.0,0.0,0.0,0.0,0.0,0.0,0.0,0.0,0.0,0.0,0.0,0.0,0.0,0.0,0.0,0.0,0.0,0.0,0.0,0.0,0.0,0.0,0.0,0.0,0.0,0.0,0.0,0.0,0.0,0.0,0.0,0.0,0.0,0.0,0.0,0.0,0.0,0.0,0.0,0.0,-1.1675,0.0,0.0,0.0,0.0,0.0,0.0,0.0,0.0,0.0,0.0,0.0,0.0,0.0,0.0,0.0,0.0,0.0,0.0,0.0,0.0,0.0,0.0,0.0,0.0,0.0,0.0,0.0,0.0,0.0,0.0,0.0,0.0,0.0,0.0,0.0,0.0,0.0,0.0,0.0,0.0,0.0,0.0,0.0,0.0,0.0,0.0,0.0,0.0,0.0,0.0,0.0,0.0,0.0,0.0,0.0,0.0,0.0,0.0,0.0,0.0,0.0,0.0,0.0,0.0,0.0,0.0,0.0,0.0,0.0,0.0,0.0,0.0,0.0,0.0,0.0,0.0,0.0,0.0,0.0,0.0,0.0,0.0,0.0,0.0,0.0,0.0,0.0,0.0,0.0,0.0,0.0,0.0,0.0,0.0,0.0,0.0,0.0,0.0,0.0,0.0,0.0,0.0,0.0,0.0,0.0,0.0,0.0,0.0,0.0,0.0,0.0,0.0,0.0,0.0,0.0,0.0,-1.0844,0.0,0.0,0.0,0.0,0.0,0.0,0.0,0.0,0.0,0.0,0.0,0.0,0.0,0.0,0.0,0.0,0.0,0.0,0.0,0.0,0.0,0.0,0.0,0.0,0.0,0.0,0.0,0.0,0.0,0.0,0.0,0.0,0.0,0.0,0.0,0.0,0.0,0.0,0.0,0.0,0.0,0.0,0.0,0.0,0.0,0.0,0.0,0.0,0.0,0.0,0.0,0.0,0.0,0.0,0.0,0.0,0.0,0.0,0.0,0.0,0.0,0.0,0.0,0.0,0.0,0.0,0.0,0.0,0.0,0.0,0.0,0.0,0.0,0.0,0.0,0.0,0.0,0.0,0.0,0.0,0.0,0.0,0.0,0.0,0.0,0.0,0.0,0.0,0.0,0.0,0.0,0.0,0.0,0.0,0.0,0.0,0.0,0.0,0.0,0.0,0.0,0.0,0.0,0.0,0.0,0.0,0.0,0.0,-0.7545,-0.7597,-0.7821,-0.7973,-0.7886,-0.7604,-0.9056,-0.9814,-1.014,0.0,0.0,0.0,0.0,0.0,0.0,0.0,0.0,0.0,0.0,0.0,0.0,0.0,0.0,0.0,0.0,0.0,0.0,0.0,0.0,0.0,0.0,0.0,0.0,0.0,0.0,0.0,0.0,0.0,0.0,0.0,0.0,0.0,0.0,0.0,0.0,0.0,0.0,0.0,0.4882,0.2817,0.1465,0.0786,0.0,0.0,0.0,0.0,0.0,0.0,0.0,0.0,0.0,0.0,0.0,0.0,0.0,0.0,0.0,0.0,0.0,0.0,0.0,0.0,0.0,0.0,0.0,0.0,0.0,0.0,0.0,0.0,0.0,0.0,0.0,0.0,0.0,0.0,0.0,0.0,0.0,0.0,0.0,0.0,0.0,0.0,0.0,0.0,-0.1217,-0.1642,0.0,0.0,0.0,0.0,0.0,0.0,0.0,0.0,0.0,0.0,0.0,0.0,0.0,0.0,-0.4966,-0.6007,-0.6533,-0.6556,-0.7224,-0.7538,-0.7563,-0.7563,-0.7551,-0.7513,-0.7629,0.0,-0.9683,-1.0979,0.0,0.0,0.0,0.0,0.0,0.0,0.0,0.0,0.0,0.0,0.0,0.0,0.0,0.0,0.0,0.0,0.0,0.0,0.0,0.0,0.0,0.0,0.0,0.0,0.0,0.0,0.0,0.0,0.0,0.0,0.0,0.0,0.0,0.0,0.0,0.0,0.7176,0.6448,0.6853,0.4904,0.3227,0.1906,0.0438,-0.1821,-0.4517,-0.5162,0.0,0.0,0.0,0.0,0.0,0.0,0.0,0.0,0.0,0.0,0.0,0.0,0.0,0.0,0.0,0.0,0.0,0.0,0.0,0.0,0.0,0.0,0.0,0.0,0.0,0.0,0.0,0.0,0.0,0.0,0.0,0.0,0.0,0.0,0.0,0.0,0.0,0.0,0.0,0.0059,-0.0126,-0.0978,-0.1526,-0.2095,0.0,0.0,0.0,0.0,0.0,0.0,0.0,0.0,0.0,-0.4425,-0.4837,-0.519,-0.5676,-0.6343,-0.6727,-0.688,-0.6954,-0.7022,-0.7022,-0.7022,-0.7022,-0.7015,-0.7388,-0.7957,-0.8627,-0.986,-1.0736,-1.1294,0.0,0.0,0.0,0.0,0.0,-1.1054,0.0,0.0,0.0,0.0,0.0,0.0,0.0,0.0,0.0,0.0,0.0,0.0,0.0,0.0,0.0,0.0,0.0,0.0,0.0,0.0,0.0,0.0,0.0,0.0,0.0,0.0,0.0,0.0,0.8413,0.7888,0.8533,0.6472,0.4608,0.2812,0.2029,-0.0445,-0.4031,-0.4084,-0.4742,0.0,0.0,0.0,0.0,0.0,0.0,0.0,0.0,0.0,0.0,0.0,0.0,0.0,0.0,0.0,0.0,0.0,0.0,0.0,0.0,0.0,0.0,0.0,0.0,0.0,0.0,0.0,0.0,0.0,0.0,0.0,0.0,0.0,0.0,0.0,0.0,0.0,0.0,0.079,0.0706,-0.0394,-0.075,-0.13,0.0,0.0,0.0,0.0,0.0,0.0,-0.4044,-0.4044,-0.4275,-0.4821,-0.5261,-0.5754,-0.6268,-0.6773,-0.7074,-0.7156,-0.692,-0.6763,-0.6763,-0.6763,-0.682,-0.6858,-0.7394,-0.7777,-0.7996,-0.9205,-0.9922,-1.0402,-1.0677,-1.0545,-1.0159,-1.0091,-1.051,-1.1148,0.0,0.0,0.0,0.0,0.0,0.0,0.0,0.0,0.0,0.0,0.0,0.0,0.0,0.0,0.0,0.0,0.0,0.0,0.0,0.0,0.0,0.0,0.0,0.0,0.0,0.0,0.0,1.0331,0.927,0.8837,0.8922,0.6447,0.4825,0.3889,0.3046,0.1139,-0.1664,-0.281,-0.3911,-0.4904,0.0,0.0,0.0,0.0,0.0,0.0,0.0,0.0,0.0,0.0,0.0,0.0,0.0,0.0,0.0,0.0,0.0,0.0,0.0,0.0,0.0,0.0,0.0,0.0,0.0,0.0,0.0,0.0,0.0,0.0,0.0,0.0,0.0,0.0,0.0,0.0,0.0,0.0,0.0,0.0276,-0.0074,0.0,0.0,0.0,0.0,-0.1944,-0.2547,-0.3092,-0.3395,-0.42,-0.4738,-0.4961,-0.5729,-0.6045,-0.5959,-0.6926,-0.7256,-0.7001,-0.717,-0.7256,-0.7256,-0.7256,-0.7337,-0.735,-0.7183,-0.7577,-0.8361,-0.9688,-1.01,-0.9954,-1.0323,-1.0284,-1.0053,-0.9688,-1.0007,-1.0779,0.0,0.0,0.0,0.0,0.0,0.0,0.0,0.0,0.0,0.0,0.0,0.0,0.0,0.0,0.0,0.0,0.0,0.0,0.0,0.0,0.0,0.0,0.0,0.0,0.0,0.0,1.1023,1.1114,1.0344,0.9684,0.9021,0.7677,0.63,0.4944,0.4714,0.3319,0.099,-0.1063,-0.2582,-0.3521,-0.4697,-0.4655,0.0,0.0,0.0,0.0,0.0,0.0,0.0,0.0,0.0,0.0,0.0,0.0,0.0,0.0,0.0,0.0,0.0,0.0,0.0,0.0,0.0,0.0,0.0,0.0,0.0,0.0,0.0,0.0,0.0,0.0,0.0,0.0,0.0,0.0,0.0,0.0,0.0,0.0347,0.0073,0.0,-0.0876,-0.1166,-0.1517,-0.1983,-0.197,-0.2187,-0.2806,-0.3488,-0.4055,-0.4345,-0.5393,-0.6005,-0.6254,-0.6971,-0.7281,-0.7195,-0.7112,-0.7163,-0.7267,-0.7102,-0.7211,-0.7421,-0.7147,-0.7181,-0.7673,-0.8661,-0.9442,-1.01,-1.0105,-1.052,-1.103,-1.1372,-1.1714,-1.2099,0.0,0.0,0.0,0.0,0.0,0.0,0.0,0.0,0.0,0.0,0.0,0.0,0.0,0.0,0.0,0.0,0.0,0.0,0.0,0.0,0.0,0.0,0.0,0.0,0.0,1.2163,1.2099,1.2187,1.1286,1.0523,0.9823,0.8852,0.7603,0.6207,0.6071,0.4844,0.2778,0.0776,-0.0765,-0.2083,-0.3364,-0.3445,-0.3032,0.0,0.0,0.0,0.0,0.0,0.0,0.0,0.0,0.0,0.0,0.0,0.0,0.0,0.0,0.0,0.0,0.0,0.0,0.0,0.0,0.0,0.0,0.0,0.0,0.0,0.0,0.0,0.0,0.0,0.0,0.0,0.0,0.0,0.0,0.0,0.087,0.0423,0.0371,0.0077,-0.0537,-0.0618,-0.0779,-0.1334,-0.1373,-0.1566,-0.2074,-0.2611,-0.3236,-0.3688,-0.483,-0.5709,-0.6055,-0.6956,-0.7363,-0.7274,-0.7154,-0.7149,-0.725,-0.7217,-0.7159,-0.7272,-0.7152,-0.7059,-0.703,-0.7575,-0.8425,-0.948,-1.0004,-1.0632,-1.1261,-1.208,-1.2559,-1.2863,0.0,0.0,0.0,0.0,0.0,0.0,0.0,0.0,0.0,0.0,0.0,0.0,0.0,0.0,0.0,0.0,0.0,0.0,0.0,0.0,0.0,0.0,0.0,0.0,1.4274,1.3141,1.2813,1.3394,1.2099,1.1414,1.1253,0.9806,0.8599,0.7588,0.7102,0.5703,0.3684,0.2924,0.1402,-0.0546,-0.1335,-0.2045,-0.2676,0.0,0.0,0.0,0.0,0.0,0.0,0.0,0.0,0.0,0.0,0.0,0.0,0.0,0.0,0.0,0.0,0.0,0.0,0.0,0.0,0.0,0.0,0.0,0.0,0.0,0.0,0.0,0.0,0.0,0.0,0.0,0.0,0.0,0.0954,0.1076,0.1096,0.0513,0.0718,0.0759,0.0084,0.0,0.0,0.0,-0.0806,-0.1242,-0.1217,-0.1733,-0.24,-0.3109,-0.4189,-0.5009,-0.5537,-0.6812,-0.733,-0.7149,-0.7302,-0.738,-0.7383,-0.7536,-0.73,-0.6877,-0.7325,-0.7172,-0.6617,-0.6763,-0.7241,-0.8106,-0.9872,-1.0481,-1.0606,-1.1605,-1.2271,-1.275,0.0,0.0,0.0,0.0,0.0,0.0,0.0,0.0,0.0,0.0,0.0,0.0,0.0,0.0,0.0,0.0,0.0,0.0,0.0,0.0,0.0,0.0,0.0,0.0,1.4198,1.4661,1.4326,1.3096,1.3009,1.2187,1.073,1.0466,0.9609,0.826,0.8277,0.7509,0.6077,0.5298,0.4067,0.2492,0.0077,-0.052,-0.0142,0.0,0.0,0.0,0.0,0.0,0.0,0.0,0.0,0.0,0.0,0.0,0.0,0.0,0.0,0.0,0.0,0.0,0.0,0.0,0.0,0.0,0.0,0.0,0.0,0.0,0.0,0.0,0.0,0.0,0.0,0.0,0.0,0.2933,0.2127,0.1465,0.1001,0.066,0.068,0.0604,0.0086,0.0,0.0,0.0,-0.0257,-0.0344,-0.0348,-0.1011,-0.1662,-0.21,-0.3374,-0.4516,-0.5459,-0.6284,-0.685,-0.7309,-0.7465,-0.7536,-0.7543,-0.7685,-0.7702,-0.7698,-0.7609,-0.7475,-0.7303,-0.7121,-0.7118,-0.7243,-0.8078,-0.8747,-0.9495,-1.0969,-1.249,-1.3556,0.0,0.0,0.0,0.0,0.0,0.0,0.0,0.0,0.0,0.0,0.0,0.0,0.0,0.0,0.0,0.0,0.0,0.0,0.0,0.0,0.0,0.0,0.0,1.4908,1.5558,1.5715,1.5148,1.3906,1.3476,1.2626,1.1351,1.1163,1.0471,0.9311,0.9412,0.8692,0.7486,0.7053,0.6054,0.4765,0.3095,0.1891,0.1017,-0.0362,0.007,0.1275,0.107,0.1273,0.1806,0.2643,0.0,0.0,0.0,0.0,0.0,0.0,0.0,0.0,0.0,0.0,0.0,0.0,0.0,0.0,0.0,0.0,0.0,0.0,0.0,0.0,0.0,0.0,0.0,0.0,0.4184,0.4262,0.3928,0.2681,0.1569,0.0975,0.0901,0.0634,0.0091,0.0,0.0,0.0,0.0,0.0,0.0,-0.0349,-0.0765,-0.1245,-0.2381,-0.3509,-0.4473,-0.5681,-0.646,-0.6828,-0.7339,-0.7539,-0.7604,-0.7746,-0.7756,0.0,-0.7617,-0.7458,-0.7214,-0.7183,-0.7173,0.0,0.0,0.0,0.0,0.0,-1.2128,-1.3212,0.0,0.0,0.0,0.0,0.0,0.0,0.0,0.0,0.0,0.0,0.0,0.0,0.0,0.0,0.0,0.0,0.0,0.0,0.0,0.0,0.0,1.7805,1.6837,1.667,1.7556,1.6415,1.5613,1.5167,1.3906,1.3061,1.2512,1.1849,1.117,1.0611,1.0458,0.9657,0.8383,0.8401,0.7719,0.6689,0.6757,0.4838,0.1757,0.0949,0.1279,0.2325,0.279,0.2659,0.2528,0.4459,0.0,0.0,0.0,0.0,0.0,0.0,0.0,0.0,0.0,0.0,0.0,0.0,0.0,0.0,0.0,0.0,0.0,0.0,0.0,0.0,0.0,0.0,0.0,0.0,0.5392,0.5647,0.5938,0.4482,0.2938,0.1576,0.1325,0.0861,0.0191,0.0,0.0,0.0,0.0,0.0,0.0,0.0,0.0,0.0,0.0,-0.233,-0.3097,-0.4957,-0.5925,-0.6017,-0.6869,-0.7372,-0.751,-0.7746,-0.7604,-0.7255,-0.7495,-0.7295,-0.681,-0.725,-0.7379,-0.7476,-0.8092,-0.8211,-0.837,-1.0208,-1.1377,0.0,0.0,0.0,0.0,0.0,0.0,0.0,0.0,0.0,0.0,0.0,0.0,0.0,0.0,0.0,0.0,0.0,0.0,0.0,0.0,0.0,1.7156,1.8916,1.8091,1.7721,1.7981,1.7435,1.6368,1.4796,1.5157,1.4501,1.2887,1.2765,1.2258,1.1487,1.131,1.0921,1.0315,1.0098,0.976,0.9352,0.8797,0.7174,0.5152,0.4373,0.4652,0.5454,0.4766,0.4922,0.5355,0.5711,0.5563,0.5425,0.5846,0.0,0.0,0.0,0.0,0.0,0.0,0.0,0.0,0.0,0.0,0.0,0.0,0.0,0.0,0.0,0.0,0.0,0.0,0.0,0.0,0.6386,0.6809,0.6962,0.6566,0.6095,0.4991,0.309,0.1849,0.1074,0.0683,0.0294,0.0,0.0,0.0,0.0,0.0,0.0088,0.0,-0.0407,-0.1152,-0.2074,-0.317,-0.4094,-0.4865,-0.5415,0.0,0.0,-0.6747,-0.7455,-0.7831,-0.7855,-0.7861,-0.7716,-0.7407,-0.7727,-0.7807,-0.7785,-0.7458,-0.7739,-0.825,-0.8003,-0.9394,-1.1326,0.0,0.0,0.0,0.0,0.0,0.0,0.0,0.0,0.0,0.0,0.0,0.0,0.0,0.0,0.0,0.0,0.0,0.0,0.0,1.9721,1.9548,2.084,1.996,1.9417,1.9325,1.8401,1.7368,1.6249,1.5948,1.5274,1.4213,1.4255,1.3751,1.2838,1.3028,1.2575,1.1694,1.1825,1.1525,1.094,1.1128,1.0527,0.9422,0.7522,0.7118,0.7507,0.7279,0.7279,0.7487,0.8282,0.8217,0.7919,0.8363,0.8298,0.7911,0.0,0.0,0.0,0.0,0.0,0.0,0.0,0.0,0.0,0.0,0.0,0.0,0.0,0.0,0.5534,0.0,0.0,0.6112,0.6795,0.696,0.7044,0.735,0.6937,0.5979,0.416,0.3375,0.2573,0.1471,0.1176,0.0678,0.0094,0.0,0.0,0.0,0.0,-0.0171,-0.0489,-0.1008,-0.169,-0.2561,-0.3436,-0.4091,-0.4546,-0.5324,-0.5747,-0.5901,-0.6777,-0.726,-0.7511,-0.7749,-0.7927,-0.7841,-0.7867,-0.7944,-0.7837,-0.7587,-0.7655,-0.7857,-0.7757,-0.8651,-0.9976,0.0,0.0,0.0,0.0,0.0,0.0,0.0,0.0,0.0,0.0,0.0,0.0,0.0,0.0,0.0,0.0,0.0,0.0,0.0,2.1972,2.2179,2.2878,2.1945,2.1281,2.1005,1.9699,1.873,1.8128,1.7081,1.6337,1.5853,1.5948,1.5515,1.4632,1.4993,1.4446,1.3253,1.3697,1.3334,1.2503,1.3337,1.3802,1.3608,1.0973,0.9771,0.952,0.9707,0.9552,0.9391,1.064,1.064,1.0173,1.0801,1.0738,1.0262,0.9411,0.9635,0.0,0.0,0.0,0.0,0.0,0.0,0.0,0.0,0.0,0.7901,0.6131,0.6076,0.6211,0.5917,0.5816,0.6136,0.7048,0.6919,0.7042,0.7977,0.745,0.6639,0.5555,0.5035,0.4097,0.2266,0.1967,0.1361,-0.0094,-0.0188,-0.0187,-0.0183,-0.0183,-0.0268,-0.059,-0.0969,-0.1409,-0.192,-0.2798,-0.3408,-0.3694,-0.441,-0.4833,-0.5046,-0.5954,-0.6564,-0.696,-0.7664,-0.8022,-0.8227,-0.7997,-0.794,-0.794,-0.794,-0.7768,-0.7577,-0.7955,-0.8332,-0.8719,0.0,0.0,0.0,0.0,0.0,0.0,0.0,0.0,0.0,0.0,0.0,0.0,0.0,0.0,0.0,0.0,0.0,0.0,2.2573,2.3818,2.4571,2.438,2.361,2.3039,2.2731,2.169,2.0527,1.9219,1.9251,1.859,1.7368,1.7368,1.7302,1.7181,1.6837,1.6311,1.579,1.6063,1.5703,1.5023,1.5152,1.5935,1.6883,1.5274,1.3761,1.249,1.1729,1.1372,1.1298,1.1174,1.095,1.0708,1.0582,1.0443,1.0187,0.9915,0.0,0.995,0.8896,0.8363,0.8214,0.8639,0.9349,0.9873,0.0,0.0,0.9979,0.8157,0.8011,0.7935,0.7076,0.7034,0.7321,0.7624,0.7631,0.7681,0.8211,0.8022,0.7885,0.7919,0.609,0.4117,0.2509,0.1906,0.1002,-0.0601,-0.07,-0.0695,-0.0682,-0.0681,-0.077,-0.0751,-0.1206,-0.1563,-0.1826,-0.1985,-0.2353,-0.3131,-0.3403,-0.3849,-0.4477,-0.536,-0.623,-0.6994,-0.7791,-0.8219,-0.8508,-0.83,-0.8201,-0.8113,-0.794,-0.7768,-0.7503,-0.7573,-0.8009,-0.8544,0.0,0.0,0.0,0.0,0.0,0.0,0.0,0.0,0.0,0.0,0.0,0.0,0.0,0.0,0.0,0.0,0.0,0.0,2.4257,2.5639,2.6447,2.6535,2.5951,2.5272,2.4406,2.362,2.2701,2.1724,2.1472,2.0934,1.9997,2.0171,2.0073,1.9736,1.923,1.8778,1.8389,1.7986,1.7654,1.739,1.7453,1.8056,1.8942,1.8489,1.7777,1.677,1.4122,1.3401,0.0,0.0,1.3009,1.2928,1.2673,1.2188,1.1717,1.1607,1.1236,0.0,1.0431,1.0601,1.0898,1.1094,1.1689,1.2011,1.1458,1.1355,1.1033,0.9692,0.9117,0.8777,0.8268,0.7803,0.7514,0.0,0.7518,0.7384,0.8079,0.816,0.8197,0.8262,0.7012,0.5494,0.3983,0.3718,0.2578,0.0183,0.0,-0.0192,-0.0772,-0.0772,-0.0865,-0.1049,-0.123,-0.1507,-0.1884,-0.1868,-0.1962,-0.2259,-0.2728,-0.3016,-0.3317,-0.446,-0.5593,-0.6599,-0.7416,-0.7823,-0.7937,-0.8113,-0.8201,-0.8201,-0.8113,-0.7856,-0.7507,-0.7323,-0.7408,-0.7753,0.0,0.0,0.0,0.0,0.0,0.0,0.0,0.0,0.0,0.0,0.0,0.0,0.0,0.0,0.0,0.0,0.0,0.0,0.0,2.6879,2.7922,2.8288,2.7705,0.0,2.6471,2.5598,2.4815,2.4146,2.36,2.3044,2.2381,2.2615,2.2513,2.2071,2.1551,2.1192,2.0914,2.0124,1.9762,1.9674,1.9564,2.0129,2.0954,2.0819,2.0427,1.9599,1.6097,1.5169,0.0,0.0,1.4519,1.4642,1.4082,1.3528,1.3048,1.2864,1.2153,1.1463,1.1799,1.221,1.26,1.2825,1.3264,1.3536,1.3114,1.2833,1.2242,1.1218,1.0599,1.0007,0.9567,0.8853,0.8524,0.8803,0.8182,0.7802,0.8489,0.8459,0.8299,0.8113,0.7551,0.6508,0.5131,0.4807,0.365,0.1144,0.0912,0.0564,-0.0096,-0.0192,-0.0385,-0.0872,-0.0867,-0.1153,-0.1924,-0.1817,-0.1812,-0.2098,-0.23,-0.2566,-0.2796,-0.4038,-0.5125,-0.6116,-0.6828,-0.7224,-0.7224,-0.7757,-0.7933,-0.7933,-0.8109,-0.794,-0.7591,-0.7408,-0.7228,-0.7228,0.0,0.0,0.0,0.0,0.0,0.0,0.0,0.0,0.0,0.0,0.0,0.0,0.0,0.0,0.0,0.0,0.0,0.0,0.0,2.7372,2.8877,2.9314,2.8324,2.8187,2.9066,2.7724,2.6688,2.6034,2.5466,2.4847,2.4138,2.4138,2.4138,2.4098,2.361,2.3402,2.336,2.2614,2.2198,2.1917,2.1293,2.2024,2.3366,2.2068,2.0941,1.977,1.7222,0.0,0.0,0.0,1.4557,1.4848,1.3994,1.3785,0.0,1.3029,1.2279,1.1791,1.2304,1.1941,1.1633,1.2308,1.2907,1.3509,1.4125,1.4321,1.4041,1.2861,1.2649,1.2167,1.0768,1.0619,1.0835,1.1068,1.0124,0.9486,0.9987,0.9197,0.8263,0.7772,0.7382,0.6554,0.0,0.4287,0.3232,0.2324,0.1631,0.1343,0.1467,0.1469,0.0987,0.0,0.0,-0.0588,-0.1865,-0.1444,-0.1811,-0.2954,-0.2334,-0.2525,-0.3426,-0.4287,-0.4931,-0.5466,-0.6166,-0.6428,-0.6517,-0.7224,-0.7404,-0.7228,-0.7933,-0.8113,-0.7856,-0.7852,-0.7584,-0.7139,0.0,0.0,0.0,0.0,0.0,0.0,0.0,0.0,0.0,0.0,0.0,0.0,0.0,0.0,0.0,0.0,0.0,0.0,0.0,2.7094,2.8103,2.8507,2.933,2.9365,2.8418,2.7941,2.7455,2.6956,2.6764,2.6462,2.6057,2.6057,2.5756,2.5178,2.4376,2.405,2.3984,2.3142,2.2933,2.3176,2.3453,2.4103,2.4665,2.289,2.2021,2.1406,0.0,0.0,0.0,0.0,1.5467,1.5748,1.4907,1.4301,1.3561,1.2108,1.2703,1.3616,1.2614,1.2733,1.331,1.412,1.4487,1.4793,1.5383,1.5151,1.462,1.3775,1.2778,1.1912,1.1086,1.0492,1.0139,1.038,0.9648,0.9406,1.0384,0.9283,0.856,0.8999,0.7716,0.0,0.0,0.0,0.0,0.2778,0.2847,0.2507,0.1595,0.148,0.1384,0.1108,0.1102,0.0499,-0.06,-0.0496,-0.0891,-0.1783,-0.2235,-0.2856,-0.3824,-0.4023,-0.424,-0.4482,-0.5188,-0.5453,-0.5542,-0.6956,-0.7489,-0.7401,-0.8204,-0.8292,-0.8113,-0.8113,-0.794,-0.7588,0.0,0.0,0.0,0.0,0.0,0.0,0.0,0.0,0.0,0.0,0.0,0.0,0.0,0.0,0.0,0.0,0.0,0.0,0.0,0.0,2.6611,2.7424,2.8265,2.816,2.6987,2.7225,2.7027,2.6414,2.6991,2.7156,2.6893,2.6891,2.6585,2.5994,2.5327,2.502,2.4936,2.4224,2.4096,2.4363,2.4295,2.4521,2.4708,2.2983,2.1951,0.0,0.0,0.0,0.0,1.5696,1.5846,1.6169,1.5499,1.4656,1.3787,1.2998,1.3672,1.4478,1.356,1.3963,1.4755,1.5389,1.57,1.5878,1.6332,1.605,1.5548,1.4725,1.3911,1.2925,1.1895,1.1117,1.0757,1.0965,1.0267,1.0002,1.1161,1.0039,0.9352,0.9807,0.8335,0.7449,0.0,0.0,0.0,0.3841,0.3785,0.3513,0.258,0.2366,0.221,0.2214,0.2217,0.1613,0.0605,0.0202,-0.0503,-0.15,-0.2195,-0.2974,-0.3786,-0.3621,-0.3631,-0.3819,-0.4345,-0.4418,-0.4504,-0.5926,-0.6422,-0.6599,-0.758,-0.7848,-0.7757,-0.8025,-0.794,-0.7768,0.0,0.0,0.0,0.0,0.0,0.0,0.0,0.0,0.0,0.0,0.0,0.0,0.0,0.0,0.0,0.0,0.0,0.0,0.0,0.0,0.0,2.6078,2.5432,2.505,2.5063,2.5726,2.5595,2.4575,2.6129,2.675,2.6491,2.6462,2.6384,2.6264,2.613,2.6005,2.5853,2.5441,2.5262,2.5106,2.3719,2.3362,2.3541,2.2346,0.0,0.0,0.0,0.0,0.0,1.5552,1.581,1.6268,1.5723,1.5008,1.4575,1.5507,1.5113,1.4521,1.5089,1.5471,1.5816,1.617,1.6541,1.6804,1.7041,1.7119,1.683,1.5611,1.5634,1.5106,0.0,0.0,1.2395,1.2581,1.1632,1.1165,1.2142,1.1392,1.0662,0.0,0.0,0.0,0.0,0.0,0.0,0.5575,0.0,0.4193,0.4278,0.3934,0.366,0.3314,0.3324,0.272,0.1714,0.0604,-0.0598,-0.1859,-0.2219,-0.2722,-0.3229,-0.2984,-0.3208,-0.3687,-0.358,-0.3464,-0.3362,-0.4274,-0.4648,-0.4736,-0.6157,-0.6779,-0.6868,-0.7584,-0.768,-0.7507,0.0,0.0,0.0,0.0,0.0,0.0,0.0,0.0,0.0,0.0,0.0,0.0,0.0,0.0,0.0,0.0,0.0,0.0,0.0,0.0,0.0,0.0,0.0,0.0,0.0,0.0,0.0,0.0,0.0,2.3968,2.3854,2.3191,2.2549,0.0,2.1665,2.1534,2.1483,2.1185,2.1295,2.1605,0.0,2.1472,2.1945,0.0,0.0,0.0,0.0,0.0,0.0,0.0,1.6576,1.7127,1.7666,1.7352,1.6565,1.5541,1.6012,1.6698,1.5679,1.6477,1.7596,1.7777,1.7954,1.8028,1.7823,1.775,1.7326,1.5825,1.4652,1.3479,0.0,0.0,0.0,1.1757,1.1094,0.0,1.2417,1.1405,0.0,1.0819,0.0,0.9681,0.9344,0.9343,0.0,0.0,0.594,0.5521,0.4951,0.4795,0.4647,0.4425,0.4431,0.3828,0.2821,0.149,0.0388,-0.0563,-0.1108,-0.1732,-0.2166,-0.2873,-0.3109,-0.3151,-0.3472,-0.3464,-0.3328,-0.4265,-0.465,-0.4739,-0.5628,-0.6428,-0.6962,-0.6428,-0.7051,-0.7937,0.0,0.0,0.0,0.0,0.0,0.0,0.0,0.0,0.0,0.0,0.0,0.0,0.0,0.0,0.0,0.0,0.0,0.0,0.0,0.0,0.0,0.0,0.0,0.0,0.0,0.0,0.0,0.0,0.0,0.0,0.0,2.1898,2.1564,2.1383,2.1292,2.1026,2.0611,0.0,0.0,0.0,0.0,0.0,0.0,0.0,0.0,0.0,0.0,0.0,0.0,0.0,0.0,1.8183,1.9356,1.8998,1.7986,1.7367,1.7511,1.7781,1.7273,1.8002,1.8883,1.8947,1.9094,1.9075,1.8275,1.8064,1.7628,1.5724,1.4624,1.3523,1.2087,1.064,0.0,0.0,0.0,0.0,1.2176,1.1478,1.0959,0.0,1.0844,0.0,1.0789,1.0441,0.9697,0.0,0.7132,0.5999,0.5077,0.4931,0.4905,0.4828,0.4834,0.4214,0.2988,0.2247,0.1334,0.0277,-0.0092,-0.0453,-0.0895,-0.1702,-0.203,-0.2064,0.0,-0.3089,-0.2842,-0.3717,-0.403,-0.3941,-0.4652,-0.5272,-0.5628,-0.5453,-0.5985,-0.6694,0.0,0.0,0.0,0.0,0.0,0.0,0.0,0.0,0.0,0.0,0.0,0.0,0.0,0.0,0.0,0.0,0.0,0.0,0.0,0.0,0.0,0.0,0.0,0.0,0.0,0.0,0.0,0.0,0.0,0.0,0.0,0.0,0.0,0.0,0.0,0.0,0.0,0.0,0.0,0.0,0.0,0.0,0.0,0.0,0.0,0.0,0.0,0.0,0.0,0.0,2.0131,1.9371,2.0898,2.0397,1.9297,1.9754,1.921,1.8543,1.9005,1.9606,2.0015,1.9798,2.0072,2.012,1.8751,1.8471,1.7879,1.5764,1.506,1.4272,1.2437,1.1247,1.0885,1.1948,0.0,1.0914,1.1543,1.1508,1.1484,1.1621,1.1375,1.1293,1.1959,1.1119,1.0418,1.0156,0.839,0.6737,0.536,0.5089,0.4975,0.4824,0.4724,0.4178,0.2834,0.2874,0.2255,0.1013,0.0905,0.0717,0.0537,-0.0179,-0.0609,-0.0826,0.0,0.0,-0.2234,-0.2628,-0.2869,-0.2873,-0.3494,-0.376,-0.4028,-0.4563,-0.4832,-0.5008,0.0,0.0,0.0,0.0,0.0,0.0,0.0,0.0,0.0,0.0,2.5114,0.0,0.0,0.0,0.0,0.0,0.0,0.0,0.0,0.0,0.0,0.0,0.0,0.0,0.0,0.0,0.0,0.0,0.0,0.0,0.0,0.0,0.0,0.0,0.0,0.0,0.0,0.0,0.0,0.0,0.0,0.0,0.0,0.0,0.0,0.0,0.0,0.0,0.0,0.0,2.0713,2.0523,2.2831,2.2555,2.1235,2.038,2.0216,2.0092,1.9018,1.9981,2.1247,2.0708,2.1231,2.1509,2.0362,1.9701,0.0,0.0,1.4912,1.3827,1.3359,1.2357,1.1899,1.2587,1.2349,1.1732,1.0734,1.1326,1.1652,0.0,1.1599,1.2304,1.2617,0.0,0.0,0.0,0.0,0.9789,0.8527,0.7372,0.6145,0.4832,0.4565,0.4199,0.3738,0.3476,0.3037,0.2527,0.1887,0.1614,0.1524,0.0627,-0.0089,-0.0706,0.0,0.0,-0.212,-0.1248,-0.1523,-0.2603,-0.2512,-0.3227,-0.4119,-0.3497,-0.4119,-0.5181,0.0,0.0,0.0,0.0,0.0,0.0,0.0,0.0,0.0,0.0,2.4542,2.454,0.0,0.0,0.0,0.0,0.0,0.0,0.0,0.0,0.0,0.0,0.0,0.0,0.0,0.0,0.0,0.0,0.0,0.0,0.0,0.0,0.0,0.0,0.0,0.0,0.0,0.0,0.0,0.0,0.0,0.0,0.0,0.0,0.0,0.0,0.0,0.0,0.0,0.0,2.0445,2.1105,2.3538,2.3623,2.2515,2.0979,2.0871,2.098,1.9779,2.0801,2.2056,2.1576,2.1942,2.1897,1.9818,0.0,0.0,1.5393,1.3995,1.307,1.2772,1.201,0.0,1.3519,1.3182,1.2811,1.3052,1.2766,0.0,1.1974,1.2109,1.2312,0.0,0.0,0.0,0.0,0.0,1.0499,0.9265,0.8133,0.6952,0.5829,0.5479,0.4899,0.391,0.3923,0.357,0.2875,0.2513,0.2423,0.2511,0.1523,0.1075,0.0985,0.0537,0.0,-0.0597,-0.0176,-0.0527,-0.1454,-0.1327,-0.206,-0.3138,-0.2693,-0.3229,-0.403,0.0,0.0,0.0,0.0,0.0,0.0,0.0,2.4996,2.4647,2.385,2.37,2.342,2.2799,2.2318,2.1976,0.0,0.0,0.0,0.0,0.0,0.0,0.0,0.0,0.0,0.0,0.0,0.0,1.6692,0.0,0.0,0.0,0.0,0.0,0.0,0.0,0.0,0.0,0.0,0.0,0.0,0.0,0.0,0.0,0.0,0.0,0.0,0.0,0.0,0.0,0.0,2.0167,2.1322,2.3382,2.3392,2.2508,2.1312,2.1068,2.1121,2.0702,2.1497,2.2443,2.2399,2.2541,2.2074,1.9428,1.8506,0.0,1.4409,1.3294,1.272,1.2335,1.1873,1.2204,0.0,1.3953,1.3753,1.5191,1.415,1.3299,0.0,1.3051,0.0,0.0,0.0,0.0,0.0,0.0,0.0,0.9555,0.8777,0.7879,0.6985,0.6568,0.5688,0.4261,0.4266,0.3917,0.3141,0.2963,0.2962,0.3138,0.2422,0.2241,0.2418,0.1522,0.0,0.0,0.0958,0.0517,-0.0163,-0.0262,-0.0896,-0.1793,-0.1973,-0.2244,-0.2604,0.0,0.0,0.0,0.0,0.0,0.0,0.0,2.4454,2.3755,2.3004,2.2346,2.1901,2.1838,2.2459,2.2563,0.0,0.0,0.0,0.0,0.0,0.0,0.0,0.0,0.0,0.0,0.0,0.0,1.6694,1.5828,0.0,0.0,0.0,0.0,0.0,0.0,0.0,0.0,0.0,0.0,0.0,0.0,0.0,0.0,0.0,0.0,0.0,0.0,0.0,0.0,0.0,0.0,2.109,2.2076,2.1183,2.0015,2.1234,0.0,0.0,2.1574,2.1958,2.2215,2.2987,2.3052,2.2477,2.0858,0.0,1.8542,1.5216,1.3845,1.3275,1.3524,1.3342,1.3647,1.5141,0.0,1.4252,1.4455,1.4379,1.4372,1.4336,0.0,0.0,0.0,0.0,0.0,0.0,0.0,0.0,1.0676,1.0565,0.9506,0.7437,0.6991,0.6386,0.5361,0.4443,0.3857,0.376,0.323,0.2875,0.2963,0.3048,0.2777,0.2238,0.0,0.0,0.0,0.2443,0.2068,0.0734,0.0437,0.0,-0.0626,-0.1255,-0.1525,-0.1615,0.0,0.0,0.0,0.0,0.0,0.0,0.0,2.4815,2.4372,2.363,2.3273,2.2914,2.2475,2.2726,2.2615,0.0,0.0,0.0,0.0,0.0,0.0,0.0,0.0,0.0,0.0,0.0,0.0,0.0,0.0,0.0,0.0,0.0,0.0,0.0,0.0,1.6641,0.0,0.0,0.0,0.0,0.0,0.0,0.0,0.0,0.0,0.0,0.0,0.0,1.8568,0.0,0.0,0.0,1.9567,1.8922,0.0,0.0,2.0547,2.0885,2.0641,2.2079,2.3621,2.334,2.385,2.3549,2.061,0.0,1.8416,1.5153,1.4008,1.3471,1.3011,1.3201,1.3796,1.4956,0.0,0.0,1.7113,1.637,1.586,1.6526,1.6288,0.0,0.0,0.0,0.0,0.0,0.0,0.0,1.2027,1.1545,1.066,0.904,0.8404,0.7414,0.5896,0.5597,0.5184,0.4825,0.4502,0.4242,0.3939,0.3978,0.3631,0.3227,0.0,0.0,0.0,0.3605,0.3201,0.2078,0.2066,0.1254,0.009,0.0269,-0.0448,-0.1345,0.0,0.0,0.0,0.0,0.0,0.0,2.4832,2.4953,2.474,2.4062,2.3765,2.3328,2.2574,2.2255,2.1874,2.1308,0.0,0.0,0.0,0.0,0.0,0.0,0.0,0.0,0.0,0.0,0.0,0.0,0.0,0.0,0.0,0.0,1.5676,1.6265,0.0,0.0,0.0,0.0,0.0,0.0,0.0,0.0,0.0,0.0,0.0,0.0,0.0,0.0,0.0,0.0,0.0,0.0,1.8233,0.0,0.0,0.0,2.0167,2.1221,2.0665,2.2464,2.438,2.4006,2.399,2.3275,0.0,0.0,1.779,1.4982,1.4129,1.3674,1.2812,1.3066,1.3795,0.0,0.0,1.6124,1.8695,1.7918,1.7413,0.0,0.0,0.0,0.0,0.0,0.0,0.0,0.0,0.0,0.0,1.2598,1.1526,1.0301,0.9767,0.8659,0.7015,0.6739,0.6422,0.5977,0.5629,0.5231,0.4776,0.4769,0.4586,0.4316,0.0,0.0,0.0,0.4267,0.3861,0.328,0.3178,0.2419,0.1254,0.1522,0.0806,-0.0269,0.0,0.0,0.0,0.0,0.0,0.0,0.0,2.4579,2.4506,2.3968,2.3208,2.2411,2.1589,2.0742,2.0229,2.0227,0.0,0.0,0.0,0.0,0.0,0.0,0.0,0.0,0.0,0.0,0.0,0.0,0.0,0.0,0.0,0.0,0.0,0.0,0.0,0.0,0.0,0.0,0.0,0.0,0.0,0.0,0.0,0.0,0.0,0.0,0.0,0.0,0.0,0.0,0.0,0.0,0.0,0.0,0.0,0.0,1.9489,2.067,2.2233,2.3128,2.3919,2.5148,2.3318,2.0914,0.0,1.8602,1.6854,1.4821,1.4269,1.3988,1.3314,1.3399,1.4031,1.5392,1.6164,0.0,1.7981,1.8401,0.0,0.0,0.0,0.0,0.0,0.0,0.0,0.0,0.0,0.0,0.0,1.3896,1.2398,1.0764,1.0672,1.0099,0.8894,0.7654,0.7214,0.7489,0.6248,0.5529,0.5103,0.5341,0.5341,0.0,0.0,0.0,0.0,0.4493,0.4226,0.4005,0.3409,0.3227,0.3047,0.2418,0.2149,0.2059,0.0,0.0,0.0,0.0,0.0,0.0,0.0,2.4026,2.4115,2.4054,2.3805,2.3592,2.336,2.314,2.2571,2.1454,0.0,0.0,0.0,0.0,0.0,0.0,0.0,0.0,0.0,0.0,0.0,0.0,0.0,0.0,0.0,0.0,0.0,0.0,0.0,0.0,0.0,0.0,0.0,0.0,0.0,0.0,0.0,0.0,0.0,0.0,0.0,0.0,0.0,0.0,0.0,0.0,0.0,0.0,0.0,0.0,0.0,1.9994,2.0482,2.1676,2.2791,2.2675,2.2232,2.1249,1.9121,1.8203,1.7186,1.5279,1.4926,1.4743,1.4071,1.4281,1.4996,1.6322,1.6798,0.0,0.0,0.0,0.0,0.0,0.0,0.0,0.0,0.0,0.0,0.0,0.0,0.0,0.0,1.508,1.4255,1.3103,1.1328,1.0394,1.0356,0.9323,0.8894,0.8894,0.8245,0.7548,0.6784,0.6689,0.0,0.0,0.0,0.0,0.0,0.5397,0.5067,0.4622,0.4525,0.3978,0.3226,0.3492,0.3044,0.2238,0.0,0.0,0.0,0.0,0.0,0.0,0.0,2.3533,2.3697,2.3762,2.3545,2.3418,2.3418,2.3143,2.2447,2.1185,0.0,0.0,0.0,0.0,0.0,0.0,0.0,0.0,0.0,0.0,0.0,0.0,0.0,0.0,0.0,0.0,0.0,0.0,0.0,0.0,0.0,0.0,0.0,0.0,0.0,0.0,1.9731,0.0,0.0,0.0,0.0,0.0,0.0,0.0,0.0,0.0,0.0,0.0,0.0,0.0,1.8277,1.9391,1.9512,2.0978,2.2352,2.2082,2.1568,0.0,1.9039,1.8113,1.718,1.578,1.6019,1.6115,1.4832,1.5437,1.6143,1.6273,1.7262,1.8635,0.0,0.0,0.0,0.0,0.0,0.0,0.0,0.0,0.0,0.0,0.0,0.0,0.0,1.5503,1.4965,1.4925,1.2389,1.1203,1.1383,1.0626,1.0254,1.0167,0.9942,0.9322,0.8304,0.8205,0.0,0.0,0.0,0.0,0.0,0.5987,0.5685,0.5245,0.5183,0.472,0.4076,0.4376,0.3939,0.331,0.0,0.0,0.0,0.0,0.0,0.0,0.0,0.0,0.0,0.0,2.2643,2.2252,2.2128,2.1356,2.0566,0.0,0.0,0.0,0.0,0.0,0.0,0.0,0.0,0.0,0.0,0.0,0.0,0.0,1.6597,1.646,1.5686,0.0,0.0,0.0,0.0,0.0,0.0,0.0,0.0,0.0,0.0,0.0,0.0,0.0,0.0,0.0,0.0,0.0,0.0,0.0,0.0,0.0,0.0,0.0,0.0,0.0,0.0,0.0,0.0,2.0712,2.2197,2.2762,2.1181,1.9527,1.9513,1.8233,0.0,1.6436,1.7503,1.7872,1.5753,1.6877,1.7467,1.5614,1.7733,1.9315,0.0,1.9681,0.0,0.0,0.0,0.0,0.0,0.0,0.0,0.0,0.0,0.0,0.0,1.5567,1.494,1.6093,1.3756,1.2432,1.2154,1.173,1.1427,1.1227,1.1335,1.0677,0.9486,0.9767,0.0,0.0,0.0,0.0,0.0,0.6217,0.6022,0.596,0.5485,0.536,0.5548,0.5046,0.4903,0.5075,0.0,0.0,0.0,0.0,0.0,0.0,0.0,0.0,0.0,0.0,2.2332,2.2255,2.2332,2.2176,2.1804,0.0,0.0,0.0,0.0,0.0,0.0,0.0,0.0,0.0,0.0,0.0,0.0,1.6471,1.6602,1.6575,1.637,1.6884,0.0,0.0,0.0,0.0,0.0,0.0,0.0,0.0,0.0,0.0,0.0,0.0,0.0,0.0,1.8848,1.8613,0.0,0.0,0.0,0.0,0.0,0.0,0.0,0.0,1.7862,1.8067,1.8186,0.0,1.9872,2.0016,1.9395,1.8683,0.0,1.7909,1.7681,1.8649,1.8765,1.8549,1.8214,1.898,1.9164,1.7579,1.9277,2.0813,2.073,0.0,0.0,0.0,0.0,0.0,0.0,0.0,0.0,0.0,0.0,0.0,0.0,1.7797,1.6785,1.6022,1.4774,1.3755,1.3087,1.246,1.1963,1.1548,1.1715,1.131,1.039,1.0499,0.0,0.0,0.0,0.0,0.8196,0.7615,0.7163,0.6936,0.6805,0.6569,0.6238,0.6102,0.6114,0.6126,0.0,0.0,0.0,0.0,0.0,0.0,0.0,0.0,0.0,0.0,0.0,0.0,0.0,0.0,0.0,0.0,0.0,0.0,0.0,0.0,0.0,0.0,0.0,0.0,0.0,0.0,0.0,0.0,0.0,1.6834,0.0,0.0,0.0,0.0,0.0,0.0,0.0,0.0,0.0,0.0,1.9386,0.0,0.0,0.0,0.0,0.0,1.8745,1.8553,0.0,1.8305,1.845,1.8556,0.0,0.0,0.0,0.0,1.7876,1.7896,1.8255,1.872,1.9208,1.9724,1.9305,1.8959,1.9679,1.9262,1.9086,2.0533,2.0686,2.0463,2.0005,2.0408,2.0503,1.942,2.0337,0.0,0.0,0.0,0.0,0.0,0.0,0.0,0.0,0.0,0.0,0.0,0.0,0.0,0.0,1.8291,1.7299,1.6346,1.5477,1.4566,1.3466,1.3092,1.2552,1.188,1.2545,1.2271,1.1191,1.1538,1.1432,0.0,0.0,0.0,0.9089,0.8546,0.8064,0.7613,0.7369,0.7234,0.7001,0.674,0.6764,0.6774,0.0,0.0,0.0,0.0,0.0,0.0,0.0,0.0,0.0,0.0,0.0,0.0,0.0,0.0,0.0,0.0,0.0,0.0,0.0,0.0,0.0,0.0,0.0,0.0,0.0,0.0,0.0,0.0,0.0,0.0,0.0,0.0,0.0,0.0,0.0,0.0,0.0,0.0,0.0,0.0,1.9106,0.0,0.0,0.0,0.0,0.0,0.0,0.0,0.0,1.8305,1.8372,1.8425,1.8319,0.0,0.0,0.0,0.0,0.0,1.876,1.9075,1.9474,2.0554,1.9933,1.96,2.1599,2.1032,2.0614,2.2317,2.2895,2.276,2.1695,2.2073,0.0,0.0,0.0,0.0,0.0,0.0,0.0,0.0,0.0,0.0,0.0,0.0,0.0,0.0,0.0,0.0,0.0,1.8506,1.7697,1.674,1.6192,1.5251,1.3912,1.3848,1.3287,1.2277,1.3445,1.3288,1.1959,1.2674,1.2772,0.0,0.0,0.0,0.9942,0.9378,0.892,0.8385,0.7841,0.7807,0.7886,0.7388,0.7271,0.743,0.0,0.0,0.0,0.0,0.0,0.0,0.0,0.0,0.0,0.0,0.0,0.0,0.0,0.0,0.0,0.0,0.0,0.0,0.0,0.0,0.0,0.0,0.0,0.0,0.0,0.0,0.0,0.0,0.0,0.0,1.8247,1.748,1.6642,0.0,0.0,0.0,0.0,0.0,0.0,0.0,0.0,0.0,0.0,0.0,0.0,0.0,0.0,0.0,0.0,1.8305,1.8305,1.8319,1.8121,0.0,0.0,0.0,0.0,0.0,1.8679,1.9208,1.9924,2.1169,2.0237,1.9666,2.2193,2.1407,2.1143,2.4442,2.4727,2.434,0.0,2.572,2.5708,0.0,0.0,0.0,0.0,0.0,0.0,0.0,0.0,0.0,0.0,0.0,0.0,0.0,0.0,0.0,0.0,0.0,1.9825,1.7379,1.7028,1.6507,1.5587,1.5455,1.478,1.3605,1.4385,1.4104,1.3051,1.3626,1.3889,0.0,0.0,1.2159,1.1729,1.0901,1.0363,1.0052,0.9468,0.9296,0.9219,0.863,0.8408,0.8331,0.0,0.0,0.0,0.0,0.0,0.0,0.0,0.0,0.0,0.0,0.0,0.0,0.0,0.0,0.0,0.0,0.0,0.0,0.0,0.0,0.0,0.0,0.0,0.0,0.0,0.0,0.0,0.0,0.0,1.8314,1.8207,1.6936,1.6151,1.5858,0.0,0.0,0.0,0.0,0.0,0.0,0.0,0.0,0.0,0.0,0.0,0.0,0.0,0.0,0.0,0.0,1.8305,1.8279,1.8016,0.0,0.0,0.0,0.0,0.0,1.9055,1.9608,2.05,2.2437,2.1226,2.0491,2.4457,2.3223,2.2425,0.0,0.0,0.0,0.0,0.0,2.5897,2.4629,0.0,0.0,0.0,0.0,0.0,0.0,0.0,0.0,0.0,0.0,0.0,0.0,0.0,0.0,0.0,0.0,2.1046,1.8643,1.887,1.8469,1.7345,1.7453,1.6431,1.4378,1.5049,1.4947,1.4288,1.4569,1.4805,1.493,0.0,1.3128,1.2678,1.2018,1.1384,1.0831,1.0532,1.0312,0.9992,0.9306,0.8998,0.8846,0.0,0.0,0.0,0.0,0.0,0.0,0.0,0.0,0.0,0.0,0.0,0.0,0.0,0.0,0.0,0.0,0.0,0.0,0.0,0.0,0.0,0.0,0.0,0.0,0.0,0.0,1.854,1.7933,1.8052,1.7959,1.7707,1.6497,1.5918,0.0,0.0,0.0,0.0,0.0,0.0,0.0,0.0,0.0,0.0,0.0,0.0,0.0,0.0,0.0,0.0,0.0,0.0,0.0,0.0,0.0,0.0,1.8755,1.8852,1.8767,1.9638,2.0232,2.1105,2.3305,2.1924,2.1356,2.6472,2.4785,0.0,0.0,0.0,0.0,0.0,2.6396,0.0,2.7508,0.0,0.0,0.0,0.0,0.0,0.0,0.0,0.0,0.0,0.0,0.0,0.0,0.0,0.0,0.0,0.0,2.2067,2.0053,2.0398,2.0139,1.9121,1.9156,1.7863,1.5354,1.5748,1.573,1.5331,1.5452,1.5614,1.5811,1.5034,1.4391,1.3732,1.3292,1.2579,1.1632,1.1477,1.1105,1.0582,0.9836,0.944,0.9135,0.0,0.0,0.0,0.0,0.0,0.0,0.0,0.0,0.0,0.0,0.0,0.0,0.0,0.0,0.0,0.0,0.0,0.0,0.0,0.0,0.0,0.0,0.0,0.0,0.0,1.7368,1.7679,1.7812,1.7812,1.7603,1.7143,1.681,1.6113,1.5176,0.0,0.0,0.0,0.0,0.0,1.5446,0.0,0.0,0.0,0.0,0.0,0.0,0.0,0.0,0.0,0.0,0.0,0.0,0.0,0.0,1.7977,1.8865,1.9417,1.9917,2.0486,2.1026,2.1695,2.286,2.1816,2.1851,2.7092,2.5069,0.0,2.7886,0.0,0.0,0.0,2.8637,2.8263,2.8843,0.0,0.0,0.0,0.0,0.0,0.0,0.0,0.0,0.0,0.0,0.0,0.0,0.0,0.0,0.0,0.0,0.0,2.1031,2.0835,2.0824,2.0887,2.0139,1.8793,1.6917,1.6636,1.6289,1.5974,1.6312,1.6712,1.7009,1.6884,1.637,1.5495,1.5174,1.4347,1.3266,1.2725,1.1916,1.1007,1.0525,1.0002,0.9394,0.0,0.0,0.0,0.0,0.0,0.0,0.0,0.0,0.0,0.0,0.0,0.0,0.0,0.0,0.0,0.0,0.0,0.0,0.0,0.0,0.0,0.0,0.0,1.4676,1.4613,1.6731,1.7854,1.8001,1.7526,1.7049,1.6583,1.5678,0.0,0.0,0.0,0.0,0.0,0.0,1.3163,1.3073,1.3398,0.0,0.0,0.0,0.0,0.0,0.0,0.0,0.0,0.0,1.8108,1.8279,1.8109,1.8083,1.8315,1.9461,2.0133,2.0584,2.0932,2.1495,2.2366,2.3703,2.2862,2.2937,2.7654,2.6636,2.5924,3.0189,2.8677,0.0,0.0,0.0,2.9867,0.0,0.0,0.0,0.0,0.0,0.0,0.0,0.0,0.0,0.0,0.0,0.0,0.0,0.0,0.0,0.0,0.0,0.0,2.1776,2.2175,2.199,2.1112,2.0962,2.0429,1.9378,1.8757,1.824,1.7891,1.7693,1.7432,1.7119,1.6899,1.6617,1.6236,1.6289,1.5877,1.518,1.4235,1.331,1.2512,1.1713,1.0973,1.0318,0.0,0.0,0.0,0.0,0.0,0.0,0.0,0.0,0.0,0.0,0.0,0.0,0.0,0.0,0.0,0.0,0.0,0.0,0.0,0.0,0.0,0.0,0.0,1.3478,1.3798,1.5775,1.6943,1.7223,1.701,1.6782,1.6542,0.0,0.0,0.0,0.0,0.0,0.0,0.0,1.235,1.2494,1.2934,1.3125,0.0,0.0,0.0,0.0,0.0,0.0,0.0,0.0,1.7908,1.8201,1.8016,1.8069,1.8383,1.9724,2.0344,2.0782,2.141,2.1895,2.266,2.4368,2.3724,2.3967,2.8573,2.7875,2.7334,3.0944,3.0045,2.8373,2.7674,0.0,0.0,0.0,0.0,0.0,0.0,0.0,0.0,0.0,0.0,0.0,0.0,0.0,0.0,0.0,0.0,0.0,0.0,0.0,0.0,0.0,2.3037,2.2836,2.1827,2.1854,2.1717,2.153,2.0741,2.0042,1.9431,1.9013,1.8613,1.8162,1.7687,1.7413,1.7276,1.7207,1.6862,1.6446,1.5666,1.4966,1.4235,1.3199,1.248,1.1783,0.0,0.0,0.0,0.0,0.0,0.0,0.0,0.0,0.0,0.0,0.0,0.0,0.0,0.0,0.0,0.0,0.0,0.0,0.0,0.0,0.0,0.0,0.0,1.3454,1.4852,1.442,1.4554,1.5311,1.6216,1.6863,1.7173,1.682,0.0,0.0,0.0,0.0,0.0,0.0,1.2497,1.4413,1.3542,1.4105,1.5457,0.0,0.0,0.0,0.0,0.0,0.0,0.0,1.7612,1.7948,1.7598,0.0,0.0,1.9567,1.9964,2.0371,2.2005,2.2169,2.244,2.4578,2.4304,2.4846,2.9891,2.8489,2.6902,2.9571,3.1768,3.2583,3.0587,0.0,0.0,0.0,0.0,0.0,0.0,0.0,0.0,0.0,0.0,0.0,0.0,0.0,0.0,0.0,0.0,0.0,0.0,0.0,0.0,0.0,2.3178,2.3198,2.339,2.2726,2.2665,2.3078,2.2494,2.1526,2.0333,2.0333,2.0344,2.0355,1.9628,1.909,1.868,1.8027,1.7423,1.6932,1.6932,1.6655,1.62,1.5089,1.4459,1.3811,0.0,0.0,0.0,0.0,0.0,0.0,0.0,0.0,0.0,0.0,0.0,0.0,0.0,0.0,0.0,0.0,0.0,0.0,0.0,0.0,0.0,0.0,0.0,0.0,0.0,0.0,1.4458,1.4958,1.5199,1.5141,0.0,0.0,0.0,1.3386,0.0,0.0,0.0,0.0,1.2933,1.3286,1.3212,1.3464,1.3971,0.0,0.0,0.0,0.0,0.0,0.0,0.0,0.0,0.0,1.8042,0.0,1.8737,2.1698,2.201,2.1955,2.4409,2.4265,2.3743,2.4946,2.529,2.5749,0.0,2.8168,0.0,0.0,3.1837,3.1742,3.0194,0.0,0.0,0.0,0.0,0.0,0.0,0.0,0.0,0.0,0.0,0.0,0.0,0.0,0.0,0.0,0.0,0.0,0.0,0.0,0.0,0.0,2.3797,2.4008,2.3952,2.3748,2.3662,2.378,2.3125,2.2322,2.1428,2.1428,2.1112,2.0526,2.0386,2.0193,1.989,1.9966,1.9607,1.9038,1.8593,1.7734,1.6693,1.5757,1.4732,1.3788,0.0,0.0,0.0,0.0,0.0,0.0,0.0,0.0,0.0,0.0,0.0,0.0,0.0,0.0,0.0,0.0,0.0,0.0,0.0,0.0,0.0,0.0,0.0,0.0,0.0,1.3058,1.3848,0.0,0.0,0.0,0.0,0.0,0.0,1.3496,0.0,1.3876,0.0,0.0,1.347,1.3755,1.3486,1.3715,1.4272,0.0,0.0,0.0,0.0,0.0,0.0,0.0,0.0,0.0,1.7801,1.833,1.9336,2.1783,2.2398,2.2876,2.5359,2.5337,2.5109,2.709,2.6887,2.642,2.7364,0.0,0.0,0.0,3.266,3.2273,3.1099,0.0,0.0,0.0,0.0,0.0,0.0,0.0,0.0,0.0,0.0,0.0,0.0,0.0,0.0,0.0,0.0,0.0,0.0,0.0,0.0,0.0,2.4293,2.4395,2.4532,2.4506,2.4452,2.4452,2.4047,2.3623,2.3182,2.2604,2.2063,2.1491,2.129,2.091,2.0431,2.0764,2.0688,2.0322,1.9987,1.9168,1.8022,1.71,1.6034,1.493,0.0,0.0,0.0,0.0,0.0,0.0,0.0,0.0,0.0,0.0,0.0,0.0,0.0,0.0,0.0,0.0,0.0,0.0,0.0,0.0,0.0,0.0,0.0,0.0,0.0,0.0,0.0,0.0,0.0,0.0,0.0,0.0,1.5095,1.4954,0.0,1.454,1.4735,1.3806,1.4081,1.5074,1.3988,1.4351,1.5558,1.488,0.0,0.0,0.0,0.0,0.0,0.0,0.0,0.0,1.7157,1.8405,1.9905,2.0684,2.1916,2.3534,2.5597,2.5895,2.6421,2.9859,2.8547,2.7082,2.961,3.0024,3.0631,3.3385,0.0,3.351,3.2796,0.0,0.0,0.0,0.0,0.0,0.0,0.0,0.0,0.0,0.0,0.0,0.0,0.0,0.0,0.0,0.0,0.0,0.0,0.0,0.0,0.0,2.491,2.4654,2.5149,2.5092,2.5077,0.0,2.5021,2.5063,2.5119,2.3813,2.3138,2.2909,2.2322,2.1553,2.0677,2.1008,2.1146,2.1146,2.1135,2.0666,1.9761,1.8768,1.779,1.6752,0.0,0.0,0.0,0.0,0.0,0.0,0.0,0.0,0.0,0.0,0.0,0.0,0.0,0.0,0.0,0.0,0.0,0.0,0.0,0.0,0.0,0.0,0.0,0.0,0.0,0.0,0.0,0.0,0.0,0.0,0.0,0.0,0.0,1.4693,0.0,1.4896,1.4782,1.424,1.4116,1.4212,1.3286,1.3467,1.4398,1.4247,1.4766,0.0,0.0,0.0,0.0,0.0,0.0,0.0,1.7352,1.8031,1.9313,2.2292,2.3764,2.5089,2.8196,2.8014,2.7081,2.7582,2.7569,2.8494,3.2681,3.3119,3.2964,3.4007,3.334,3.282,0.0,0.0,0.0,0.0,0.0,0.0,0.0,0.0,0.0,0.0,0.0,0.0,0.0,0.0,0.0,0.0,0.0,0.0,0.0,0.0,0.0,2.6894,2.6278,2.5952,2.6097,2.5856,2.5715,0.0,2.5245,2.5007,2.5007,2.4337,2.378,2.3283,2.3339,2.316,2.2763,2.3088,2.304,2.2775,2.2002,2.1002,1.9887,1.913,1.8023,1.6764,0.0,0.0,0.0,0.0,0.0,0.0,0.0,0.0,0.0,0.0,0.0,0.0,0.0,0.0,0.0,0.0,0.0,0.0,0.0,0.0,0.0,0.0,0.0,0.0,0.0,0.0,0.0,0.0,0.0,0.0,0.0,0.0,0.0,1.5144,0.0,1.5459,1.5353,1.5143,1.5037,1.4892,1.3941,1.4258,1.5209,1.4582,1.4994,1.5856,1.5691,0.0,0.0,0.0,0.0,0.0,0.0,0.0,1.999,2.2173,2.3677,2.5208,2.7745,2.8363,2.8396,2.8731,2.995,3.1499,3.327,3.4223,3.4857,3.5143,3.4134,0.0,0.0,0.0,0.0,0.0,0.0,0.0,0.0,0.0,0.0,0.0,0.0,0.0,0.0,0.0,0.0,0.0,0.0,0.0,0.0,2.8436,2.7999,2.7764,2.701,2.6703,2.6981,2.668,2.6539,2.6539,2.6096,2.5701,2.5425,2.4964,2.4509,2.4163,2.4253,2.4195,2.393,2.4195,2.3992,2.3438,2.3141,2.2097,2.0686,2.0061,1.8937,1.7688,0.0,0.0,0.0,0.0,0.0,0.0,0.0,0.0,0.0,0.0,0.0,0.0,0.0,0.0,0.0,0.0,0.0,0.0,0.0,0.0,0.0,0.0,0.0,0.0,0.0,0.0,0.0,0.0,0.0,0.0,0.0,0.0,0.0,1.612,0.0,1.6069,1.5932,1.5891,1.586,1.5812,1.4949,1.5355,1.6405,1.5289,1.5457,1.6225,1.5856,1.6107,1.6642,1.6938,0.0,0.0,0.0,0.0,2.068,2.1396,2.302,2.4972,2.6516,2.8056,2.948,3.0634,3.2344,0.0,3.3063,3.4426,3.5931,3.6353,3.5368,0.0,0.0,0.0,0.0,0.0,0.0,0.0,0.0,0.0,0.0,0.0,0.0,0.0,0.0,0.0,0.0,0.0,0.0,0.0,2.951,2.8697,2.8419,2.8872,2.781,2.7397,2.7795,2.7509,2.7321,2.7181,2.6937,2.6496,2.5994,2.5574,2.5218,2.4966,2.5078,2.4924,2.4697,2.4966,2.4583,2.3901,2.4191,2.3299,2.1694,2.1223,2.0157,1.8943,0.0,0.0,0.0,0.0,0.0,0.0,0.0,0.0,0.0,0.0,0.0,0.0,0.0,0.0,0.0,0.0,0.0,0.0,0.0,0.0,0.0,0.0,0.0,0.0,0.0,0.0,0.0,0.0,0.0,0.0,0.0,0.0,0.0,1.7852,0.0,0.0,1.5808,1.535,1.525,1.5355,1.5107,1.5389,1.5932,1.5856,1.602,1.6312,1.6491,1.6778,1.7102,1.7242,1.7489,0.0,0.0,0.0,1.9796,2.1168,2.3297,2.5534,2.7082,2.8112,2.9063,3.0253,3.011,3.0532,0.0,0.0,3.4871,0.0,0.0,0.0,0.0,0.0,0.0,0.0,0.0,0.0,0.0,0.0,0.0,0.0,0.0,0.0,0.0,0.0,0.0,0.0,0.0,0.0,3.1188,3.0887,3.0754,3.0835,2.9691,2.8902,2.8543,2.8304,2.783,2.7181,2.6937,2.6681,2.6411,2.6347,2.5911,2.5175,2.5728,2.5673,2.5273,2.5577,2.5439,2.494,2.4857,2.385,2.2459,2.2498,2.1433,1.9965,0.0,0.0,0.0,0.0,0.0,0.0,0.0,0.0,0.0,0.0,0.0,0.0,0.0,0.0,0.0,0.0,0.0,0.0,0.0,0.0,0.0,0.0,1.3621,0.0,0.0,0.0,0.0,0.0,0.0,0.0,1.9095,1.9095,1.8781,0.0,0.0,0.0,0.0,1.669,1.6596,1.6044,1.5812,1.5988,1.638,1.602,1.6163,1.6522,1.6448,1.6905,1.7557,1.7585,1.7948,1.8383,1.8422,0.0,0.0,0.0,2.259,2.4745,2.7602,2.7763,2.7794,3.0872,3.0284,2.9898,3.3543,3.3873,3.3921,0.0,0.0,0.0,0.0,0.0,0.0,0.0,0.0,0.0,0.0,0.0,0.0,0.0,0.0,0.0,0.0,0.0,0.0,0.0,0.0,3.1216,3.1648,3.1001,3.0555,3.0555,2.9939,2.9512,2.9332,2.9042,2.842,2.7415,2.7337,2.6988,2.6365,2.6458,2.6188,2.5635,2.5792,2.5633,2.5292,2.5517,2.5164,2.4611,2.4647,2.3929,2.2881,2.2797,2.2083,2.1086,0.0,0.0,0.0,0.0,0.0,0.0,0.0,0.0,0.0,0.0,0.0,0.0,0.0,0.0,0.0,0.0,0.0,0.0,0.0,0.0,0.0,1.3834,1.3845,1.3897,1.4059,0.0,0.0,0.0,0.0,1.7017,1.9397,1.9673,1.9371,0.0,1.956,1.9005,0.0,0.0,0.0,1.7193,1.6961,0.0,0.0,0.0,1.6349,1.6688,1.6417,1.6934,1.7787,1.7787,1.8279,1.8836,1.8822,1.9236,0.0,0.0,0.0,2.4175,2.7244,2.708,2.6897,3.044,2.9717,2.8935,0.0,0.0,3.2491,0.0,0.0,0.0,0.0,0.0,0.0,0.0,0.0,0.0,0.0,0.0,0.0,0.0,0.0,0.0,0.0,0.0,0.0,0.0,0.0,3.1512,3.1877,3.1215,3.0684,3.0477,3.0267,3.014,2.9968,2.9408,2.8694,2.7731,2.7595,2.713,2.6432,2.6502,2.6346,2.5986,2.5923,2.5756,2.5538,2.5616,2.5239,2.4591,2.4927,2.4403,2.3496,2.3302,2.2855,2.2271,0.0,0.0,0.0,0.0,0.0,0.0,0.0,0.0,0.0,0.0,0.0,0.0,0.0,0.0,0.0,1.5329,0.0,0.0,0.0,0.0,0.0,1.4411,1.4432,0.0,1.5307,0.0,0.0,0.0,0.0,0.0,1.8317,1.9321,1.9773,1.9723,1.9773,1.9851,1.9851,0.0,0.0,0.0,0.0,0.0,0.0,0.0,0.0,0.0,0.0,0.0,1.7787,1.7787,1.8333,1.8993,1.8836,1.9258,1.9959,0.0,0.0,0.0,2.5347,2.6149,2.6954,2.7906,2.6949,2.6428,0.0,0.0,0.0,0.0,0.0,0.0,0.0,0.0,0.0,0.0,0.0,0.0,0.0,0.0,0.0,0.0,0.0,0.0,0.0,0.0,0.0,0.0,0.0,3.2929,3.2124,3.251,3.2372,3.1457,3.1274,3.0965,3.0477,2.9108,2.8327,2.8083,2.7361,2.6894,2.6688,2.6688,2.6446,2.6015,2.633,2.6435,2.6435,2.6435,2.6152,2.5758,2.6359,2.5766,2.4626,2.473,2.425,2.3421,0.0,0.0,0.0,0.0,0.0,0.0,0.0,0.0,0.0,0.0,0.0,0.0,0.0,1.5688,1.5506,1.5506,1.5305,0.0,0.0,0.0,0.0,1.5097,1.5097,1.5182,1.5392,0.0,0.0,0.0,0.0,1.714,1.8731,1.8756,1.9145,1.9861,2.1428,2.0885,1.8955,2.0195,0.0,0.0,0.0,0.0,0.0,0.0,0.0,0.0,0.0,0.0,0.0,1.9176,1.8892,1.8627,1.9309,1.9595,1.9974,2.1197,2.2149,2.3125,2.4661,2.4728,2.4893,2.7103,2.5869,2.4913,2.7877,2.8582,0.0,0.0,0.0,0.0,0.0,0.0,0.0,0.0,0.0,0.0,0.0,0.0,0.0,0.0,0.0,0.0,0.0,0.0,0.0,0.0,0.0,0.0,3.3685,3.188,3.1246,3.2282,3.1666,3.0997,3.0314,2.937,2.8557,2.7908,2.7727,2.7291,2.6628,2.6664,2.6628,2.6449,2.6454,2.6053,2.5466,2.5466,2.5383,2.5217,2.5482,2.5243,2.4803,2.4803,2.4565,2.4241,0.0,0.0,0.0,0.0,0.0,0.0,0.0,0.0,0.0,0.0,0.0,0.0,0.0,0.0,1.6083,1.5868,1.5857,1.5782,1.5569,1.5455,1.5519,1.5731,1.5731,1.5817,1.6031,0.0,0.0,0.0,0.0,0.0,0.0,1.848,1.8756,1.9346,2.1327,2.1192,0.0,0.0,0.0,1.8742,0.0,0.0,1.8341,0.0,0.0,0.0,0.0,0.0,0.0,0.0,0.0,0.0,0.0,1.9938,1.9908,2.0969,2.1594,0.0,2.3373,0.0,0.0,0.0,2.4646,2.3934,2.6132,0.0,0.0,0.0,0.0,0.0,0.0,0.0,0.0,0.0,0.0,0.0,0.0,0.0,0.0,0.0,0.0,0.0,0.0,0.0,0.0,0.0,0.0,0.0,3.3917,3.2039,3.1306,3.211,3.1459,3.0677,2.987,2.9211,2.8544,2.7912,2.7828,2.7452,2.6825,2.6892,2.6842,2.6775,2.6674,2.6156,2.5389,2.5346,2.523,2.5137,2.5269,2.523,2.5082,2.4989,2.4989,2.491,0.0,0.0,0.0,0.0,0.0,0.0,0.0,0.0,0.0,0.0,0.0,0.0,0.0,0.0,0.0,1.6515,1.645,1.6138,1.5519,1.5435,1.5753,1.6428,0.0,0.0,0.0,0.0,0.0,0.0,0.0,0.0,0.0,0.0,1.8645,1.8229,1.9371,2.0612,2.1915,0.0,2.2213,2.2191,0.0,2.142,2.1199,0.0,0.0,0.0,2.1648,2.1648,0.0,2.2226,0.0,0.0,0.0,2.0221,1.9747,2.003,2.0961,0.0,0.0,0.0,0.0,0.0,0.0,0.0,2.3458,0.0,0.0,0.0,0.0,0.0,0.0,0.0,0.0,0.0,0.0,0.0,0.0,0.0,0.0,0.0,0.0,0.0,0.0,0.0,0.0,0.0,0.0,3.3468,3.2692,3.3247,3.2757,3.0907,3.068,3.0142,2.9211,2.8545,2.8202,2.8168,2.7594,2.7299,2.7299,2.7299,2.7186,2.7024,2.7007,2.6792,2.6418,2.6258,2.5937,2.5594,2.6026,2.5937,2.5503,2.5503,2.5503,2.5465,0.0,0.0,0.0,0.0,0.0,0.0,0.0,0.0,0.0,0.0,0.0,0.0,0.0,0.0,0.0,1.756,1.7278,1.6961,1.6776,1.6754,1.6874,1.7071,1.7071,1.7136,0.0,0.0,0.0,0.0,0.0,0.0,0.0,0.0,0.0,0.0,1.8246,1.8832,1.9321,2.1232,0.0,0.0,2.263,2.2135,0.0,0.0,0.0,0.0,0.0,2.3095,2.2733,0.0,2.3021,2.0684,0.0,0.0,0.0,2.003,0.0,0.0,2.0846,0.0,0.0,0.0,0.0,0.0,0.0,0.0,0.0,0.0,0.0,0.0,0.0,0.0,0.0,0.0,0.0,0.0,0.0,0.0,0.0,0.0,0.0,0.0,0.0,0.0,0.0,0.0,3.2625,3.2409,3.3809,3.3667,3.2967,3.1794,3.115,3.0352,2.9438,2.8747,2.8125,2.756,2.7385,2.7299,2.7299,2.7299,2.7267,2.7218,2.704,2.6942,2.6825,2.6657,2.633,2.6026,2.6277,2.6206,2.599,2.599,2.599,2.5954,0.0,0.0,0.0,0.0,0.0,0.0,0.0,0.0,0.0,0.0,0.0,0.0,0.0,0.0,0.0,1.7988,1.7562,1.7278,1.7278,1.7278,1.7278,1.7278,1.7278,1.7379,1.7634,0.0,0.0,0.0,0.0,0.0,0.0,0.0,0.0,0.0,0.0,0.0,0.0,0.0,0.0,0.0,2.2933,0.0,0.0,2.4458,2.4419,0.0,0.0,0.0,2.4435,2.577,2.4035,0.0,0.0,0.0,0.0,0.0,0.0,0.0,0.0,0.0,0.0,0.0,0.0,0.0,2.1746,2.3798,0.0,0.0,0.0,0.0,0.0,0.0,0.0,0.0,0.0,0.0,0.0,0.0,0.0,0.0,0.0,0.0,0.0,0.0,0.0,3.3972,3.2855,3.2702,3.3864,3.3605,3.294,3.1897,3.1023,3.0154,2.9207,2.8412,2.7809,2.7362,2.7313,2.7299,2.7299,2.7299,2.7299,2.7282,2.7186,2.7089,2.7007,2.6957,2.6725,2.6417,2.6487,2.6435,2.6277,2.6277,2.6258,2.6168,0.0,0.0,0.0,0.0,0.0,0.0,0.0,0.0,0.0,0.0,0.0,0.0,0.0,0.0,0.0,0.0,1.7639,1.7333,1.7278,1.7278,1.7278,1.7278,1.7278,1.7534,1.8093,0.0,0.0,0.0,0.0,0.0,0.0,0.0,0.0,0.0,0.0,0.0,0.0,0.0,0.0,2.2729,2.3031,2.4429,0.0,0.0,2.5801,2.5722,2.6869,2.6612,2.5922,2.6655,2.5212,0.0,0.0,0.0,0.0,0.0,2.039,0.0,0.0,0.0,0.0,0.0,0.0,0.0,2.1013,2.3136,2.56,0.0,0.0,0.0,0.0,0.0,0.0,0.0,0.0,0.0,0.0,0.0,0.0,0.0,0.0,0.0,0.0,3.4386,3.4245,3.4245,3.3998,3.3707,3.3379,3.3321,3.2787,3.1724,3.0818,2.9884,2.8942,2.8035,2.7494,2.7407,2.7376,2.7376,2.7345,2.7407,2.739,2.7407,2.7345,2.7233,2.7105,2.725,2.7072,2.6691,2.6725,2.659,2.6453,2.6453,2.6347,2.6239,0.0,0.0,0.0,0.0,0.0,0.0,0.0,0.0,0.0,0.0,0.0,0.0,0.0,0.0,0.0,0.0,0.0,1.7693,1.73,1.7278,1.7278,1.7278,1.7278,1.7534,1.8093,1.8725,0.0,0.0,0.0,0.0,0.0,0.0,0.0,0.0,0.0,0.0,0.0,0.0,0.0,2.1415,2.3398,0.0,2.4538,2.6155,2.5614,2.4348,2.6496,2.6613,2.566,0.0,2.5386,2.4609,0.0,0.0,0.0,0.0,0.0,0.0,0.0,0.0,0.0,0.0,0.0,0.0,2.0495,2.1201,2.2428,0.0,0.0,0.0,0.0,0.0,0.0,0.0,0.0,0.0,0.0,0.0,0.0,0.0,0.0,0.0,0.0,3.4539,3.4517,3.4517,3.4269,3.3998,3.3707,3.3437,3.316,3.2883,3.1809,3.0794,2.9843,2.8977,2.8185,2.7465,2.7701,2.7742,2.7719,2.7943,2.801,2.7926,2.773,2.7582,2.7552,2.7359,2.7072,2.6742,2.6892,2.6825,2.6624,2.6624,2.6521,2.6365,0.0,0.0,0.0,0.0,0.0,0.0,0.0,0.0,0.0,0.0,0.0,0.0,0.0,0.0,0.0,0.0,0.0,0.0,0.0,0.0,1.8533,1.8562,1.8594,1.8783,1.9044,1.9542,2.0067,0.0,0.0,0.0,0.0,0.0,0.0,0.0,0.0,0.0,0.0,0.0,1.9747,2.1449,2.3255,0.0,2.4702,2.6358,2.6319,2.5486,2.7037,2.7244,2.6735,2.6133,2.571,0.0,0.0,2.2206,2.0763,0.0,1.9261,1.8315,0.0,0.0,0.0,1.928,0.0,0.0,0.0,2.0518,2.163,2.298,0.0,0.0,0.0,0.0,0.0,0.0,0.0,0.0,0.0,0.0,0.0,0.0,0.0,0.0,0.0,3.4602,3.4602,3.4602,3.4473,3.4269,3.4023,3.385,3.3588,3.3262,3.2265,3.1253,3.0211,2.9312,2.8461,2.776,2.784,2.7954,2.8047,2.8156,2.8183,2.8129,2.7982,2.7783,2.7654,2.7701,2.7474,2.7164,2.7293,2.7244,2.7051,2.7241,2.7161,2.6985,0.0,0.0,0.0,0.0,0.0,0.0,0.0,0.0,0.0,0.0,0.0,0.0,0.0,0.0,0.0,0.0,0.0,0.0,0.0,0.0,2.0296,2.0067,2.0141,2.0221,2.022,2.0501,2.0801,2.1229,0.0,0.0,0.0,0.0,0.0,0.0,0.0,0.0,0.0,0.0,0.0,2.2459,0.0,2.4407,2.5064,2.6432,2.6748,2.6691,2.7367,2.7844,2.7979,2.677,0.0,2.5313,2.5448,2.3356,0.0,0.0,0.0,0.0,0.0,0.0,0.0,0.0,0.0,2.0202,0.0,0.0,0.0,2.1798,0.0,0.0,0.0,0.0,0.0,0.0,0.0,0.0,0.0,0.0,0.0,0.0,0.0,0.0,0.0,3.3947,3.4266,3.4586,3.4623,3.4517,3.4293,3.4197,3.3902,3.3408,3.2437,3.147,3.0548,2.9536,2.8753,2.8269,2.8164,2.821,2.842,2.842,2.8394,2.8386,2.8264,2.8057,2.784,2.8047,2.7964,2.7713,2.7771,2.7666,2.756,2.7823,2.7823,2.766,2.538,2.5376,0.0,0.0,0.0,0.0,0.0,0.0,0.0,0.0,0.0,0.0,0.0,0.0,0.0,0.0,0.0,0.0,2.1956,0.0,0.0,2.0995,2.0958,2.0999,2.0976,2.1212,2.1374,2.1375,0.0,0.0,0.0,0.0,0.0,0.0,2.1321,0.0,0.0,0.0,2.3286,0.0,2.5819,2.5315,0.0,2.5807,2.5917,2.5255,2.6599,2.7583,2.7986,0.0,2.5416,2.4996,0.0,2.2134,2.0782,0.0,0.0,0.0,0.0,0.0,0.0,0.0,1.926,0.0,0.0,0.0,1.9413,1.9487,0.0,0.0,0.0,0.0,0.0,0.0,0.0,0.0,0.0,0.0,0.0,0.0,0.0,0.0,0.0,0.0,3.3087,3.4574,3.4687,3.4666,3.4645,3.4148,3.3815,3.3734,3.2373,3.1578,3.1458,3.0036,2.9319,2.9239,2.8985,2.8845,2.8839,2.9067,2.9134,2.9071,2.8766,2.8609,2.8535,2.8316,2.8156,2.8129,2.8075,2.8047,2.8047,2.8057,2.7992,2.7869,2.5608,2.6087,0.0,0.0,0.0,0.0,0.0,0.0,0.0,0.0,0.0,0.0,0.0,0.0,0.0,0.0,0.0,2.622,0.0,0.0,0.0,0.0,2.3046,2.2544,2.2207,2.247,2.2434,2.2038,2.2073,0.0,0.0,0.0,0.0,0.0,2.1594,0.0,2.3514,0.0,2.4171,0.0,0.0,0.0,0.0,2.7043,2.7873,2.7796,2.7409,2.8429,2.944,0.0,2.6555,0.0,0.0,0.0,0.0,0.0,0.0,0.0,0.0,0.0,0.0,0.0,0.0,0.0,2.1008,0.0,1.9721,0.0,0.0,0.0,0.0,0.0,0.0,0.0,0.0,0.0,0.0,0.0,0.0,0.0,0.0,0.0,0.0,0.0,0.0,0.0,0.0,3.3258,3.3297,3.3992,3.4203,3.3813,3.3395,3.2748,3.1853,3.092,3.0285,2.9897,2.93,2.9067,2.9178,2.928,2.9283,2.924,2.9052,2.8855,2.8652,2.8737,2.8639,2.8446,2.8664,2.8608,2.8404,2.8558,2.8601,2.8551,2.5561,0.0,0.0,0.0,0.0,0.0,0.0,0.0,0.0,0.0,0.0,0.0,2.903,2.8766,0.0,0.0,2.9295,2.8865,0.0,0.0,2.6449,0.0,0.0,0.0,0.0,2.3688,2.3278,2.2715,0.0,0.0,0.0,0.0,0.0,0.0,0.0,2.2909,2.4539,0.0,2.5464,2.6287,2.707,2.7213,2.7159,2.8256,2.9271,2.9978,2.861,2.9366,3.0539,2.7664,2.7682,0.0,2.6909,0.0,0.0,0.0,0.0,0.0,2.0529,0.0,0.0,0.0,0.0,0.0,0.0,0.0,0.0,0.0,0.0,0.0,0.0,0.0,0.0,0.0,0.0,0.0,0.0,0.0,0.0,0.0,0.0,0.0,0.0,0.0,0.0,3.1543,3.2034,3.2279,3.2353,3.3864,3.4502,3.3981,3.4117,3.3666,3.25,3.1952,3.1342,3.0646,2.9835,2.9444,2.9407,2.9344,2.9323,2.9323,2.9283,2.9093,2.8832,2.9115,2.9071,2.8808,2.9093,2.9026,2.8791,2.8952,2.9017,2.8994,2.5702,2.5807,0.0,0.0,0.0,0.0,0.0,0.0,0.0,0.0,0.0,0.0,0.0,0.0,0.0,0.0,0.0,3.143,3.0159,0.0,2.9093,0.0,0.0,2.5293,0.0,0.0,2.3797,2.3162,0.0,0.0,0.0,0.0,0.0,0.0,0.0,2.3603,2.4276,2.6373,2.7861,2.8928,3.0636,3.1489,3.1483,0.0,2.8911,3.0438,2.9856,0.0,0.0,2.8712,2.8253,0.0,0.0,0.0,0.0,0.0,0.0,0.0,0.0,0.0,0.0,1.9896,0.0,0.0,0.0,0.0,1.8532,0.0,0.0,0.0,0.0,0.0,0.0,0.0,0.0,0.0,0.0,0.0,0.0,0.0,0.0,0.0,0.0,0.0,0.0,2.9986,3.1479,3.2406,3.2479,3.3787,3.4486,3.4379,3.4128,3.3913,3.3739,3.3204,3.2474,3.156,3.0928,3.0211,2.9407,2.9407,2.9407,2.9407,2.9386,2.9386,2.9386,2.9323,2.9302,2.9262,2.9218,2.9178,2.9178,2.9112,2.9062,2.8994,0.0,0.0,0.0,0.0,0.0,0.0,0.0,2.6679,0.0,0.0,2.9226,0.0,0.0,3.2208,3.2208,0.0,0.0,3.3248,3.2097,3.139,0.0,0.0,0.0,2.7459,0.0,0.0,0.0,0.0,0.0,0.0,0.0,0.0,0.0,0.0,0.0,2.3998,0.0,0.0,0.0,0.0,0.0,3.0452,3.0937,0.0,0.0,3.145,3.1381,3.1713,0.0,3.0397,3.0251,3.0663,3.0145,2.9157,2.8354,2.9264,2.747,0.0,0.0,0.0,2.3622,2.258,0.0,0.0,0.0,0.0,0.0,0.0,0.0,0.0,0.0,0.0,0.0,0.0,0.0,0.0,0.0,0.0,0.0,0.0,0.0,0.0,0.0,0.0,0.0,2.8233,2.8837,2.919,0.0,3.1796,3.3129,3.2895,3.4028,3.4529,3.4288,3.3636,3.3175,3.2833,3.1439,3.0613,3.0312,2.969,2.9407,2.9407,2.9407,2.9407,2.9407,2.9386,2.9365,2.9365,2.9326,2.9323,2.924,2.9152,2.9085,2.9062,2.6302,0.0,0.0,0.0,0.0,0.0,0.0,0.0,0.0,0.0,3.1589,0.0,3.4407,0.0,3.4044,0.0,3.4635,3.4343,3.4172,3.2539,0.0,3.2452,3.0489,0.0,0.0,0.0,0.0,0.0,0.0,2.6134,0.0,0.0,0.0,0.0,0.0,2.4746,2.5954,0.0,2.8813,0.0,0.0,3.0289,0.0,0.0,3.1738,3.2135,0.0,3.2539,3.2756,3.1852,3.1941,3.2327,3.1836,3.1228,3.0737,3.1159,2.9316,2.7154,2.6862,2.6186,0.0,2.4169,2.3758,0.0,2.2064,0.0,0.0,0.0,0.0,0.0,0.0,0.0,0.0,0.0,0.0,0.0,0.0,2.0005,0.0,0.0,0.0,0.0,0.0,0.0,2.6086,2.6602,2.7186,2.757,0.0,0.0,3.2547,3.2297,3.4091,3.4945,3.4674,3.4244,3.3866,3.3507,3.2032,3.1184,3.0845,2.9883,2.9429,2.9429,2.9427,2.9407,2.9407,2.9407,2.9407,2.9407,2.9407,2.9365,2.9323,2.9218,2.9152,2.913,2.7399,0.0,0.0,0.0,2.6357,0.0,0.0,0.0,3.3223,0.0,3.5914,3.6114,3.7406,3.6335,3.5815,3.6454,3.5233,3.4953,3.6241,3.32,0.0,0.0,3.1911,3.1043,3.3212,0.0,0.0,0.0,0.0,0.0,0.0,0.0,0.0,0.0,2.5318,0.0,2.659,2.792,2.8987,2.9751,3.0186,3.1151,3.2151,3.0905,3.1243,3.2398,3.2398,3.2648,3.2897,3.2897,3.3112,3.3309,3.3309,3.3203,3.2917,3.2033,3.1034,2.9892,2.8162,2.7235,2.6324,2.4532,0.0,0.0,0.0,0.0,2.1497,0.0,0.0,0.0,0.0,0.0,0.0,0.0,0.0,0.0,0.0,0.0,0.0,0.0,0.0,0.0,0.0,2.595,2.677,2.5215,2.6581,2.7561,0.0,0.0,3.2504,3.2591,3.4132,3.4975,3.502,3.4906,3.4471,3.3677,3.2789,3.1921,3.1035,3.0039,2.9549,2.9511,2.945,2.9407,2.9407,2.9407,2.9407,2.9407,2.9407,2.9407,2.9386,2.9323,2.9262,2.9178,2.8803,2.8719,2.8862,0.0,2.9776,3.0411,0.0,0.0,0.0,0.0,3.6708,3.7248,3.7988,3.8236,3.7942,3.715,3.7178,0.0,0.0,0.0,0.0,3.6127,3.5073,3.4095,3.3179,3.2781,0.0,3.1422,0.0,0.0,2.9659,0.0,0.0,0.0,0.0,0.0,2.6578,2.9005,3.0463,3.1089,3.0048,3.0181,0.0,0.0,3.1243,3.2398,3.2398,3.2648,3.2897,3.2897,3.3112,3.3309,3.3309,3.3203,3.3011,3.2678,3.1851,3.0845,2.9674,2.8873,2.7961,2.6246,2.5528,2.5002,0.0,0.0,0.0,0.0,0.0,0.0,0.0,0.0,0.0,0.0,0.0,0.0,0.0,0.0,0.0,1.9474,0.0,0.0,2.2599,2.3929,2.4866,2.5082,2.5538,2.6364,0.0,0.0,0.0,3.26,3.1909,3.2657,3.5122,3.3851,3.3758,3.4769,3.3752,3.2845,3.2014,3.0998,3.0208,2.9645,2.9626,2.9569,2.9491,2.9588,2.953,2.9407,2.9451,2.9431,2.9386,2.9323,2.9262,2.92,3.0148,0.0,0.0,3.179,0.0,0.0,3.4392,3.5416,0.0,3.8442,3.8765,0.0,3.9665,3.9801,3.964,3.922,3.8333,0.0,3.8205,0.0,0.0,3.76,3.6895,3.591,3.4835,3.4439,0.0,3.3373,0.0,0.0,3.1228,0.0,0.0,0.0,0.0,2.6965,2.7535,2.9999,3.1254,3.1495,3.0634,0.0,0.0,3.0643,3.1243,3.2398,3.2398,3.2578,3.2773,3.2843,3.3058,3.3203,3.3203,3.315,3.3058,3.2827,3.2114,3.119,3.0236,2.9492,2.8697,2.7325,2.6998,2.6687,2.5531,2.4936,2.4506,0.0,0.0,0.0,0.0,0.0,0.0,0.0,0.0,0.0,0.0,0.0,0.0,0.0,2.0816,0.0,2.1953,2.3081,2.4174,2.508,2.518,2.5612,0.0,0.0,0.0,3.0491,3.1026,3.1847,3.2993,3.2046,3.2413,3.4091,3.3116,3.2779,3.3009,3.1618,3.0716,3.0227,2.9795,2.9569,2.9512,2.9626,2.9588,2.949,2.955,2.9569,2.9528,2.9429,2.9328,2.9283,3.1409,0.0,0.0,0.0,0.0,0.0,0.0,3.8213,0.0,4.1241,0.0,4.0909,4.1415,4.0977,4.0857,4.1396,0.0,3.8493,4.0331,3.8123,3.7487,3.9198,3.7944,3.7188,3.7078,3.5701,0.0,0.0,0.0,3.1418,3.2336,0.0,0.0,0.0,0.0,0.0,0.0,3.082,3.1542,3.1574,3.152,3.1767,3.2028,3.1059,3.1397,3.2453,3.2398,3.2523,3.2648,3.2773,3.2951,3.3043,3.3043,3.3058,3.2989,3.2703,3.2091,3.1298,3.0319,2.9605,2.8894,2.8037,2.8189,2.8248,2.6963,2.6989,2.7022,2.6265,2.5922,2.5606,0.0,0.0,0.0,0.0,0.0,0.0,0.0,0.0,0.0,0.0,0.0,0.0,0.0,2.2811,2.3985,2.5024,2.5113,2.5208,0.0,0.0,0.0,2.8064,3.0643,0.0,3.0529,0.0,3.1159,3.3016,3.2046,3.2378,3.3846,3.2198,3.1297,3.0977,3.0114,2.9663,2.9531,2.9607,2.9626,2.9607,2.9645,2.9664,2.9664,2.955,2.9471,2.9427,3.2741,0.0,0.0,0.0,0.0,3.6971,3.8809,4.0166,4.0988,4.0798,4.1146,4.1257,4.0814,4.1125,4.1236,4.0814,4.0175,0.0,0.0,0.0,0.0,3.9878,3.9501,3.8722,3.7591,3.7202,3.6816,0.0,3.3727,3.2385,3.2336,0.0,0.0,0.0,0.0,0.0,3.2175,3.1218,0.0,3.2478,3.2283,3.1628,3.0859,3.172,3.2377,3.2773,3.2523,3.2523,3.2594,3.2648,3.2773,3.2966,3.2966,3.2827,3.2703,3.2648,3.2431,3.1897,3.0509,2.9992,2.9507,2.8142,2.789,2.7997,2.8122,2.8117,2.8035,2.7765,2.7483,2.7291,2.7161,0.0,0.0,0.0,0.0,0.0,0.0,0.0,0.0,0.0,0.0,0.0,0.0,0.0,0.0,0.0,0.0,0.0,0.0,0.0,0.0,0.0,2.9,0.0,0.0,0.0,3.1732,3.4751,3.3157,3.2931,3.3884,3.3513,3.2534,3.1157,3.0989,3.043,2.9664,2.9737,2.9719,2.9664,2.9569,2.9569,2.9607,2.9588,2.9607,2.9645,3.4801,0.0,0.0,0.0,0.0,0.0,0.0,4.0402,0.0,4.1146,4.1399,4.1462,4.1146,4.1333,4.133,4.0999,4.0441,4.0329,4.0704,4.0244,4.0115,4.0406,4.0029,0.0,3.765,3.7683,3.7188,3.5968,3.4036,3.2904,0.0,0.0,0.0,0.0,0.0,3.0775,0.0,0.0,0.0,3.3576,3.3881,3.3357,3.2482,3.2725,3.2973,3.3096,3.2866,3.2812,3.2812,3.2648,3.2648,3.2718,3.2718,3.2648,3.2578,3.2523,3.2453,3.2182,3.1022,3.0395,2.984,2.8713,2.8282,2.8146,2.803,2.8313,2.8456,2.8085,2.7857,2.7347,2.6219,2.5346,0.0,0.0,0.0,0.0,0.0,0.0,0.0,0.0,0.0,0.0,0.0,0.0,0.0,0.0,0.0,0.0,0.0,0.0,0.0,0.0,0.0,0.0,0.0,0.0,0.0,3.3953,3.31,3.3375,3.4617,3.4058,3.3342,3.2492,3.1555,3.0881,3.0395,2.9942,2.9736,2.9756,2.9682,2.9682,2.9701,2.9664,2.9664,2.9683,0.0,3.5395,0.0,0.0,3.7197,0.0,3.8951,4.0483,4.148,4.1507,4.1522,4.1522,4.1588,4.1456,4.1327,4.1251,4.0742,4.0501,4.0716,4.0466,4.0431,4.0634,4.0344,3.9489,3.7994,3.82,3.753,0.0,3.4518,3.3482,0.0,0.0,0.0,0.0,0.0,0.0,0.0,0.0,3.526,3.4833,3.5221,3.4952,3.4155,3.3508,3.3256,3.3309,3.3112,3.3096,3.3096,3.2757,3.2703,3.2703,3.2648,3.2703,3.2687,3.2617,3.2508,3.2259,3.1528,3.0814,3.0088,2.9312,2.8824,2.8387,2.8,2.8459,2.8809,2.8274,2.811,2.7502,2.5793,2.5659,0.0,0.0,0.0,0.0,0.0,0.0,0.0,0.0,0.0,0.0,0.0,0.0,0.0,0.0,0.0,0.0,0.0,0.0,0.0,0.0,0.0,2.9902,3.0305,0.0,3.1322,0.0,3.2982,3.3681,3.5273,3.4486,3.4018,3.3772,3.2346,3.1465,3.1033,3.0299,2.9905,2.9773,2.9773,2.979,2.9771,2.9719,2.9701,2.9719,0.0,0.0,0.0,0.0,0.0,0.0,4.1454,4.1374,4.1199,4.1295,4.1323,4.139,4.1588,4.1588,4.1466,4.1135,4.1469,4.11,3.958,4.0716,4.106,4.0197,4.1012,4.0781,3.9314,3.9345,3.8667,0.0,0.0,3.459,0.0,0.0,0.0,0.0,0.0,0.0,0.0,3.6117,3.6156,3.6137,3.56,3.4896,3.4062,3.3347,3.3203,3.3256,3.3005,3.3043,3.3256,3.2951,3.2951,3.3043,3.2897,3.2951,3.3096,3.3187,3.2904,3.2439,3.1902,3.1182,3.0397,2.9716,2.8987,2.8462,2.8748,2.9146,2.9453,2.9132,2.9106,2.9108,2.8956,2.7826,2.6458,0.0,0.0,0.0,0.0,0.0,0.0,0.0,0.0,0.0,0.0,0.0,0.0,0.0,0.0,0.0,0.0,0.0,0.0,2.7476,0.0,2.8578,3.0273,3.0292,0.0,3.5047,3.3532,3.3686,3.53,3.5205,3.4718,3.3964,3.3796,3.273,3.1085,3.1009,3.0468,2.972,2.972,2.9719,2.9717,2.9699,2.9736,2.979,0.0,0.0,0.0,0.0,0.0,0.0,0.0,4.2158,4.2337,4.272,4.219,4.1785,4.1916,4.1801,4.1885,4.2134,4.2235,4.1949,4.1261,4.1805,4.1981,4.1598,4.1901,4.1609,4.0561,4.072,4.0001,0.0,0.0,0.0,0.0,0.0,0.0,0.0,0.0,3.7087,3.7402,3.8153,3.8531,3.8484,3.7774,3.6981,3.6088,3.5432,3.4857,3.4415,3.4202,3.4034,3.3848,3.3507,3.324,3.2951,3.2897,3.2951,3.3005,3.3043,3.2989,3.2873,3.2645,3.2329,3.1884,3.1086,3.0542,3.0052,2.9766,2.9929,3.0161,3.0046,2.9938,2.9756,2.9418,2.887,2.8132,0.0,0.0,0.0,0.0,0.0,0.0,0.0,0.0,0.0,0.0,0.0,0.0,0.0,0.0,0.0,0.0,0.0,0.0,2.9008,0.0,3.058,3.339,3.2391,3.3064,3.5412,3.4707,3.4712,3.5364,3.5315,3.481,3.3999,3.3999,3.3233,3.1998,3.1965,3.1705,3.1369,3.1334,3.0996,3.0544,3.0544,3.0188,2.9774,4.1466,0.0,4.0047,0.0,4.1471,4.1789,4.2328,4.2956,4.3455,4.3547,4.3141,4.274,4.2615,4.2569,4.2613,4.296,4.3005,4.2862,4.2316,4.2752,4.2961,4.261,4.2883,0.0,4.1872,4.1837,4.11,3.9654,3.778,0.0,0.0,0.0,0.0,0.0,3.83,3.8892,3.8819,3.981,4.0153,3.9935,3.9174,3.8516,3.778,3.6821,3.6038,3.5399,3.5041,3.4754,3.4415,3.4185,3.3799,3.3382,3.3096,3.3043,3.3096,3.3346,3.3382,3.3419,3.3662,3.3501,3.3186,3.2632,3.2154,3.1629,3.0815,3.0833,3.1046,3.0965,3.1002,3.0942,3.0501,3.0678,3.049,2.9281,0.0,0.0,0.0,0.0,0.0,0.0,2.8076,2.7981,2.9968,0.0,0.0,0.0,0.0,0.0,0.0,0.0,0.0,0.0,0.0,0.0,0.0,3.3288,3.3673,3.5853,3.5575,3.5427,3.5427,3.5379,3.5009,3.4442,3.4442,3.3899,3.3004,3.2953,3.2771,3.2492,3.2439,3.2029,3.1485,3.1485,3.0919,3.0181,4.2555,4.3031,4.3462,4.3479,4.3946,4.4108,4.3399,4.3905,4.4108,4.3399,4.3922,4.4249,4.3913,4.3855,4.3759,4.3403,4.4012,4.3681,4.193,4.3423,4.3912,0.0,0.0,4.4079,4.3389,4.2591,4.1863,4.1136,0.0,0.0,3.7266,0.0,3.8456,3.9298,4.0841,4.1265,4.0784,4.0784,4.0497,3.9935,3.9174,3.8804,3.8537,3.6911,3.6198,3.5985,3.5112,3.4769,3.4769,3.4785,3.4769,3.4577,3.3591,3.3398,3.3642,3.4399,3.4317,3.412,3.4875,3.4588,3.4097,3.4097,3.3587,3.2806,3.1815,3.1867,3.2128,3.1846,3.2461,3.3055,3.3055,3.3796,3.3646,3.1272,0.0,0.0,0.0,0.0,0.0,0.0,2.7157,2.7116,2.9132,0.0,0.0,0.0,0.0,0.0,0.0,0.0,0.0,2.8423,2.6976,0.0,3.2891,3.2119,3.3378,3.668,3.5892,3.5493,3.5493,3.5493,3.5493,3.5474,3.5474,3.4913,3.3968,3.3968,3.3398,3.2492,3.2492,3.2457,3.2386,3.2386,3.1917,3.1278,4.2195,4.318,4.3944,4.3344,4.3889,4.4461,4.4658,4.4883,4.5075,4.5234,4.5459,4.5597,4.5477,4.464,4.4221,0.0,4.4278,4.4087,0.0,4.4177,4.428,4.4392,4.4314,4.4096,4.3756,4.301,4.2263,4.1482,0.0,0.0,0.0,3.8835,3.9638,4.0902,4.1394,4.1515,4.1363,4.1363,4.1255,4.1082,4.0839,4.0377,3.9721,3.9192,3.8246,3.7141,3.6874,3.6163,3.5345,3.5345,3.5098,3.4721,3.4448,3.4431,3.4577,3.4673,3.483,3.4938,3.5111,3.5368,3.5472,3.4899,3.484,3.4735,3.3896,3.3744,3.3731,3.3616,3.3772,3.3946,3.389,3.4175,3.3833,3.1932,3.2213,0.0,0.0,0.0,0.0,0.0,2.89,2.8883,0.0,2.9638,0.0,0.0,0.0,0.0,0.0,0.0,0.0,0.0,3.2197,0.0,3.6353,3.5001,3.5103,3.6699,3.6483,3.6073,3.5509,3.5501,3.5493,3.5493,3.5493,3.5306,3.5009,3.4961,3.4779,3.447,3.4423,3.3996,3.3356,3.2825,3.2057,3.1245,4.2913,4.3847,4.4521,4.4007,4.4568,4.5111,4.5216,4.5475,4.5664,4.5786,4.6046,4.6172,4.6122,4.5407,0.0,4.5494,4.5027,4.4958,4.5425,4.501,4.4958,4.5337,4.501,4.4746,4.4686,0.0,0.0,4.2464,4.092,4.0122,4.0079,4.0079,4.0587,4.1453,4.1498,4.1515,4.1515,4.156,4.1604,4.1604,4.1604,4.1279,4.0736,4.0412,3.9626,3.8625,3.8304,3.7638,3.6833,3.6515,3.6146,3.5807,3.5458,3.5464,3.5509,3.522,3.5295,3.5504,3.5688,3.6114,3.6323,3.5838,3.5919,3.598,3.5265,3.4769,3.4446,3.4425,3.4652,3.4861,3.4688,3.5009,3.4822,3.3474,3.3833,3.379,3.24,0.0,0.0,0.0,0.0,0.0,0.0,3.1105,0.0,0.0,0.0,0.0,0.0,0.0,0.0,3.3189,3.4184,0.0,3.8053,3.6704,3.6588,3.7698,3.7095,3.6344,3.5502,3.5495,3.5501,3.5501,3.5507,3.5488,3.5501,3.5441,3.5412,3.5398,3.5354,3.4967,3.4327,3.3547,3.2705,3.1847,4.4338,4.4807,0.0,0.0,4.5784,0.0,4.5291,4.5782,4.5975,4.5273,4.5782,4.6122,4.6023,4.6023,4.6073,4.6172,0.0,0.0,0.0,4.5819,4.5717,4.577,4.5735,4.5802,4.5903,4.5201,4.448,4.3816,4.2331,4.1568,4.138,4.138,4.1318,4.1209,4.1318,4.138,4.1363,4.1515,4.1604,4.1604,4.1604,4.1604,4.1534,4.0683,4.0342,4.0202,3.9399,3.906,3.886,3.8035,3.781,3.7629,3.6671,3.6471,3.6471,3.5924,3.5742,3.589,3.6502,3.6702,3.6702,3.6702,3.6766,3.6596,3.5937,3.5144,3.4582,3.4582,3.5234,3.5741,3.5543,3.6237,3.6504,3.5555,3.5614,3.5342,3.4184,0.0,0.0,0.0,0.0,0.0,0.0,3.2388,3.2466,0.0,0.0,0.0,0.0,0.0,3.0095,3.287,3.3799,3.5571,3.8353,3.756,3.7916,3.9387,3.7643,3.637,3.5592,3.5534,3.5515,3.5515,3.5501,3.5515,3.5515,3.5501,3.546,3.5412,3.5398,3.5369,3.5224,3.441,3.3655,3.2909,0.0,0.0,4.5763,4.512,4.567,4.6119,4.5993,4.6116,4.6119,4.5975,4.6116,4.6172,4.6172,4.6172,4.6172,4.6189,4.5449,4.5262,4.5786,4.5299,4.5179,4.5649,4.5231,4.5018,4.5166,4.4397,4.361,4.2905,4.2445,4.1864,4.1255,4.1255,4.1255,4.1209,4.1255,4.1255,4.1255,4.1363,4.1426,4.1471,4.156,4.1604,4.1587,4.1367,4.0885,4.0272,4.0053,3.9556,3.899,3.8773,3.8703,3.8538,3.7646,3.7403,3.724,3.6431,3.6301,3.6502,3.6544,3.6602,3.6702,3.6702,3.6684,3.6673,3.6561,3.6369,3.6247,3.6348,3.6545,3.6628,3.6509,3.6729,3.6878,3.6646,3.6427,3.581,3.4372,3.3803,0.0,0.0,3.2553,3.3481,3.3942,3.5168,3.5415,0.0,0.0,0.0,0.0,3.5083,3.5734,3.7332,3.8173,3.9095,4.0095,3.9857,3.9625,3.9387,3.7643,3.6723,3.6542,3.5881,3.5591,3.5591,3.5579,3.5579,3.556,3.5522,3.5489,3.5476,3.536,3.5383,3.529,3.382,3.3229,3.3055,4.4655,4.5346,4.59,4.5463,4.5842,4.6172,4.6172,4.6172,4.6172,4.6172,4.6172,4.6172,4.6172,4.6172,4.6172,4.6172,4.5656,4.5453,4.5803,4.5354,4.5251,4.5511,4.5183,4.506,4.5229,4.4794,4.4077,4.3009,4.2614,4.1945,4.1152,4.1152,4.1134,4.1088,4.1152,4.1152,4.1152,4.1335,4.138,4.1426,4.156,4.1604,4.1604,4.1604,4.1314,4.0902,4.0902,4.0639,4.0219,3.9826,3.9678,3.9538,3.8726,3.8069,3.7637,3.7252,3.6846,3.6502,3.6444,3.6444,3.6544,3.6602,3.6602,3.6643,3.6708,3.6788,3.6829,3.6891,3.6948,3.6987,3.6891,3.6948,3.7048,3.7206,3.6452,3.5582,3.4715,3.3917,0.0,3.2943,3.3908,3.488,3.5675,3.6622,3.6836,3.5953,0.0,0.0,3.7521,3.7291,3.7835,3.9431,4.0272,4.0699,4.0745,4.072,4.0282,3.9431,3.8073,3.7243,3.688,3.5994,3.5608,3.5601,3.5604,3.5604,3.5596,3.556,3.5547,3.5547,3.543,3.5457,3.5394,3.41,3.3452,3.3089,4.5787,4.5787,4.5821,4.5922,4.6073,4.6172,4.6172,4.6189,4.6172,4.6172,4.6172,4.6172,4.6172,4.6172,4.6172,4.6172,4.6073,4.5972,4.5821,4.5667,4.5528,4.5423,4.5423,4.5476,4.5581,4.5667,4.5074,4.3777,4.3057,4.2306,4.1418,4.1267,4.1123,4.0995,4.1076,4.1093,4.1093,4.1261,4.1335,4.138,4.1515,4.156,4.156,4.1604,4.1604,4.1648,4.1648,4.1692,4.1735,4.0954,4.0742,4.0602,3.9751,3.8856,3.8164,3.824,3.7481,3.6523,3.6461,3.6426,3.6426,3.6544,3.6585,3.6626,3.6725,3.6788,3.6851,3.6869,3.6987,3.7066,3.7066,3.7087,3.7135,3.7202,3.6145,3.5232,3.4979,0.0,3.378,3.4861,3.5268,3.5982,3.7347,3.7589,3.7713,3.7822,3.7118,3.7619,0.0,3.8606,3.8609,4.0328,4.0939,4.1072,4.0796,4.08,4.0428,3.97,3.8818,3.7947,3.7077,3.6203,3.5739,3.5626,3.562,3.5608,3.5612,3.5596,3.5604,3.5584,3.5528,3.5543,3.5534,3.4686,3.3997,3.3322,4.5667,4.5718,4.5838,4.5821,4.5922,4.6023,4.6023,4.6122,4.6172,4.6172,4.6172,4.6172,4.6172,4.6172,4.6172,4.6172,4.6172,4.6073,4.5838,4.5667,4.5528,4.5423,4.5423,4.5476,4.5581,4.6055,4.5844,4.4959,4.4422,4.38,4.2992,4.22,4.1622,4.1401,4.1255,4.1088,4.0935,4.1093,4.114,4.1186,4.1335,4.1426,4.1426,4.156,4.1648,4.178,4.178,4.1858,4.1945,4.1821,4.1785,4.1584,4.0711,4.0275,4.0004,3.9329,3.8491,3.7697,3.7066,3.6891,3.6891,3.6908,3.6908,3.693,3.7031,3.7031,3.7069,3.722,3.722,3.7259,3.7259,3.7523,3.7341,3.6014,3.6115,3.589,3.4451,0.0,3.6489,3.6686,3.8033,3.9016,3.9279,3.9326,3.9609,4.0277,4.022,4.0547,4.1567,4.1379,4.1227,4.1208,4.0673,4.0504,4.0803,4.0803,4.0725,4.0578,3.9707,3.8837,3.7967,3.7157,3.6383,3.5684,3.5687,3.5676,3.5673,3.5631,3.5601,3.5589,3.5528,3.5609,3.5663,3.4742,3.4433,3.4344,4.5632,4.5718,4.5787,4.5718,4.5821,4.5871,4.5871,4.6023,4.6073,4.6073,4.6172,4.6172,4.6172,4.6172,4.6221,4.6301,4.6301,4.6253,4.6154,4.5871,4.577,4.5803,4.5854,4.5988,4.6315,4.6554,4.6305,4.547,4.4936,4.4259,4.353,4.2705,4.2271,4.2132,4.2068,4.1943,4.186,4.2021,4.208,4.208,4.2244,4.2342,4.2324,4.2382,4.2462,4.2501,4.2523,4.26,4.2696,4.2736,4.2619,4.2364,4.2027,4.1296,4.0553,4.0324,3.9247,3.7935,3.718,3.6987,3.6987,3.6987,3.6987,3.7027,3.7048,3.7069,3.7108,3.7203,3.7259,3.7354,3.7559,3.7773,3.7794,3.7539,3.7008,0.0,0.0,3.6637,3.7212,3.7212,3.8686,3.9703,3.9703,4.0075,4.0508,4.0879,4.1694,4.2138,4.2018,4.1991,4.1831,4.1399,4.0831,4.0598,4.079,4.079,4.079,4.079,3.9932,3.9294,3.886,3.7544,3.6751,3.6364,3.5899,3.5695,3.5704,3.5673,3.5643,3.5643,3.5577,3.565,3.5741,3.5308,3.4952,3.4647,4.5667,4.5718,4.5718,4.5632,4.5684,4.577,4.577,4.5871,4.5972,4.5972,4.6023,4.6122,4.6122,4.6253,4.6363,4.6489,4.6631,4.6707,4.6707,4.6376,4.6249,4.6266,4.6346,4.6613,4.6981,4.7097,4.688,4.6209,4.5694,4.5077,4.4336,4.3578,4.3105,4.285,4.2813,4.2758,4.272,4.2794,4.2849,4.2849,4.2996,4.3032,4.3051,4.3087,4.3123,4.3123,4.3158,4.3245,4.3348,4.3416,4.3228,4.2978,4.3105,4.23,4.1328,4.162,4.0462,3.8907,3.8064,3.7765,3.7662,3.7662,3.75,3.7394,3.7394,3.7413,3.7432,3.7432,3.7684,3.799,3.8285,3.8546,3.8839,3.912,0.0,0.0,0.0,3.7822,3.7973,3.835,3.9519,4.025,4.025,4.0828,4.1274,4.1456,4.2634,4.2945,4.2029,4.2051,4.1813,4.1208,4.0945,4.079,4.079,4.079,4.079,4.079,4.0113,3.97,3.9453,3.8106,3.7312,3.6936,3.6287,3.5889,3.5695,3.5704,3.5695,3.5695,3.5648,3.5702,3.5792,3.5827,3.5464,3.4961,4.5821,4.5667,4.5632,4.5632,4.5632,4.5615,4.5615,4.5718,4.5821,4.5821,4.5821,4.5821,4.5821,4.6358,4.6746,4.6791,4.7331,4.7647,4.7505,4.7487,4.7183,4.6501,4.6882,4.715,4.7194,4.7783,4.7965,4.7729,4.7573,4.7095,4.6264,4.5241,4.4241,4.3353,4.3104,4.2869,4.2683,4.272,4.272,4.2739,4.2849,4.2905,4.2941,4.3032,4.3159,4.3176,4.3211,4.3316,4.3505,4.3487,4.3453,4.3453,4.3535,4.3431,4.3293,4.3376,4.2783,4.182,4.0666,4.0035,3.9706,3.9706,3.9061,3.8486,3.8486,3.8486,3.8486,3.8486,3.9103,3.9617,3.9648,4.0535,4.0781,3.9342,0.0,0.0,3.9432,3.9432,3.9977,4.1473,4.1807,4.1914,4.1914,4.204,4.2417,4.3175,4.3318,4.2991,4.2055,4.2189,4.1753,4.0592,4.0712,4.079,4.079,4.079,4.079,4.079,4.0732,4.028,3.9507,3.9375,3.8415,3.6903,3.6906,3.6463,3.5707,3.5695,3.5706,3.5698,3.5693,3.5736,3.5817,3.5862,3.5897,3.578,4.5718,4.5615,4.5563,4.5476,4.5476,4.5476,4.5476,4.5581,4.5718,4.5905,4.6005,4.6235,4.6613,4.6918,4.7194,4.7518,4.7806,4.7926,4.7965,4.8197,4.8102,4.7601,4.7983,4.8252,4.8252,4.8495,4.8605,4.8532,4.8036,4.7681,4.7364,4.6557,4.5718,4.4817,4.4718,4.4358,4.3831,4.3831,4.3831,4.3831,4.3881,4.3881,4.3899,4.3931,4.398,4.4011,4.4053,4.4114,4.4192,4.4231,4.4084,4.3868,4.3899,4.3721,4.352,4.3568,4.359,4.3476,4.3008,4.1847,4.0757,4.0757,4.0535,4.0283,4.0283,4.0283,4.0283,4.0283,4.0523,4.0806,4.0985,4.139,4.1539,4.1083,0.0,4.1205,4.1224,4.1224,4.145,4.2046,4.2146,4.2172,4.2172,4.2636,4.3062,4.3375,4.3791,4.3642,4.2862,4.264,4.2144,4.1277,4.144,4.1293,4.079,4.079,4.079,4.079,4.079,4.0616,4.0288,3.9739,3.9139,3.845,3.7398,3.674,3.6411,3.5908,3.5695,3.5697,3.5702,3.5749,3.581,3.589,3.5937,3.5951,4.5736,4.5632,4.5581,4.5476,4.5423,4.5423,4.5511,4.5615,4.5786,4.62,4.6328,4.6595,4.7176,4.7476,4.7706,4.8102,4.8329,4.8513,4.8604,4.8887,4.8903,4.864,4.8872,4.9012,4.9012,4.9046,4.9046,4.9012,4.8618,4.8253,4.7972,4.7571,4.6918,4.6092,4.5829,4.5397,4.4871,4.4627,4.4515,4.4515,4.4515,4.4515,4.4515,4.4515,4.4515,4.4515,4.4551,4.4578,4.4605,4.4659,4.4477,4.4258,4.4288,4.4102,4.3893,4.3967,4.4194,4.4448,4.4476,4.3493,4.2342,4.2071,4.1781,4.1595,4.1595,4.1595,4.1595,4.1595,4.18,4.2062,4.2275,4.2527,4.275,4.2944,4.297,4.2944,4.2937,4.2937,4.2937,4.2937,4.2937,4.2937,4.2937,4.3412,4.3743,4.3743,4.4168,4.412,4.3473,4.3056,4.2635,4.2251,4.2369,4.2157,4.1583,4.1061,4.079,4.079,4.079,4.079,4.0771,4.0172,3.9758,3.9429,3.8237,3.7583,3.7276,3.643,3.6093,3.6076,3.5838,3.5752,3.5802,3.5897,3.5953,3.6001,4.5821,4.5667,4.5632,4.5632,4.5476,4.5511,4.5735,4.5786,4.6052,4.6746,4.6837,4.6963,4.7386,4.7991,4.8402,4.8421,4.909,4.9509,4.9509,4.9509,4.9509,4.9509,4.9313,4.9179,4.9179,4.9396,4.9377,4.9179,4.9377,4.9058,4.8194,4.8194,4.7781,4.6974,4.611,4.5716,4.566,4.4853,4.4515,4.4515,4.4515,4.4515,4.4515,4.4515,4.4515,4.4515,4.4515,4.4524,4.4605,4.4605,4.4605,4.4605,4.4685,4.4712,4.4712,4.477,4.4796,4.4796,4.487,4.4895,4.4681,4.3818,4.2894,4.2221,4.2221,4.2221,4.2221,4.2221,4.2901,4.353,4.353,4.4146,4.4685,4.4605,4.4605,4.4578,4.4515,4.4515,4.4515,4.4515,4.4515,4.4515,4.4515,4.4515,4.4496,4.4515,4.444,4.4233,4.3823,4.3361,4.3221,4.3395,4.3414,4.3363,4.3305,4.1641,4.081,4.081,4.079,4.079,4.079,4.079,4.0339,3.9507,3.9507,3.9049,3.8249,3.7295,3.6957,3.6928,3.6123,3.5814,3.5835,3.5951,3.601,3.6013,4.5684,4.5581,4.5528,4.5701,4.5701,4.5786,4.6038,4.6328,4.6653,4.7017,4.7331,4.7729,4.8329,4.8549,4.8797,4.9141,4.9358,4.9509,4.9509,4.9409,4.9409,4.9509,4.9459,4.9427,4.9427,4.9459,4.9459,4.9427,4.9459,4.9377,4.9114,4.9114,4.8664,4.7838,4.7575,4.7143,4.6561,4.5697,4.5341,4.5284,4.474,4.4515,4.4515,4.4515,4.4515,4.4515,4.4515,4.4515,4.4542,4.4542,4.4542,4.4524,4.4605,4.4632,4.4632,4.4712,4.4738,4.4719,4.4745,4.4745,4.4714,4.4543,4.4297,4.4089,4.4089,4.4089,4.4089,4.4089,4.4316,4.4486,4.4486,4.4694,4.484,4.4764,4.4738,4.4738,4.4659,4.4605,4.4551,4.4551,4.4542,4.4542,4.4632,4.472,4.4726,4.4659,4.4707,4.481,4.492,4.4886,4.4699,4.4311,4.4304,4.4001,4.3381,4.2228,4.1667,4.1714,4.1094,4.0826,4.0877,4.0815,4.0668,4.0378,3.9816,3.943,3.9141,3.8307,3.7603,3.7105,3.7531,3.7329,3.6795,3.6836,3.6879,3.6824,4.5854,4.5752,4.5752,4.5938,4.5938,4.6119,4.6519,4.6791,4.7176,4.7765,4.8025,4.8403,4.9023,4.9075,4.9193,4.9459,4.9509,4.9459,4.9409,4.939,4.939,4.9409,4.9459,4.9509,4.9509,4.9509,4.9509,4.9509,4.9509,4.9509,4.9509,4.9509,4.9227,4.8701,4.8345,4.7932,4.7425,4.658,4.6204,4.6148,4.5322,4.4984,4.4946,4.4627,4.4515,4.4515,4.4515,4.4487,4.444,4.4487,4.4515,4.4515,4.457,4.4551,4.4578,4.4632,4.4659,4.4659,4.4685,4.4712,4.4738,4.4796,4.4821,4.4846,4.4821,4.4846,4.4846,4.4821,4.4821,4.4821,4.4821,4.4821,4.4796,4.4719,4.4738,4.4712,4.4632,4.4578,4.4551,4.4551,4.4578,4.464,4.4764,4.4905,4.4954,4.4853,4.5055,4.5265,4.543,4.5645,4.5583,4.5231,4.5204,4.494,4.4393,4.3504,4.2749,4.2117,4.1623,4.1198,4.0907,4.0859,4.0839,4.08,4.0325,4.0141,4.0082,3.9226,3.8587,3.8117,3.8011,3.7862,3.7597,3.6925,3.6926,3.7125,4.6235,4.6186,4.6186,4.6235,4.6284,4.6472,4.715,4.7324,4.7666,4.8657,4.885,4.9023,4.9459,4.9509,4.9509,4.9509,4.949,4.9459,4.934,4.9409,4.9409,4.9308,4.9409,4.949,4.9509,4.9509,4.9509,4.9509,4.9509,4.9509,4.9509,4.9509,4.9509,4.9471,4.8664,4.8307,4.8251,4.7443,4.7124,4.703,4.6167,4.5829,4.5735,4.4928,4.4627,4.4608,4.4533,4.4458,4.4411,4.4468,4.4487,4.4487,4.4487,4.4487,4.4468,4.457,4.4578,4.4578,4.4659,4.464,4.464,4.464,4.4693,4.4745,4.4712,4.4745,4.4745,4.4712,4.4685,4.4667,4.4685,4.4685,4.4685,4.4605,4.4605,4.4578,4.4542,4.4524,4.4524,4.4524,4.4667,4.4814,4.4935,4.5065,4.5149,4.5189,4.5449,4.5591,4.5568,4.5847,4.6016,4.6014,4.6016,4.5986,4.5917,4.518,4.4009,4.2421,4.2343,4.1859,4.1014,4.1033,4.0985,4.0917,4.0917,4.0935,4.0937,4.0088,3.9677,3.9461,3.7998,3.7784,3.8102,3.657,3.6523,3.7078,4.6332,4.6284,4.6284,4.6495,4.6753,4.7124,4.7446,4.8062,4.8531,4.8781,4.9108,4.9377,4.9509,4.9509,4.9509,4.9509,4.939,4.939,4.9459,4.9345,4.9313,4.9459,4.939,4.939,4.9509,4.9509,4.9509,4.9509,4.9509,4.9509,4.9509,4.9509,4.9509,4.949,4.9302,4.9227,4.9152,4.8288,4.7932,4.7875,4.7049,4.673,4.6617,4.5772,4.5435,4.5359,4.474,4.4487,4.4468,4.444,4.4401,4.4344,4.4344,4.4344,4.4344,4.4373,4.4373,4.4373,4.4383,4.4401,4.4401,4.4401,4.444,4.4524,4.4685,4.4685,4.4632,4.4632,4.4578,4.4551,4.4605,4.4632,4.4632,4.4685,4.4632,4.4605,4.4659,4.4707,4.4745,4.4814,4.5014,4.5226,4.5361,4.5413,4.5538,4.5856,4.5751,4.5757,4.5964,4.6047,4.6075,4.6075,4.6075,4.6066,4.6056,4.5881,4.5249,4.4141,4.352,4.2791,4.1996,4.1944,4.1565,4.098,4.098,4.0988,4.0996,4.0843,3.9975,3.8799,3.9116,3.8514,3.7429,3.7054,3.7045,3.7084,4.6981,4.7053,4.7212,4.736,4.7554,4.7783,4.8119,4.8549,4.8903,4.9108,4.9345,4.9509,4.9509,4.9509,4.9509,4.9509,4.9459,4.9409,4.939,4.9377,4.9377,4.9409,4.9409,4.944,4.9509,4.9509,4.9509,4.9509,4.9509,4.9509,4.9509,4.9509,4.9509,4.9509,4.9509,4.9509,4.9471,4.9002,4.8814,4.8739,4.7913,4.7575,4.7481,4.6636,4.6317,4.6204,4.5378,4.4834,4.4487,4.4411,4.4383,4.4344,4.4344,4.4314,4.4285,4.4285,4.4285,4.4285,4.4285,4.4285,4.4285,4.4285,4.4344,4.4383,4.4496,4.4496,4.4496,4.4468,4.443,4.4411,4.4524,4.4551,4.4551,4.4605,4.4597,4.4578,4.4685,4.4758,4.4849,4.503,4.5265,4.5486,4.5713,4.5757,4.5875,4.6084,4.5968,4.5936,4.6095,4.6132,4.613,4.6093,4.613,4.6122,4.6095,4.6105,4.5862,4.5356,4.4521,4.348,4.2303,4.226,4.1821,4.1045,4.1045,4.1045,4.1045,4.1085,4.0554,3.9738,3.9783,3.9235,3.8342,3.7513,3.6938,3.6504,4.7591,4.7901,4.8214,4.8214,4.8252,4.8403,4.8746,4.8869,4.9075,4.9459,4.9509,4.9509,4.9509,4.9509,4.9509,4.9509,4.9509,4.944,4.9308,4.939,4.9409,4.9276,4.9377,4.9446,4.9459,4.9459,4.9459,4.9509,4.9509,4.9509,4.9509,4.9509,4.9509,4.9509,4.9509,4.9509,4.9509,4.9509,4.9509,4.9434,4.8701,4.842,4.8326,4.7489,4.7188,4.7076,4.6194,4.5434,4.4842,4.4813,4.4691,4.4531,4.4531,4.4408,4.4255,4.4255,4.4255,4.4255,4.4255,4.4255,4.4255,4.4255,4.4255,4.4255,4.4255,4.4314,4.4344,4.4285,4.4255,4.4314,4.444,4.4487,4.4515,4.456,4.4578,4.4613,4.4751,4.4868,4.4992,4.5223,4.5451,4.5703,4.6007,4.6075,4.6122,4.6122,4.6123,4.6114,4.6114,4.6169,4.6166,4.613,4.6166,4.6166,4.6122,4.6114,4.6105,4.6095,4.5357,4.4208,4.2724,4.2568,4.2077,4.1299,4.1163,4.111,4.111,4.1103,4.1003,4.0806,4.0078,3.9702,3.939,3.7781,3.6649,3.5894,4.7591,4.7901,4.8214,4.8214,4.8477,4.8746,4.8781,4.9141,4.9427,4.949,4.9509,4.9509,4.9509,4.9509,4.9509,4.9509,4.9509,4.944,4.9308,4.9244,4.923,4.9211,4.9183,4.9183,4.923,4.9308,4.939,4.9509,4.9509,4.9509,4.9509,4.9509,4.9509,4.9509,4.9509,4.9509,4.9509,4.9509,4.9509,4.949,4.9377,4.9321,4.9227,4.829,4.7941,4.7829,4.6906,4.6439,4.6302,4.6302,4.5804,4.5183,4.5183,4.4631,4.4036,4.4036,4.4036,4.4036,4.4036,4.4036,4.4036,4.4036,4.4036,4.4036,4.4036,4.4135,4.4214,4.4214,4.4116,4.4128,4.4354,4.4411,4.4532,4.4887,4.4891,4.4915,4.5115,4.5285,4.5414,4.5454,4.5742,4.5997,4.6169,4.6177,4.6185,4.6185,4.6201,4.6201,4.6177,4.6201,4.6196,4.6189,4.6196,4.6201,4.6185,4.6122,4.6104,4.6095,4.592,4.5356,4.4433,4.375,4.2949,4.2096,4.1396,4.111,4.1091,4.1105,4.067,3.996,3.9856,3.9341,3.8555,3.757,3.6654,3.5904,4.8272,4.8604,4.894,4.894,4.9075,4.9193,4.9193,4.9377,4.9509,4.9509,4.9509,4.9509,4.9509,4.944,4.9358,4.9345,4.9345,4.9295,4.9244,4.9211,4.9197,4.9197,4.9164,4.9164,4.9197,4.9211,4.9262,4.9345,4.9377,4.939,4.939,4.939,4.939,4.939,4.9459,4.9509,4.9509,4.9509,4.9509,4.949,4.9409,4.939,4.9321,4.8902,4.872,4.8608,4.7722,4.7093,4.665,4.6713,4.6439,4.6115,4.6165,4.5886,4.5426,4.4917,4.4774,4.4662,4.4135,4.4005,4.4036,4.4147,4.4177,4.4177,4.4177,4.4285,4.4362,4.4255,4.4226,4.4277,4.4662,4.4739,4.4819,4.5123,4.5144,4.5165,4.5285,4.543,4.5576,4.5802,4.5964,4.6085,4.6149,4.613,4.613,4.613,4.6174,4.6174,4.6149,4.6174,4.6201,4.6201,4.6201,4.6201,4.6208,4.6166,4.6141,4.6104,4.6076,4.56,4.4793,4.4433,4.3536,4.2284,4.1928,4.1526,4.1091,4.11,4.0876,4.0527,4.0525,3.9992,3.9065,3.7701,3.6966,3.6562]}]]